[[{"header":{"parameterUnit":"m.s-1","parameterCategory":1,"la1":31.0,"la2":29.5877,"lo1":-88.7671,"lo2":-86.6584,"dy":0.0162,"dx":0.0185,"nx":115,"ny":88,"refTime":"2023-10-10T06:00:00:Z","depth":0,"parameterNumber":2,"parameterNumberName":"U-component_of_WINDS"},"data":[0.0,0.0,0.0,0.0,0.0,0.0,0.0,0.0,0.0,0.0,0.0,0.0,0.0,0.0,0.0,0.0,0.0,0.0,0.0,0.0,0.0,0.0,0.0,0.0,0.0,0.0,0.0,0.0,0.0,0.0,0.0,0.0,0.0,0.0,0.0,0.0,0.0,0.0,0.0,0.0,0.0,0.0,0.0,0.0,0.0,0.0,0.0,0.0,0.0,0.0,0.0,0.0,0.0,0.0,0.0,0.0,0.0,0.0,0.0,0.0,0.0,0.0,0.0,0.0,0.0,0.0,0.0,0.0,0.0,0.0,0.0,0.0,0.0,0.0,0.0,0.0,0.0,0.0,0.0,0.0,0.0,0.0,0.0,0.0,0.0,0.0,0.0,0.0,0.0,0.0,0.0,0.0,0.0,0.0,0.0,0.0,0.0,0.0,0.0,0.0,0.0,0.0,0.0,0.0,0.0,0.0,0.0,0.0,0.0,0.0,0.0,0.0,0.0,0.0,0.0,0.0,0.0,0.0,0.0,0.0,0.0,0.0,0.0,0.0,0.0,0.0,0.0,0.0,0.0,0.0,0.0,0.0,0.0,0.0,0.0,0.0,0.0,0.0,0.0,0.0,0.0,0.0,0.0,0.0,0.0,0.0,0.0,0.0,0.0,0.0,0.0,0.0,0.0,0.0,0.0,0.0,0.0,0.0,0.0,0.0,0.0,0.0,0.0,0.0,0.0,0.0,0.0,0.0,0.0,0.0,0.0,0.0,0.0,0.0,0.0,0.0,0.0,0.0,0.0,0.0,0.0,0.0,0.0,0.0,0.0,0.0,0.0,0.0,0.0,0.0,0.0,0.0,0.0,0.0,0.0,0.0,0.0,0.0,0.0,0.0,0.0,0.0,0.0,0.0,0.0,0.0,0.0,0.0,0.0,0.0,0.0,0.0,0.0,0.0,0.0,0.0,0.0,0.0,0.0,0.0,0.0,0.0,0.0,0.0,0.0,0.0,0.0,0.0,0.0,0.0,0.0,0.0,0.0,0.0,0.0,0.0,0.0,0.0,0.0,0.0,0.0,0.0,0.0,0.0,0.0,0.0,0.0,0.0,0.0,0.0,0.0,0.0,0.0,0.0,0.0,0.0,0.0,0.0,0.0,0.0,0.0,0.0,0.0,0.0,0.0,0.0,0.0,0.0,0.0,0.0,0.0,0.0,0.0,0.0,0.0,0.0,0.0,0.0,0.0,0.0,0.0,0.0,0.0,0.0,0.0,0.0,0.0,0.0,0.0,0.0,0.0,0.0,0.0,0.0,0.0,0.0,0.0,0.0,0.0,0.0,0.0,0.0,0.0,0.0,0.0,0.0,0.0,0.0,0.0,0.0,0.0,0.0,0.0,0.0,0.0,0.0,0.0,0.0,0.0,0.0,0.0,0.0,0.0,0.0,0.0,0.0,0.0,0.0,0.0,0.0,0.0,0.0,0.0,0.0,0.0,0.0,0.0,0.0,0.0,0.0,0.0,0.0,0.0,0.0,0.0,0.0,0.0,0.0,0.0,0.0,0.0,0.0,0.0,0.0,0.0,0.0,0.0,0.0,0.0,0.0,0.0,0.0,0.0,0.0,0.0,0.0,0.0,0.0,0.0,0.0,0.0,0.0,0.0,0.0,0.0,0.0,0.0,0.0,0.0,0.0,0.0,0.0,0.0,0.0,0.0,0.0,0.0,0.0,0.0,0.0,0.0,0.0,0.0,0.0,0.0,0.0,0.0,0.0,0.0,0.0,0.0,0.0,0.0,0.0,0.0,0.0,0.0,0.0,0.0,0.0,0.0,0.0,0.0,0.0,0.0,0.0,0.0,0.0,0.0,0.0,0.0,0.0,0.0,0.0,0.0,0.0,0.0,0.0,0.0,0.0,0.0,0.0,0.0,0.0,0.0,0.0,0.0,0.0,0.0,0.0,0.0,0.0,0.0,0.0,0.0,0.0,0.0,0.0,0.0,0.0,0.0,0.0,0.0,0.0,0.0,0.0,0.0,0.0,0.0,0.0,0.0,0.0,0.0,0.0,0.0,0.0,0.0,0.0,0.0,0.0,0.0,0.0,0.0,0.0,0.0,0.0,0.0,0.0,0.0,0.0,0.0,0.0,0.0,0.0,0.0,0.0,0.0,0.0,0.0,0.0,0.0,0.0,0.0,0.0,0.0,0.0,0.0,0.0,0.0,0.0,0.0,0.0,0.0,0.0,0.0,0.0,0.0,0.0,0.0,0.0,0.0,0.0,0.0,0.0,0.0,0.0,0.0,0.0,0.0,0.0,0.0,0.0,0.0,0.0,0.0,0.0,0.0,0.0,0.0,0.0,0.0,0.0,0.0,0.0,0.0,0.0,0.0,0.0,0.0,0.0,0.0,0.0,0.0,0.0,0.0,0.0,0.0,0.0,0.0,0.0,0.0,0.0,0.0,0.0,0.0,0.0,0.0,0.0,0.0,0.0,0.0,0.0,0.0,0.0,0.0,0.0,0.0,0.0,0.0,0.0,0.0,0.0,0.0,0.0,0.0,0.0,0.0,0.0,0.0,0.0,0.0,0.0,0.0,0.0,0.0,0.0,0.0,0.0,0.0,0.0,0.0,0.0,0.0,0.0,0.0,0.0,0.0,0.0,0.0,0.0,0.0,0.0,0.0,0.0,0.0,0.0,0.0,0.0,0.0,0.0,0.0,0.0,0.0,0.0,0.0,0.0,0.0,0.0,0.0,0.0,0.0,0.0,0.0,0.0,0.0,0.0,0.0,0.0,0.0,0.0,0.0,0.0,0.0,0.0,0.0,0.0,0.0,0.0,0.0,0.0,0.0,0.0,0.0,0.0,0.0,0.0,0.0,0.0,0.0,0.0,0.0,0.0,0.0,0.0,0.0,0.0,0.0,0.0,0.0,0.0,0.0,0.0,0.0,0.0,0.0,0.0,0.0,0.0,0.0,0.0,0.0,0.0,0.0,0.0,0.0,0.0,0.0,0.0,0.0,0.0,0.0,0.0,0.0,0.0,0.0,0.0,0.0,0.0,0.0,0.0,0.0,0.0,0.0,0.0,0.0,0.0,0.0,0.0,0.0,0.0,0.0,0.0,0.0,0.0,0.0,0.0,0.0,0.0,0.0,0.0,0.0,0.0,0.0,0.0,0.0,0.0,0.0,0.0,0.0,0.0,0.0,0.0,0.0,0.0,0.0,0.0,0.0,0.0,0.0,0.0,0.0,0.0,0.0,0.0,0.0,0.0,0.0,0.0,0.0,0.0,0.0,0.0,0.0,0.0,0.0,0.0,0.0,0.0,0.0,0.0,0.0,0.0,0.0,0.0,0.0,0.0,0.0,0.0,0.0,0.0,0.0,0.0,0.0,0.0,0.0,0.0,0.0,0.0,0.0,0.0,0.0,0.0,0.0,0.0,0.0,0.0,0.0,0.0,0.0,0.0,0.0,0.0,0.0,0.0,0.0,0.0,0.0,0.0,0.0,0.0,0.0,0.0,0.0,0.0,0.0,0.0,0.0,0.0,0.0,0.0,0.0,0.0,0.0,0.0,0.0,0.0,0.0,0.0,0.0,0.0,0.0,0.0,0.0,0.0,0.0,0.0,0.0,0.0,0.0,0.0,0.0,0.0,0.0,0.0,0.0,0.0,0.0,0.0,0.0,0.0,0.0,0.0,0.0,0.0,0.0,0.0,0.0,0.0,0.0,0.0,0.0,0.0,0.0,0.0,0.0,0.0,0.0,0.0,0.0,0.0,0.0,0.0,0.0,0.0,0.0,0.0,0.0,0.0,0.0,0.0,0.0,0.0,0.0,0.0,0.0,0.0,0.0,0.0,0.0,0.0,0.0,0.0,0.0,0.0,0.0,0.0,0.0,0.0,0.0,0.0,0.0,0.0,0.0,0.0,0.0,0.0,0.0,0.0,0.0,0.0,0.0,0.0,0.0,0.0,0.0,0.0,0.0,0.0,0.0,0.0,0.0,0.0,0.0,0.0,0.0,0.0,0.0,0.0,0.0,0.0,0.0,0.0,0.0,0.0,0.0,0.0,0.0,0.0,0.0,0.0,0.0,0.0,0.0,0.0,0.0,0.0,0.0,0.0,0.0,0.0,0.0,0.0,0.0,0.0,0.0,0.0,0.0,0.0,0.0,0.0,0.0,0.0,0.0,0.0,0.0,0.0,0.0,0.0,0.0,0.0,0.0,0.0,0.0,0.0,0.0,0.0,0.0,0.0,0.0,0.0,0.0,0.0,0.0,0.0,0.0,0.0,0.7092,0.0,0.0,0.0,0.0,0.0,0.0,0.0,0.0,0.0,0.0,0.0,0.0,0.0,0.0,0.0,0.0,0.0,0.0,0.0,0.0,0.0,0.0,0.0,0.0,0.0,0.0,0.0,0.0,0.0,0.0,0.0,0.0,0.0,0.0,0.0,0.0,0.0,0.0,0.0,0.0,0.0,0.0,0.0,0.0,0.0,0.0,0.0,0.0,0.0,0.0,0.0,0.0,0.0,0.0,0.0,0.0,0.0,0.0,0.0,0.0,0.0,0.0,0.0,0.0,0.0,0.0,0.0,0.0,0.0,0.0,0.0,0.0,0.0,0.0,0.0,0.0,0.0,0.0,0.0,0.0,0.0,0.0,0.0,0.0,0.0,0.0,0.0,0.0,0.0,0.0,0.0,0.0,0.0,0.0,0.0,0.0,0.0,0.0,0.0,0.0,0.0,0.0,0.0,0.0,0.0,0.0,0.0,0.0,0.0,0.0,0.7098,0.7098,0.7098,0.7098,0.7092,0.0,0.0,0.0,0.0,0.0,0.0,0.0,0.0,0.0,0.0,0.0,0.0,0.0,0.0,0.0,0.0,0.0,0.0,0.0,0.0,0.0,0.0,0.0,0.0,0.0,0.0,0.0,0.0,0.0,0.0,0.0,0.0,0.0,0.0,0.0,0.0,0.0,0.0,0.0,0.0,0.0,0.0,0.0,0.0,0.0,0.0,0.0,0.0,0.0,0.0,0.0,0.0,0.0,0.0,0.0,0.0,0.0,0.0,0.0,0.0,0.0,0.0,0.0,0.0,0.0,0.0,0.0,0.0,0.0,0.0,0.0,0.0,0.0,0.0,0.0,0.0,0.0,0.0,0.0,0.0,0.0,0.0,0.0,0.0,0.0,0.0,0.0,0.0,0.0,0.0,0.0,0.0,0.0,0.0,0.0,0.0,0.0,0.0,0.0,0.0,0.0,0.0,0.0,0.0,0.0,0.0,0.0,0.0,0.0,0.0,0.0,0.0,0.7179,0.7166,0.7092,0.0,0.0,0.0,0.0,0.0,0.0,0.0,0.0,0.0,0.0,0.0,0.0,0.0,0.0,0.0,0.0,0.0,0.0,0.0,0.0,0.0,0.0,0.0,0.0,0.0,0.0,0.0,0.0,0.0,0.0,0.0,0.0,0.0,0.0,0.0,0.0,0.0,0.0,0.0,0.0,0.0,0.0,0.0,0.0,0.0,0.0,0.0,0.0,0.0,0.0,0.0,0.0,0.0,0.0,0.0,0.0,0.0,0.0,0.0,0.0,0.0,0.0,0.0,0.0,0.0,0.0,0.0,0.0,0.0,0.0,0.0,0.0,0.0,0.0,0.0,0.0,0.0,0.0,0.0,0.0,0.0,0.0,0.0,0.0,0.0,0.0,0.0,0.0,0.0,0.0,0.0,0.0,0.0,0.0,0.0,0.0,0.0,0.0,0.0,0.0,0.0,0.0,0.0,0.0,0.0,0.0,0.0,0.0,0.0,0.0,0.7353,0.7353,0.7482,0.0,0.7105,0.0,0.0,0.0,0.0,0.0,0.0,0.0,0.0,0.0,0.0,0.0,0.0,0.0,0.0,0.0,0.0,0.0,0.0,0.0,0.0,0.0,0.0,0.0,0.0,0.0,0.0,0.0,0.0,0.0,0.0,0.0,0.0,0.0,0.0,0.0,0.0,0.0,0.0,0.0,0.0,0.0,0.0,0.0,0.0,0.0,0.0,0.0,0.0,0.0,0.0,0.0,0.0,0.0,0.0,0.0,0.0,0.0,0.0,0.0,0.0,0.0,0.0,0.0,0.0,0.0,0.0,0.0,0.0,0.0,0.0,0.0,0.0,0.0,0.0,0.0,0.0,0.0,0.0,0.0,0.0,0.0,0.0,0.0,0.0,0.0,0.0,0.0,0.0,0.0,0.0,0.0,0.0,0.0,0.0,0.0,0.0,0.0,0.0,0.0,0.0,0.0,0.0,0.0,0.0,0.0,0.0,0.0,0.0,0.0,0.0,0.7414,0.7502,0.7423,0.7263,0.0,0.0,0.0,0.0,0.0,0.0,0.0,0.0,0.0,0.0,0.0,0.0,0.0,0.0,0.0,0.0,0.0,0.0,0.0,0.0,0.0,0.0,0.0,0.0,0.0,0.0,0.0,0.0,0.0,0.0,0.0,0.0,0.0,0.0,0.0,0.0,0.0,0.0,0.0,0.0,0.0,0.0,0.0,0.0,0.0,0.0,0.0,0.0,0.0,0.0,0.0,0.0,0.0,0.0,0.0,0.0,0.0,0.0,0.0,0.0,0.0,0.0,0.0,0.0,0.0,0.0,0.0,0.0,0.0,0.0,0.0,0.0,0.0,0.0,0.0,0.0,0.0,0.0,0.0,0.0,0.0,0.0,0.0,0.0,0.0,0.0,0.0,0.0,0.0,0.0,0.0,0.0,0.0,0.0,0.0,0.0,0.0,0.0,0.0,0.0,0.0,0.0,0.0,0.0,0.0,0.0,0.0,0.0,0.0,0.0,0.7387,0.7522,0.7706,0.7401,0.7103,0.6923,0.0,0.0,0.0,0.0,0.0,0.0,0.0,0.0,0.0,0.0,0.0,0.0,0.0,0.0,0.0,0.0,0.0,0.0,0.0,0.0,0.0,0.0,0.0,0.0,0.0,0.0,0.0,0.0,0.0,0.0,0.0,0.0,0.0,0.0,0.0,0.0,0.0,0.0,0.0,0.0,0.0,0.0,0.0,0.0,0.0,0.0,0.0,0.0,0.0,0.0,0.0,0.0,0.0,0.0,0.0,0.0,0.0,0.0,0.0,0.0,0.0,0.0,0.0,0.0,0.0,0.0,0.0,0.0,0.0,0.0,0.0,0.0,0.0,0.0,0.0,0.0,0.0,0.0,0.0,0.0,0.0,0.0,0.0,0.0,0.0,0.0,0.0,0.0,0.0,0.0,0.0,0.0,0.0,0.0,0.0,0.0,0.0,0.0,0.0,0.0,0.0,0.0,0.0,0.0,0.0,0.0,0.0,0.0,0.7112,0.7441,0.7726,0.7948,0.75,0.705,0.0,0.0,0.0,0.0,0.0,0.0,0.0,0.0,0.0,0.0,0.0,0.0,0.0,0.0,0.0,0.0,0.0,0.0,0.0,0.0,0.0,0.0,0.0,0.0,0.0,0.0,0.0,0.0,0.0,0.0,0.0,0.0,0.0,0.0,0.0,0.0,0.0,0.0,0.0,0.0,0.0,0.0,0.0,0.0,0.0,0.0,0.0,0.0,0.0,0.0,0.0,0.0,0.0,0.0,0.0,0.0,0.0,0.0,0.0,0.0,0.0,0.0,0.0,0.0,0.0,0.0,0.0,0.0,0.0,0.0,0.0,0.0,0.0,0.0,0.0,0.0,0.0,0.0,0.0,0.0,0.0,0.0,0.0,0.0,0.0,0.0,0.0,0.0,0.0,0.0,0.0,0.0,0.0,0.0,0.0,0.0,0.0,0.0,0.0,0.0,0.0,0.0,0.0,0.0,0.0,0.0,0.0,0.0,0.0,0.7292,0.7678,0.7784,0.77,0.716,0.6585,0.0,0.0,0.0,0.0,0.0,0.0,0.0,0.0,0.0,0.0,0.0,0.0,0.0,0.0,0.0,0.0,0.0,0.0,0.0,0.0,0.0,0.0,0.0,0.0,0.0,0.0,0.0,0.0,0.0,0.0,0.0,0.0,0.0,0.0,0.0,0.0,0.0,0.0,0.0,0.0,0.0,0.0,0.0,0.0,0.0,0.0,0.0,0.0,0.0,0.0,0.0,0.0,0.0,0.0,0.0,0.0,0.0,0.0,0.0,0.0,0.0,0.0,0.0,0.0,0.0,0.0,0.0,0.0,0.0,0.0,0.0,0.0,0.0,0.0,0.0,0.0,0.0,0.0,0.0,0.0,0.0,0.0,0.0,0.0,0.0,0.0,0.0,0.0,0.0,0.0,0.0,0.0,0.0,0.0,0.0,0.0,0.0,0.0,0.0,0.0,0.0,0.0,0.0,0.0,0.0,0.0,0.0,0.0,0.0,0.7204,0.0,0.7595,0.7254,0.6779,0.615,0.0,0.0,0.0,0.0,0.0,0.0,0.0,0.0,0.0,0.0,0.0,0.0,0.0,0.0,0.0,0.0,0.0,0.0,0.0,0.0,0.0,0.0,0.0,0.0,0.0,0.0,0.0,0.0,0.0,0.0,0.0,0.0,0.0,0.0,0.0,0.0,0.0,0.0,0.0,0.0,0.0,0.0,0.0,0.0,0.0,0.0,0.0,0.0,0.0,0.0,0.0,0.0,0.0,0.0,0.0,0.0,0.0,0.0,0.0,0.0,0.0,0.0,0.0,0.0,0.0,0.0,0.0,0.0,0.0,0.0,0.0,0.0,0.0,0.0,0.0,0.0,0.0,0.0,0.0,0.0,0.0,0.0,0.0,0.0,0.0,0.0,0.0,0.0,0.0,0.0,0.0,0.0,0.0,0.0,0.0,0.0,0.0,0.0,0.0,0.0,0.0,0.0,0.0,0.0,0.0,0.0,0.0,0.0,0.604,0.6779,0.7058,0.7042,0.6786,0.6316,0.565,0.0,0.0,0.0,0.0,0.0,0.0,0.0,0.0,0.0,0.0,0.0,0.0,0.0,0.0,0.0,0.0,0.0,0.0,0.0,0.0,0.0,0.0,0.0,0.0,0.0,0.0,0.0,0.0,0.0,0.0,0.0,0.0,0.0,0.0,0.0,0.0,0.0,0.0,0.0,0.0,0.0,0.0,0.0,0.0,0.0,0.0,0.0,0.0,0.0,0.0,0.0,0.0,0.0,0.0,0.0,0.0,0.0,0.0,0.0,0.0,0.0,0.0,0.0,0.0,0.0,0.0,0.0,0.0,0.0,0.0,0.0,0.0,0.0,0.0,0.0,0.0,0.0,0.0,0.0,0.0,0.0,0.0,0.0,0.0,0.0,0.0,0.0,0.0,0.0,0.0,0.0,0.0,0.0,0.0,0.0,0.0,0.0,0.0,0.0,0.0,0.0,0.0,0.0,0.0,0.0,0.0,0.0,0.0,0.0,0.6347,0.6642,0.6524,0.5987,0.5606,0.4844,0.0,0.0,0.0,0.0,0.0,0.0,0.0,0.0,0.0,0.0,0.0,0.0,0.0,0.0,0.0,0.0,0.0,0.0,0.0,0.0,0.0,0.0,0.0,0.0,0.0,0.0,0.0,0.0,0.0,0.0,0.0,0.0,0.0,0.0,0.0,0.0,0.0,0.0,0.0,0.0,0.0,0.0,0.0,0.0,0.0,0.0,0.0,0.0,0.0,0.0,0.0,0.0,0.0,0.0,0.0,0.0,0.0,0.0,0.0,0.0,0.0,0.0,0.0,0.0,0.0,0.0,0.0,0.0,0.0,0.0,0.0,0.0,0.0,0.0,0.0,0.0,0.0,0.0,0.0,0.0,0.0,0.0,0.0,0.0,0.0,0.0,0.0,0.0,0.0,0.0,0.0,0.0,0.0,0.0,0.0,0.0,0.0,0.0,0.0,0.0,0.0,0.0,0.0,0.0,0.0,0.0,0.0,0.0,0.0,0.5044,0.5542,0.5507,0.4885,0.4645,0.3995,0.287,0.0,0.0,0.0,0.0,0.0,0.0,0.0,0.0,0.0,0.0,0.0,0.0,0.0,0.0,0.0,0.0,0.0,0.0,0.0,0.0,0.0,0.0,0.0,0.0,0.0,0.0,0.0,0.0,0.0,0.0,0.0,0.0,0.0,0.0,0.0,0.0,0.0,0.0,0.0,0.0,0.0,0.0,0.0,0.0,0.0,0.0,0.0,0.0,0.0,0.0,0.0,0.0,0.0,0.0,0.0,0.0,0.0,0.0,0.0,0.0,0.0,0.0,0.0,0.0,0.0,0.0,0.0,0.0,0.0,0.0,0.0,0.0,0.0,0.0,0.0,0.0,0.0,0.0,0.0,0.0,0.0,0.0,0.0,0.0,0.0,0.0,0.0,0.0,0.0,0.0,0.0,0.0,0.0,0.0,0.0,0.0,0.0,0.0,0.0,0.0,0.0,0.0,0.0,0.0,0.0,0.0,0.0,0.0,0.3136,0.393,0.4163,0.3737,0.3613,0.313,0.0,0.0,0.0,0.0,0.0,0.0,0.0,0.0,0.0,0.0,0.0,0.0,0.0,0.0,0.0,0.0,0.0,0.0,0.0,0.0,0.0,0.0,0.0,0.0,0.0,0.0,0.0,0.0,0.0,0.0,0.0,0.0,0.0,0.0,0.0,0.0,0.0,0.0,0.0,0.0,0.0,0.0,0.0,0.0,0.0,0.0,0.0,0.0,0.0,0.0,0.0,0.0,0.0,0.0,0.0,0.0,0.0,0.0,0.0,0.0,0.0,0.0,0.0,0.0,0.0,0.0,0.0,0.0,0.0,0.0,0.0,0.0,0.0,0.0,0.0,0.0,0.0,0.0,0.0,0.0,0.0,0.0,0.0,0.0,0.0,0.0,0.0,0.0,0.0,0.0,0.0,0.0,0.0,0.0,0.0,0.0,0.0,0.0,0.0,0.0,0.0,0.0,0.0,0.0,0.0,0.0,0.0,0.0,0.0,0.2097,0.2554,0.2932,0.3258,0.2971,0.2481,0.0,0.0,0.0,0.0,0.0,0.0,0.0,0.0,0.0,0.0,0.0,0.0,0.0,0.0,0.0,0.0,0.0,0.0,0.0,0.0,0.0,0.0,0.0,0.0,0.0,0.0,0.0,0.0,0.0,0.0,0.0,0.0,0.0,0.0,0.0,0.0,0.0,0.0,0.0,0.0,0.0,0.0,0.0,0.0,0.0,0.0,0.0,0.0,0.0,0.0,0.0,0.0,0.0,0.0,0.0,0.0,0.0,0.0,0.0,0.0,0.0,0.0,0.0,0.0,0.0,0.0,0.0,0.0,0.0,0.0,0.0,0.0,0.0,0.0,0.0,0.0,0.0,0.0,0.0,0.0,0.0,0.0,0.0,0.0,0.0,0.0,0.0,0.0,0.0,0.0,0.0,0.0,0.0,0.0,0.0,0.0,0.0,0.0,0.0,0.0,0.0,0.0,0.0,0.0,0.0,0.0,0.0,0.0,0.0701,0.0578,0.0548,0.0674,0.1074,0.1694,0.1722,0.0,0.0,0.0,0.0,0.0,0.0,0.0,0.0,0.0,0.0,0.0,0.0,0.0,0.0,0.0,0.0,0.0,0.0,0.0,0.0,0.0,0.0,0.0,0.0,0.0,0.0,0.0,0.0,0.0,0.0,0.0,0.0,0.0,0.0,0.0,0.0,0.0,0.0,0.0,0.0,0.0,0.0,0.0,0.0,0.0,0.0,0.0,0.0,0.0,0.0,0.0,0.0,0.0,0.0,0.0,0.0,0.0,0.0,0.0,0.0,0.0,0.0,0.0,0.0,0.0,0.0,0.0,0.0,0.0,0.0,0.0,0.0,0.0,0.0,0.0,0.0,0.0,0.0,0.0,0.0,0.0,0.0,0.0,0.0,0.0,0.0,0.0,0.0,0.0,0.0,0.0,0.0,0.0,0.0,0.0,0.0,0.0,0.0,0.0,0.0,0.0,0.0,0.0,0.0,0.0,0.0,0.0,0.0,-0.0715,-0.1042,-0.1531,-0.1749,-0.1662,0.0056,0.0753,0.0,0.0,0.0,0.0,0.0,0.0,0.0,0.0,0.0,0.0,0.0,0.0,0.0,0.0,0.0,0.0,0.0,0.0,0.0,0.0,0.0,0.0,0.0,0.0,0.0,0.0,0.0,0.0,0.0,0.0,0.0,0.0,0.0,0.0,0.0,0.0,0.0,0.0,0.0,0.0,0.0,0.0,0.0,0.0,0.0,0.0,0.0,0.0,0.0,0.0,0.0,0.0,0.0,0.0,0.0,0.0,0.0,0.0,0.0,0.0,0.0,0.0,0.0,0.0,0.0,0.0,0.0,0.0,0.0,0.0,0.0,0.0,0.0,0.0,0.0,0.0,0.0,0.0,0.0,0.0,0.0,0.0,0.0,0.0,0.0,0.0,0.0,0.0,0.0,0.0,0.0,0.0,0.0,0.0,0.0,0.0,0.0,0.0,0.0,0.0,0.0,0.0,0.0,0.0,0.0,0.0,0.0,0.0,-0.1413,-0.1889,-0.1825,-0.175,-0.172,-0.1322,-0.1227,0.0,0.0,0.0,0.0,0.0,0.0,0.0,0.0,0.0,0.0,0.0,0.0,0.0,0.0,0.0,0.0,0.0,0.0,0.0,0.0,0.0,0.0,0.0,0.0,0.0,0.0,0.0,0.0,0.0,0.0,0.0,0.0,0.0,0.0,0.0,0.0,0.0,0.0,0.0,0.0,0.0,0.0,0.0,0.0,0.0,0.0,0.0,0.0,-1.1901,0.0,0.0,0.0,0.0,0.0,0.0,0.0,0.0,0.0,0.0,0.0,0.0,0.0,0.0,0.0,0.0,0.0,0.0,0.0,0.0,0.0,0.0,0.0,0.0,0.0,0.0,0.0,0.0,0.0,0.0,0.0,0.0,0.0,0.0,0.0,0.0,0.0,0.0,0.0,0.0,0.0,0.0,0.0,0.0,0.0,0.0,0.0,0.0,0.0,0.0,0.0,0.0,0.0,0.0,0.0,0.0,0.0,0.0,0.0,-0.2636,-0.3216,-0.3387,-0.3653,-0.4017,-0.389,-0.3431,0.0,0.0,0.0,0.0,0.0,0.0,0.0,0.0,0.0,0.0,0.0,0.0,0.0,0.0,0.0,0.0,0.0,0.0,0.0,0.0,0.0,0.0,0.0,0.0,0.0,0.0,0.0,0.0,0.0,0.0,0.0,0.0,0.0,0.0,0.0,0.0,0.0,0.0,0.0,0.0,0.0,0.0,0.0,0.0,0.0,0.0,0.0,0.0,0.0,0.0,0.0,0.0,0.0,0.0,0.0,0.0,0.0,0.0,0.0,0.0,0.0,0.0,0.0,0.0,0.0,0.0,0.0,0.0,0.0,0.0,0.0,0.0,0.0,0.0,0.0,0.0,0.0,0.0,0.0,0.0,0.0,0.0,0.0,0.0,0.0,0.0,0.0,0.0,0.0,0.0,0.0,0.0,0.0,0.0,0.0,0.0,0.0,0.0,0.0,0.0,0.0,0.0,0.0,0.0,0.0,0.0,0.0,-0.3456,-0.4116,-0.476,-0.5447,-0.6158,-0.6877,-0.6707,-0.5826,-0.4225,0.0,0.0,0.0,0.0,0.0,0.0,0.0,0.0,0.0,0.0,0.0,0.0,0.0,0.0,0.0,0.0,0.0,0.0,0.0,0.0,0.0,0.0,0.0,0.0,0.0,0.0,0.0,0.0,0.0,0.0,0.0,0.0,0.0,0.0,0.0,0.0,0.0,0.0,-1.0261,-1.1891,0.0,0.0,0.0,0.0,0.0,0.0,0.0,0.0,-1.5123,0.0,0.0,0.0,0.0,0.0,0.0,0.0,0.0,0.0,0.0,0.0,0.0,0.0,0.0,0.0,0.0,0.0,0.0,0.0,0.0,0.0,0.0,0.0,0.0,0.0,0.0,0.0,0.0,0.0,0.0,0.0,0.0,0.0,0.0,0.0,0.0,0.0,0.0,0.0,0.0,0.0,0.0,0.0,0.0,0.0,0.0,0.0,0.0,0.0,0.0,0.0,0.0,0.0,0.0,0.0,0.0,-0.3723,-0.4673,-0.5567,-0.6342,-0.7138,-0.7642,-0.7802,-0.8064,-0.8189,-0.8173,0.0,0.0,0.0,0.0,0.0,0.0,0.0,0.0,0.0,0.0,0.0,0.0,0.0,0.0,0.0,0.0,0.0,0.0,0.0,0.0,0.0,0.0,0.0,0.0,0.0,0.0,0.0,0.0,0.0,0.0,0.0,0.0,0.0,0.0,0.0,0.0,0.0,0.0,0.0,-1.4322,-1.5535,0.0,0.0,0.0,0.0,0.0,0.0,0.0,0.0,-1.6903,0.0,0.0,0.0,0.0,0.0,0.0,0.0,0.0,0.0,0.0,0.0,0.0,0.0,0.0,0.0,0.0,0.0,0.0,0.0,0.0,0.0,0.0,0.0,0.0,0.0,0.0,0.0,0.0,0.0,0.0,0.0,0.0,0.0,0.0,0.0,0.0,0.0,0.0,0.0,0.0,0.0,0.0,0.0,0.0,0.0,0.0,0.0,0.0,0.0,0.0,0.0,0.0,0.0,0.0,0.0,-0.4984,-0.5533,-0.6318,-0.736,-0.7808,-0.8251,-0.8748,-0.9204,-0.982,0.0,0.0,0.0,0.0,0.0,0.0,0.0,0.0,0.0,0.0,0.0,0.0,0.0,0.0,0.0,0.0,0.0,0.0,0.0,0.0,0.0,0.0,0.0,0.0,0.0,0.0,0.0,0.0,0.0,0.0,0.0,0.0,0.0,0.0,0.0,0.0,0.0,0.0,0.0,0.0,-1.6753,-1.7584,-1.9215,0.0,0.0,0.0,0.0,0.0,0.0,-1.8648,-1.85,0.0,0.0,0.0,0.0,0.0,0.0,0.0,0.0,0.0,0.0,0.0,0.0,0.0,0.0,0.0,0.0,0.0,0.0,0.0,0.0,0.0,0.0,0.0,0.0,0.0,0.0,0.0,0.0,0.0,0.0,0.0,0.0,0.0,0.0,0.0,0.0,0.0,0.0,0.0,0.0,0.0,0.0,0.0,0.0,0.0,0.0,0.0,0.0,0.0,0.0,0.0,0.0,0.0,0.0,0.0,-0.6149,-0.6425,-0.7144,-0.8232,-0.8686,-0.9244,-1.0014,-1.0737,-1.1435,0.0,0.0,0.0,0.0,0.0,0.0,0.0,0.0,0.0,0.0,0.0,0.0,0.0,0.0,0.0,0.0,0.0,0.0,0.0,0.0,0.0,0.0,0.0,0.0,0.0,0.0,0.0,0.0,0.0,0.0,0.0,0.0,0.0,0.0,0.0,0.0,0.0,0.0,0.0,0.0,0.0,-1.9792,-2.1067,-2.1162,0.0,0.0,0.0,0.0,-2.0593,-2.0394,0.0,0.0,0.0,0.0,0.0,0.0,0.0,0.0,0.0,0.0,0.0,0.0,0.0,0.0,0.0,0.0,0.0,0.0,0.0,0.0,0.0,0.0,0.0,0.0,0.0,0.0,0.0,0.0,0.0,0.0,0.0,0.0,0.0,0.0,0.0,0.0,0.0,0.0,0.0,0.0,0.0,0.0,0.0,0.0,0.0,0.0,0.0,0.0,0.0,0.0,0.0,0.0,0.0,0.0,0.0,0.0,-0.6973,-0.7969,-0.8696,-0.9277,-1.1,-1.1973,-1.2082,-1.3142,-1.3858,0.0,0.0,0.0,0.0,0.0,0.0,0.0,0.0,0.0,0.0,0.0,0.0,0.0,0.0,0.0,0.0,0.0,0.0,0.0,0.0,0.0,0.0,0.0,0.0,0.0,0.0,0.0,0.0,0.0,0.0,0.0,0.0,0.0,0.0,0.0,0.0,0.0,0.0,0.0,0.0,0.0,-2.2445,-2.1689,-2.3124,-2.3512,0.0,0.0,-2.1825,-2.1888,-2.2614,0.0,0.0,0.0,0.0,0.0,0.0,0.0,0.0,0.0,0.0,0.0,0.0,0.0,0.0,0.0,0.0,0.0,0.0,0.0,0.0,0.0,0.0,0.0,0.0,0.0,0.0,0.0,0.0,0.0,0.0,0.0,0.0,0.0,0.0,0.0,0.0,0.0,0.0,0.0,0.0,0.0,0.0,0.0,0.0,0.0,0.0,0.0,0.0,0.0,0.0,0.0,0.0,0.0,0.0,0.0,-0.7202,-0.8235,-0.9342,-1.0286,-1.1139,-1.2788,-1.3663,-1.3652,-1.4619,-1.5059,0.0,0.0,0.0,0.0,0.0,0.0,0.0,0.0,0.0,0.0,0.0,0.0,0.0,0.0,0.0,0.0,0.0,0.0,0.0,0.0,0.0,0.0,0.0,0.0,0.0,0.0,0.0,0.0,0.0,0.0,0.0,0.0,0.0,0.0,0.0,0.0,0.0,0.0,0.0,0.0,0.0,0.0,-2.4967,-2.5546,0.0,0.0,0.0,-2.3998,-2.332,0.0,0.0,0.0,0.0,0.0,0.0,0.0,0.0,0.0,0.0,0.0,0.0,0.0,0.0,0.0,0.0,0.0,0.0,0.0,0.0,0.0,0.0,0.0,0.0,0.0,0.0,0.0,0.0,0.0,0.0,0.0,0.0,0.0,0.0,0.0,0.0,0.0,0.0,0.0,0.0,0.0,0.0,0.0,0.0,0.0,0.0,0.0,0.0,0.0,0.0,0.0,0.0,0.0,0.0,0.0,0.0,0.0,-0.9895,-1.0744,-1.1773,-1.294,-1.4309,-1.506,-1.5144,-1.5919,0.0,0.0,0.0,0.0,0.0,0.0,0.0,0.0,0.0,0.0,0.0,0.0,0.0,0.0,0.0,0.0,0.0,0.0,0.0,0.0,0.0,0.0,0.0,0.0,0.0,0.0,0.0,-1.3237,0.0,0.0,0.0,0.0,0.0,0.0,0.0,0.0,0.0,0.0,0.0,0.0,0.0,0.0,-2.6138,-2.7371,-2.7719,-2.7703,0.0,0.0,-2.5913,-2.5275,-2.58,-2.5733,0.0,0.0,0.0,0.0,0.0,0.0,0.0,0.0,0.0,0.0,0.0,0.0,0.0,0.0,0.0,0.0,0.0,0.0,0.0,0.0,0.0,0.0,0.0,0.0,0.0,0.0,0.0,0.0,0.0,0.0,0.0,0.0,0.0,0.0,0.0,0.0,0.0,0.0,0.0,0.0,0.0,0.0,0.0,0.0,0.0,0.0,0.0,0.0,0.0,0.0,0.0,0.0,0.0,0.0,-1.0755,-1.2104,-1.2435,-1.3205,-1.4449,-1.5595,-1.6287,-1.6539,-1.7416,-1.7945,0.0,0.0,0.0,0.0,0.0,0.0,0.0,0.0,0.0,0.0,0.0,0.0,0.0,0.0,0.0,0.0,0.0,0.0,0.0,0.0,0.0,0.0,0.0,0.0,0.0,0.0,0.0,0.0,0.0,0.0,0.0,0.0,0.0,0.0,0.0,0.0,0.0,0.0,0.0,0.0,0.0,-2.8184,-2.7377,-2.9241,-3.0244,0.0,-2.7784,-2.7274,-2.7884,-2.7953,-2.7491,-2.611,0.0,0.0,0.0,0.0,0.0,0.0,0.0,0.0,0.0,0.0,0.0,0.0,0.0,0.0,0.0,0.0,0.0,0.0,0.0,0.0,0.0,0.0,0.0,0.0,0.0,0.0,0.0,0.0,0.0,0.0,0.0,0.0,0.0,0.0,0.0,0.0,0.0,0.0,0.0,0.0,0.0,0.0,0.0,0.0,0.0,0.0,0.0,0.0,0.0,0.0,0.0,0.0,0.0,-1.1914,-1.3065,-1.4152,-1.5112,-1.5931,-1.7857,-1.8968,-1.9005,-2.0124,-2.0557,0.0,0.0,0.0,0.0,0.0,0.0,0.0,0.0,0.0,0.0,0.0,0.0,0.0,0.0,0.0,0.0,0.0,0.0,0.0,0.0,0.0,0.0,0.0,0.0,0.0,0.0,0.0,0.0,-1.7429,-1.7289,-1.7112,0.0,0.0,0.0,0.0,0.0,0.0,0.0,0.0,0.0,0.0,-2.9502,-2.9729,-3.0894,0.0,0.0,-2.987,-2.9215,-2.8641,-2.9032,-2.8782,-2.6956,-2.7004,0.0,0.0,0.0,0.0,0.0,0.0,0.0,0.0,0.0,0.0,0.0,0.0,0.0,0.0,0.0,0.0,0.0,0.0,0.0,0.0,0.0,0.0,0.0,0.0,0.0,0.0,0.0,0.0,0.0,0.0,0.0,0.0,0.0,0.0,0.0,0.0,0.0,0.0,0.0,0.0,0.0,0.0,0.0,0.0,0.0,0.0,0.0,0.0,0.0,0.0,0.0,0.0,-1.3321,-1.4437,-1.5732,-1.6856,-1.7843,-1.9591,-2.0688,-2.1081,-2.2045,-2.2329,0.0,0.0,0.0,0.0,0.0,0.0,0.0,0.0,0.0,0.0,0.0,0.0,0.0,0.0,0.0,0.0,0.0,0.0,0.0,0.0,0.0,0.0,0.0,0.0,0.0,0.0,0.0,0.0,-1.9272,-1.9083,-1.9033,0.0,0.0,0.0,0.0,0.0,0.0,0.0,0.0,0.0,0.0,-3.0565,-3.1304,-3.1786,-3.2035,-3.1854,-3.1291,-3.0578,-2.9813,-2.9859,-2.9552,-2.8241,0.0,0.0,0.0,0.0,0.0,0.0,0.0,0.0,0.0,0.0,0.0,0.0,0.0,0.0,0.0,0.0,0.0,0.0,0.0,0.0,0.0,0.0,0.0,0.0,0.0,0.0,0.0,0.0,0.0,0.0,-0.2445,0.0,0.0,0.0,0.0,0.0,0.0,0.0,0.0,0.0,0.0,0.0,0.0,0.0,0.0,0.0,0.0,0.0,0.0,0.0,0.0,0.0,0.0,-1.5213,-1.6573,-1.6972,-1.8189,-2.0261,-2.0483,-2.1132,-2.2383,-2.2717,-2.2912,-2.2905,0.0,0.0,0.0,0.0,0.0,0.0,0.0,0.0,0.0,0.0,0.0,0.0,0.0,0.0,0.0,0.0,0.0,0.0,0.0,0.0,0.0,0.0,0.0,0.0,0.0,0.0,-2.1083,-2.0289,-1.9997,0.0,0.0,0.0,0.0,0.0,0.0,0.0,0.0,0.0,0.0,-2.9837,-3.1341,-3.1377,-3.1744,-3.2148,-3.2496,-3.1579,-3.1084,-3.1724,-3.0662,-2.9733,0.0,0.0,0.0,0.0,0.0,0.0,0.0,0.0,0.0,0.0,0.0,0.0,0.0,0.0,0.0,0.0,0.0,0.0,0.0,0.0,0.0,0.0,0.0,0.0,0.0,0.0,0.0,-0.1278,-0.1256,0.0,0.0,0.0,0.0,0.0,0.0,0.0,0.0,0.0,0.0,0.0,-0.6217,-0.7393,0.0,0.0,0.0,0.0,0.0,0.0,0.0,0.0,0.0,0.0,0.0,0.0,-1.6127,-1.7202,-1.7903,-1.873,-1.9709,-2.1081,-2.203,-2.2484,-2.4146,-2.489,-2.4618,0.0,0.0,0.0,0.0,0.0,0.0,0.0,0.0,0.0,0.0,0.0,0.0,0.0,0.0,0.0,0.0,0.0,0.0,0.0,0.0,0.0,0.0,0.0,0.0,0.0,-2.3113,0.0,0.0,0.0,0.0,0.0,0.0,0.0,0.0,0.0,0.0,0.0,-2.8425,-2.9617,-3.0699,-3.1377,-3.1377,-3.1744,-3.2056,0.0,0.0,0.0,0.0,0.0,0.0,0.0,0.0,0.0,0.0,0.0,0.0,0.0,0.0,-2.9834,-2.919,-2.8692,-2.8342,-2.8439,0.0,0.0,0.0,0.0,0.0,0.0,0.0,0.0,0.0,0.0,0.0,0.0,0.0,0.0,-0.2336,0.0,-0.2656,0.0,0.0,0.0,0.0,0.0,0.0,0.0,0.0,-0.5573,-0.6124,-0.694,-0.8007,-0.9033,0.0,-1.1215,-1.1812,0.0,0.0,0.0,0.0,0.0,0.0,0.0,0.0,-1.7066,-1.7775,-1.8578,-1.9463,-2.0416,-2.1794,-2.2935,-2.3732,-2.5441,-2.6249,-2.589,-2.5664,-2.5349,0.0,0.0,0.0,0.0,0.0,0.0,0.0,0.0,0.0,0.0,0.0,0.0,0.0,0.0,0.0,0.0,0.0,0.0,0.0,0.0,0.0,0.0,0.0,-2.4272,0.0,0.0,0.0,0.0,0.0,0.0,0.0,0.0,0.0,-2.7765,-2.8755,-2.9819,-3.0846,-3.1451,-3.1689,-3.1414,0.0,0.0,0.0,0.0,0.0,0.0,0.0,-3.1799,-3.1799,-3.1799,-3.1946,-3.2349,-3.2643,-3.3083,-3.3872,0.0,0.0,-3.1502,-3.0874,-3.052,-3.0644,-3.0736,-3.0754,-3.0479,-3.0032,-2.9549,0.0,0.0,0.0,0.0,0.0,0.0,0.0,0.0,-0.4641,-0.4233,0.0,-0.4453,0.0,0.0,0.0,0.0,0.0,-0.5545,0.0,0.0,-0.6056,-0.7142,-0.8665,-0.8781,-0.9868,-1.1778,-1.2049,-1.2468,-1.3116,-1.2736,0.0,0.0,0.0,0.0,0.0,0.0,-1.7984,-1.8321,-1.895,-2.0277,-2.2232,-2.2433,-2.3683,-2.5994,-2.6592,-2.6839,-2.6662,-2.7228,-2.6966,-2.5687,-2.6064,0.0,0.0,0.0,0.0,0.0,0.0,0.0,0.0,0.0,0.0,0.0,0.0,0.0,0.0,0.0,0.0,0.0,0.0,0.0,0.0,-2.4556,0.0,0.0,0.0,0.0,0.0,0.0,0.0,0.0,0.0,0.0,-2.9085,-3.0406,-3.1396,-3.1433,0.0,0.0,0.0,0.0,-3.2038,-3.2056,-3.2349,-3.2588,-3.2606,-3.2606,-3.2606,-3.2606,0.0,0.0,-3.3193,-3.3266,-3.3523,-3.4293,-3.4073,-3.3688,-3.3271,-3.2539,-3.2166,-3.2423,-3.2239,-3.2056,-3.1983,-3.1374,-3.0789,-0.6153,0.0,0.0,0.0,0.0,-0.5907,-0.5301,-0.4591,-0.4262,-0.3984,-0.3726,-0.4043,0.0,0.0,0.0,0.0,0.0,0.0,-0.5618,-0.5805,-0.6644,-0.7356,-0.793,-0.9886,-1.1101,-1.1606,-1.3122,-1.3867,-1.3969,-1.4603,-1.5049,-1.5331,0.0,0.0,0.0,0.0,-1.8086,-1.8642,-1.9067,-1.9583,-2.0225,-2.1895,-2.4029,-2.6592,-2.6805,-2.7078,-2.7531,-2.7794,-2.7977,-2.8079,-2.7913,0.0,0.0,0.0,0.0,0.0,0.0,0.0,0.0,0.0,0.0,0.0,0.0,0.0,0.0,0.0,0.0,0.0,0.0,0.0,-2.4941,-2.5142,-2.5249,0.0,0.0,0.0,0.0,0.0,0.0,0.0,0.0,0.0,-3.1433,-3.1497,-3.1708,0.0,0.0,-3.2514,-3.2276,-3.2349,-3.2533,-3.2845,-3.2716,0.0,-3.301,-3.3046,-3.3046,-3.3046,-3.3505,-3.3927,-3.4037,-3.4055,-3.433,-3.5119,-3.4477,-3.3945,-3.4385,-3.3853,-3.3175,-3.2753,-3.2955,-3.3065,-3.257,-3.2266,-3.1841,-0.666,-0.6525,-0.6476,-0.6539,-0.6509,-0.6302,-0.5873,-0.5322,-0.5115,-0.483,-0.4622,-0.4813,-0.5102,-0.529,-0.5494,0.0,0.0,0.0,-0.6341,-0.6499,-0.7583,-0.8268,-0.8795,-1.0691,-1.1705,-1.1959,-1.3655,-1.4488,-1.4427,-1.5614,-1.6344,-1.6592,0.0,0.0,-1.7965,-1.813,-1.8394,-1.8789,-1.9111,-1.9635,-2.0292,-2.2735,-2.4933,-2.6784,-2.6996,-2.7421,-2.8216,-2.847,-2.8892,-2.9536,-2.9195,-2.8604,0.0,0.0,0.0,0.0,0.0,0.0,0.0,0.0,0.0,0.0,0.0,-2.4473,-2.3985,0.0,0.0,0.0,-2.4556,-2.5378,-2.5855,-2.6186,0.0,0.0,0.0,0.0,0.0,0.0,0.0,-2.9085,-3.0387,-3.1598,-3.2478,-3.2313,-3.2496,-3.3541,-3.334,-3.3028,-3.2863,0.0,-3.312,-3.3211,-3.3138,-3.3175,-3.3413,-3.3596,-3.3688,-3.3688,-3.3945,-3.422,-3.4385,-3.4275,-3.4458,-3.5045,-3.4642,-3.4257,-3.4917,-3.4495,-3.3853,-3.323,-3.3321,-3.3376,-3.2936,-3.2629,-3.2147,-0.6941,-0.6914,-0.6667,-0.6549,-0.6619,-0.6615,-0.666,-0.6733,-0.6729,-0.646,-0.6161,-0.6421,-0.6156,-0.5657,-0.5732,0.0,-0.599,-0.6832,-0.7306,-0.7531,-0.8586,-0.9588,-1.0459,-1.1248,-1.2028,-1.2895,-1.3898,-1.4496,-1.4777,-1.6092,-1.7153,-1.7837,-1.7795,-1.8006,-1.8432,-1.873,-1.8862,-1.8877,-1.9221,-2.0153,-2.1794,-2.4295,-2.5994,-2.6805,-2.7119,-2.7756,-2.8748,-2.9174,-2.9676,-3.0166,-2.9947,-2.9063,-2.7579,0.0,0.0,0.0,0.0,0.0,0.0,0.0,0.0,0.0,0.0,0.0,0.0,0.0,0.0,-2.49,-2.5949,0.0,-2.6719,-2.7473,0.0,0.0,0.0,-2.859,-2.859,-2.9617,-3.0351,-3.0351,0.0,0.0,-3.2643,-3.3028,-3.356,-3.4348,-3.4073,-3.3688,-3.3358,-3.3596,-3.3688,-3.3395,-3.3596,-3.3798,-3.378,-3.4,-3.4183,-3.422,-3.4018,-3.3908,-3.422,-3.4073,-3.4165,-3.4844,-3.4623,-3.4477,-3.4899,-3.4587,-3.4238,-3.3835,-3.3523,-3.3266,-3.312,-3.2629,-3.2101,-0.6978,-0.6954,-0.6888,-0.6876,-0.6888,-0.6819,-0.6873,-0.6819,-0.6754,-0.6566,-0.6417,-0.6464,-0.6353,-0.6046,-0.5984,-0.594,-0.5956,-0.6192,-0.6657,-0.7475,-0.843,-0.9652,-1.1141,-1.2544,-1.3481,-1.4152,-1.4935,-1.53,-1.5461,-1.6898,-1.7566,-1.7571,-1.8697,-1.9449,-1.9716,-1.9623,-1.9588,-1.9588,-2.0016,-2.1007,-2.2568,-2.385,-2.5031,-2.6255,-2.6955,-2.7756,-2.8679,-2.9192,-2.9526,-2.9584,-2.9611,-2.8683,-2.686,-2.6439,0.0,0.0,0.0,0.0,0.0,0.0,0.0,0.0,0.0,-2.5343,-2.5263,0.0,-2.5966,0.0,-2.6499,-2.7288,-2.7911,-2.8407,0.0,0.0,-2.9782,-3.0222,-3.0222,-3.1029,-3.1579,-3.1579,-3.2386,-3.3083,-3.3468,-3.3615,-3.3982,-3.4752,-3.4257,-3.389,-3.4073,-3.3927,-3.389,-3.4037,-3.3927,-3.3817,-3.3798,-3.3633,-3.3633,-3.3908,-3.3633,-3.3505,-3.389,-3.389,-3.3982,-3.4422,-3.422,-3.4147,-3.4495,-3.422,-3.3963,-3.3835,-3.3725,-3.3468,-3.29,-3.2629,-3.2214,-0.699,-0.699,-0.699,-0.699,-0.6986,-0.6933,-0.6913,-0.6909,-0.6823,-0.6705,-0.6566,-0.6447,-0.6337,-0.6235,-0.6045,-0.5988,-0.6047,-0.6386,-0.7072,-0.8044,-0.9019,-1.0354,-1.1985,-1.3135,-1.4043,-1.4629,-1.5294,-1.5601,-1.5698,-1.7131,-1.7824,-1.7672,-1.918,-2.0062,-2.0154,-1.9916,-1.9808,-1.9808,-2.04,-2.1409,-2.2887,-2.3899,-2.5001,-2.6042,-2.6955,-2.7899,-2.8823,-2.9276,-2.9659,-2.9878,-2.9659,-2.8742,-2.7077,-2.6465,-2.5971,0.0,0.0,0.0,0.0,0.0,0.0,0.0,0.0,0.0,0.0,0.0,-2.7307,-2.7601,-2.815,-2.8773,-2.9397,-2.9984,-3.0424,-3.0644,-3.1212,-3.1598,-3.1598,-3.2166,-3.2551,-3.2551,-3.3101,-3.356,-3.378,-3.3817,-3.3963,-3.444,-3.4092,-3.3963,-3.4312,-3.4202,-3.4092,-3.4128,-3.3945,-3.3817,-3.3817,-3.3486,-3.3303,-3.3486,-3.3376,-3.3303,-3.3505,-3.356,-3.3688,-3.4018,-3.3817,-3.3743,-3.4257,-3.4073,-3.3872,-3.4018,-3.3927,-3.3596,-3.301,-3.2629,-3.2173,-0.699,-0.699,-0.699,-0.6982,-0.6974,-0.6974,-0.6966,-0.6949,-0.6931,-0.6774,-0.6676,-0.6439,-0.6329,-0.6304,-0.6081,-0.6001,-0.6047,-0.6998,-0.7922,-0.8836,-0.9937,-1.1269,-1.2844,-1.3504,-1.4162,-1.4748,-1.5294,-1.5661,-1.5828,-1.7189,-1.797,-1.8128,-1.9444,-2.0139,-2.0168,-1.9959,-1.9949,-2.014,-2.0721,-2.1687,-2.2957,-2.4288,-2.5254,-2.5994,-2.7003,-2.8,-2.8955,-2.9284,-2.9624,-3.0163,-2.9615,-2.87,-2.7394,-2.6628,-2.5959,0.0,-2.5424,0.0,0.0,0.0,0.0,0.0,0.0,0.0,0.0,-2.7715,-2.852,-2.9562,-3.0075,-3.0479,-3.0772,-3.1561,-3.2056,-3.2019,-3.2404,-3.2661,-3.2625,-3.301,-3.3285,-3.323,-3.3353,-3.3521,-3.3747,-3.3659,-3.3521,-3.3784,-3.378,-3.3853,-3.4238,-3.4293,-3.4165,-3.3908,-3.3835,-3.3817,-3.378,-3.3486,-3.3248,-3.3285,-3.3266,-3.3248,-3.3271,-3.334,-3.3431,-3.3707,-3.3578,-3.3541,-3.4165,-3.3982,-3.3908,-3.411,-3.3908,-3.3596,-3.3198,-3.277,-3.2217,-0.699,-0.699,-0.699,-0.6945,-0.6951,-0.6951,-0.6839,-0.677,-0.668,-0.659,-0.6572,-0.6451,-0.6386,-0.6308,-0.6202,-0.6121,-0.6047,-0.6998,-0.7922,-0.8836,-1.0407,-1.1985,-1.3504,-1.4152,-1.4759,-1.5413,-1.5542,-1.6005,-1.6762,-1.7535,-1.8254,-1.9047,-1.959,-1.9989,-2.0168,0.0,0.0,0.0,-2.1834,-2.231,-2.3374,-2.4459,-2.5194,-2.546,-2.6668,0.0,-2.8477,-2.8805,-2.8686,-2.8184,-2.8193,0.0,0.0,0.0,0.0,0.0,0.0,0.0,0.0,0.0,0.0,0.0,-2.8108,-2.8332,-2.8052,-2.8747,-2.947,-3.0039,-3.0736,-3.1047,-3.0827,-3.1818,-3.2349,-3.2074,-3.2661,-3.2973,-3.268,-3.323,-3.3578,-3.3198,-3.2505,-3.2438,-3.3502,-3.2718,-3.2438,-3.3554,-3.3541,-3.3505,-3.3853,-3.3908,-3.4,-3.4202,-3.3982,-3.3817,-3.3817,-3.3486,-3.334,-3.356,-3.3413,-3.3358,-3.3596,-3.3651,-3.3688,-3.3798,-3.3762,-3.3578,-3.3505,-3.3633,-3.3707,-3.3486,-3.3395,-3.3321,-3.323,-3.3107,-3.2832,-0.699,0.0,-0.699,-0.6937,0.0,-0.6923,-0.6778,-0.6656,-0.6611,-0.6537,-0.6522,-0.6522,-0.6402,-0.6313,-0.6735,-0.6828,-0.6791,-0.7675,-0.8593,-0.9572,-1.0778,-1.2165,-1.3693,-1.4331,-1.4937,-1.5601,-1.6065,-1.6526,-1.7044,-1.811,-1.8835,-1.9287,-1.973,-2.0185,-2.0659,-2.1097,-2.1704,-2.2411,-2.2403,-2.2838,-2.3565,-2.432,-2.4931,-2.5374,-2.6383,0.0,0.0,0.0,0.0,0.0,0.0,0.0,0.0,-2.6724,0.0,-2.6725,-2.704,-2.7267,-2.7387,-2.7954,-2.8314,-2.8288,-2.9231,-2.9638,-2.9231,-2.977,-3.0424,-3.1047,-3.1469,-3.1689,-3.1708,-3.2239,-3.2514,-3.2349,-3.2661,-3.2826,-3.2612,-3.2327,-3.237,-3.272,-3.1979,-3.1879,-3.3298,-3.2885,-3.2659,-3.3367,-3.3175,-3.2991,-3.3156,-3.3211,-3.3358,-3.3743,-3.3853,-3.3817,-3.378,-3.3486,-3.3285,-3.345,-3.3358,-3.3321,-3.3486,-3.3358,-3.3321,-3.3651,-3.3358,-3.2955,-3.3193,-3.323,-3.3156,-3.2991,-3.3083,-3.3211,-3.3211,-3.3065,-3.2753,-0.699,-0.699,-0.699,-0.6937,-0.6923,-0.6923,-0.6754,-0.659,0.0,0.0,0.0,-0.6522,-0.6402,-0.6378,-0.7186,-0.7585,-0.7603,-0.8591,-0.9505,-1.0361,-1.1261,-1.2406,-1.3684,-1.4461,-1.5056,-1.5601,-1.6526,-1.7103,-1.7279,-1.8691,-1.9496,-1.9638,-2.0084,-2.0585,-2.12,-2.2174,-2.2679,-2.2656,-2.2944,-2.3426,-2.4051,-2.4451,-2.5057,-2.5863,-2.6634,-2.7731,-2.9171,-2.955,-3.0035,-3.0528,-2.943,-2.8828,-2.8787,-2.766,-2.7091,-2.7354,-2.7524,-2.7602,-2.766,-2.8069,-2.8566,-2.914,-3.0112,-3.0571,-3.0314,-3.0662,-3.1176,-3.1836,-3.1964,-3.2111,-3.2349,-3.2459,-3.2459,-3.2386,-3.2441,-3.2393,-3.1987,-3.1442,-3.1378,-3.1863,-3.1456,-3.1564,-3.2848,-3.2834,-3.2939,-3.3107,-3.29,-3.2551,-3.2514,-3.2606,-3.2826,-3.323,-3.3505,-3.3707,-3.3762,-3.3578,-3.3321,-3.3266,-3.3248,-3.3193,-3.3083,-3.2826,-3.29,-3.3413,-3.2735,-3.2514,-3.2863,-3.2808,-3.2606,-3.2606,-3.2863,-3.3138,-3.3175,-3.29,-3.2514,-0.699,-0.699,-0.699,-0.6937,-0.6923,-0.6923,-0.6754,-0.6586,-0.6509,-0.6535,-0.6522,-0.6522,-0.6402,-0.6313,-0.7186,-0.759,-0.7598,-0.9332,-1.0179,-1.0429,-1.2414,-1.3504,-1.3753,-1.4878,-1.5472,-1.5661,-1.6526,-1.7396,-1.8215,-1.9234,-2.0157,-2.0816,-2.0696,-2.0926,-2.1591,-2.2686,-2.3414,-2.3671,-2.3733,-2.436,-2.5557,-2.5855,-2.6489,-2.7441,-2.8421,-2.921,-2.9688,-3.0418,-3.0704,-3.0599,-2.9994,-2.9422,-2.8978,-2.8375,-2.7791,-2.7327,-2.786,-2.8118,-2.7785,-2.8447,-2.9218,-2.9929,-3.0185,-3.0387,-3.0681,-3.1066,-3.1341,-3.1469,-3.1763,-3.1873,-3.1634,-3.1873,-3.1928,-3.1634,-3.1873,-3.1486,-3.0197,-3.1221,-3.1671,-3.0635,-3.0736,-3.1356,-3.2349,-3.1918,-3.1873,-3.2779,-3.2735,-3.2441,-3.2221,-3.2386,-3.2753,-3.312,-3.3266,-3.345,-3.3633,-3.378,-3.3523,-3.3266,-3.3211,-3.3083,-3.2845,-3.2643,-3.2643,-3.2771,-3.257,-3.2404,-3.2313,-3.2423,-3.2478,-3.2496,-3.2606,-3.2771,-3.3046,-3.2826,-3.2551,-0.7019,-0.7056,-0.7011,-0.6966,-0.6917,-0.6774,-0.6668,-0.6582,-0.656,-0.6522,-0.6522,-0.6522,-0.6402,-0.6444,-0.814,-0.8908,-0.8901,-1.073,-1.1812,-1.2174,-1.3204,-1.3863,-1.4282,-1.5175,-1.5601,-1.572,-1.7056,-1.7981,-1.8506,-1.9866,-2.0802,-2.1203,-2.1681,-2.228,-2.2879,-2.3712,-2.4255,-2.4368,-2.4368,-2.4931,-2.5991,-2.5934,-2.6526,-2.7859,-2.851,-2.921,-2.9963,-3.0904,-3.1614,-3.2001,-3.0809,-3.0298,-3.052,-2.897,-2.8046,-2.8208,-2.8297,-2.8407,-2.8425,-2.9195,-2.98,-3.0167,-3.0607,-3.0919,-3.1102,-3.1267,-3.1286,-3.1084,-3.1249,-3.1176,-3.0809,-3.1102,-3.1267,-3.1084,-3.1433,-3.132,-3.0591,-3.0478,-3.0786,-3.0662,-3.047,-3.0815,-3.2096,-3.1823,-3.1662,-3.2381,-3.2203,-3.1873,-3.1708,-3.1818,-3.2093,-3.2478,-3.2735,-3.2936,-3.3138,-3.3156,-3.3156,-3.3193,-3.3028,-3.2936,-3.2845,-3.2643,-3.2404,-3.2514,-3.2276,-3.2001,-3.1946,-3.1946,-3.1946,-3.1946,-3.2148,-3.2349,-3.2496,-3.2386,-3.2294,-0.7043,-0.7117,-0.7027,-0.699,-0.6966,-0.6725,-0.6619,-0.6611,-0.6504,-0.6522,-0.6522,-0.6522,-0.6402,-0.657,-0.8968,-1.0035,-1.0205,-1.2015,-1.3204,-1.3684,-1.3863,-1.4162,-1.4629,-1.5294,-1.572,-1.6065,-1.763,-1.8506,-1.8868,-2.0385,-2.1261,-2.1489,-2.2626,-2.3456,-2.3921,-2.4479,-2.483,-2.483,-2.4979,-2.5514,-2.6336,-2.626,-2.6964,-2.8309,-2.8727,-2.9295,-3.0261,-3.1472,-3.2448,-3.3086,-3.1657,-3.112,-3.1587,-2.9353,-2.8113,-2.8517,-2.8462,-2.8608,-2.9104,-2.9782,-3.0241,-3.0332,-3.0901,-3.1286,-3.1359,-3.1304,-3.1121,-3.0846,-3.0809,-3.0644,-3.0369,-3.0589,-3.0791,-3.0809,-3.1139,-3.1184,-3.0843,-3.0195,-3.0,-3.075,-3.0531,-3.0844,-3.1629,-3.1946,-3.2038,-3.1954,-3.1708,-3.1524,-3.1524,-3.1451,-3.1543,-3.1818,-3.2203,-3.2514,-3.257,-3.2625,-3.2716,-3.2955,-3.2771,-3.2643,-3.2661,-3.2313,-3.2148,-3.2258,-3.1928,-3.1689,-3.1799,-3.1634,-3.1506,-3.1616,-3.1873,-3.2074,-3.2221,-3.2221,-3.2111,-0.7043,-0.7105,-0.7031,-0.699,-0.6966,-0.679,-0.6709,-0.6684,-0.6529,-0.6522,-0.6589,-0.6522,-0.6469,-0.6636,-0.8968,-1.0098,-1.0205,-1.25,-1.3624,-1.3803,-1.4282,-1.457,-1.4689,-1.5294,-1.6065,-1.6879,-1.7923,-1.881,-1.9635,-2.0687,-2.1489,-2.2116,-2.3247,-2.3865,-2.3977,-2.4535,-2.483,-2.4812,-2.5624,-2.6409,-2.7276,-2.8009,-2.886,-2.9775,-3.0265,-3.0627,-3.07,-3.2237,-3.3093,-3.3146,-3.2253,-3.1595,-3.1203,-2.9412,-2.8022,-2.7471,-2.8003,-2.8718,-2.9434,-2.9947,-3.0332,-3.0699,-3.0772,-3.0974,-3.1286,-3.1047,-3.0827,-3.0736,-3.0754,-3.0552,-3.0277,-3.0534,-3.0754,-3.0809,-3.1139,-3.0926,-3.0065,-3.052,-3.0779,-2.9591,-3.0859,-3.1724,-3.1616,-3.1799,-3.1983,-3.1946,-3.1854,-3.1799,-3.1781,-3.1561,-3.1377,-3.1506,-3.1799,-3.2166,-3.2423,-3.2588,-3.2441,-3.2258,-3.2404,-3.2294,-3.2038,-3.2166,-3.2386,-3.1891,-3.1836,-3.1818,-3.1598,-3.1396,-3.1543,-3.1689,-3.1891,-3.2074,-3.2404,-3.2386,-3.2239,-0.7125,-0.719,-0.7047,-0.6958,-0.6896,-0.6778,-0.6696,-0.6631,-0.6513,-0.6786,-0.745,-0.7846,-0.7913,-0.7867,-0.9793,-1.1095,-1.1979,-1.3518,-1.4461,-1.4759,-1.4699,-1.4818,-1.5175,-1.5483,-1.6124,-1.6997,-1.7923,-1.8855,-1.9866,-2.1089,-2.223,-2.3135,-2.3697,-2.4089,-2.4423,-2.4646,-2.5017,-2.5551,-2.6409,-2.7276,-2.8082,-2.8528,-2.9132,-2.9942,-3.0547,-3.0651,-3.0516,-3.1855,-3.2715,-3.2693,-3.2275,-3.1867,-3.1311,-2.962,-2.8296,-2.7658,-2.8077,-2.8645,-2.9195,-2.9599,-2.9892,-3.0057,-3.0296,-3.0516,-3.0662,-3.0534,-3.0351,-3.0112,-3.0075,-2.9984,-2.9892,-3.0204,-3.0516,-3.0772,-3.1139,-3.1184,-3.0649,-3.1037,-3.112,-3.0667,-3.12,-3.1689,-3.1744,-3.1891,-3.1891,-3.1708,-3.1653,-3.1671,-3.1634,-3.1469,-3.1396,-3.1359,-3.1359,-3.1433,-3.1799,-3.1873,-3.1891,-3.1964,-3.1909,-3.1689,-3.1854,-3.1708,-3.1781,-3.1708,-3.1891,-3.1946,-3.1818,-3.1726,-3.1781,-3.1799,-3.1634,-3.1634,-3.1561,-3.1524,-3.1359,-0.7178,-0.7227,-0.7064,-0.6937,-0.6918,-0.6762,-0.6676,-0.665,-0.6829,-0.7445,-0.8374,-0.9166,-0.9814,-1.0252,-1.1258,-1.2345,-1.3398,-1.442,-1.5116,-1.5542,-1.5116,-1.5116,-1.5542,-1.5601,-1.6242,-1.7337,-1.8098,-1.9087,-2.0443,-2.1873,-2.3006,-2.3809,-2.4033,-2.4368,-2.4757,-2.4979,-2.5459,-2.6136,-2.7168,-2.8101,-2.8635,-2.89,-2.9343,-2.9994,-3.0391,-3.0443,-3.0287,-3.1636,-3.2472,-3.2641,-3.2512,-3.2073,-3.1324,-2.9824,-2.8667,-2.8083,-2.8333,-2.8737,-2.9122,-2.9507,-2.9745,-2.9764,-3.0039,-3.0204,-3.0185,-3.0094,-2.9892,-2.9654,-2.947,-2.9415,-2.9452,-2.9892,-3.0314,-3.0607,-3.1002,-3.1249,-3.1184,-3.1176,-3.1121,-3.123,-3.1157,-3.1433,-3.1873,-3.2001,-3.1909,-3.1671,-3.1579,-3.1469,-3.1414,-3.1377,-3.1377,-3.1359,-3.1139,-3.1121,-3.1322,-3.1304,-3.1433,-3.1671,-3.1653,-3.1726,-3.1891,-3.1653,-3.1524,-3.1763,-3.1909,-3.1891,-3.1689,-3.1726,-3.1744,-3.1506,-3.1341,-3.1286,-3.1212,-3.1011,-3.0827,-0.7182,-0.7227,-0.7064,-0.6937,-0.6918,-0.6832,-0.6672,-0.6787,-0.756,-0.8374,-0.9232,-1.0287,-1.1846,-1.355,-1.3627,-1.3607,-1.3713,-1.4931,-1.5553,-1.5623,-1.5542,-1.5542,-1.5601,-1.5601,-1.6537,-1.8194,-1.8486,-1.9693,-2.1888,-2.3175,-2.3865,-2.3921,-2.4479,-2.4757,-2.4979,-2.5661,-2.6082,-2.6409,-2.778,-2.8688,-2.8794,-2.9501,-2.9942,-2.9994,-3.0047,-3.0256,-3.0724,-3.1785,-3.2567,-3.3131,-3.2911,-3.2405,-3.1345,-3.0083,-2.9049,-2.8547,-2.8759,-2.9104,-2.947,-2.9837,-3.0075,-3.0112,-3.0057,-3.0167,-3.0057,-2.9782,-2.958,-2.9562,-2.9232,-2.9048,-2.9122,-2.9703,-3.0142,-3.0288,-3.0638,-3.089,-3.0944,-3.0673,-3.0601,-3.0799,-3.0901,-3.1157,-3.1844,-3.2019,-3.1983,-3.1909,-3.1928,-3.1799,-3.1469,-3.1377,-3.1377,-3.1359,-3.1322,-3.1359,-3.1359,-3.1231,-3.1157,-3.1341,-3.1653,-3.1799,-3.1836,-3.1836,-3.1781,-3.1781,-3.1909,-3.1836,-3.1543,-3.1396,-3.1396,-3.1286,-3.1212,-3.1139,-3.0919,-3.1212,-3.1011,-0.7162,-0.7084,-0.7019,-0.6937,-0.699,-0.7459,-0.7705,-0.7801,-0.9157,-1.0293,-1.1292,-1.2537,-1.3879,-1.5306,-1.5536,-1.5513,-1.535,-1.5743,-1.5888,-1.5866,-1.5666,-1.5601,-1.5672,-1.6399,-1.7482,-1.8597,-1.9364,-2.067,-2.2513,-2.3528,-2.4089,-2.459,-2.5238,-2.5661,-2.5771,-2.6518,-2.7168,-2.7761,-2.8422,-2.8973,-2.9448,-2.9837,-2.9994,-2.9994,-2.9994,-3.0099,-3.0287,-3.1007,-3.1611,-3.2149,-3.2745,-3.2726,-3.1881,-3.0403,-2.9558,-2.9508,-2.8965,-2.8773,-2.914,-2.9342,-2.9434,-2.9415,-2.9415,-2.9452,-2.9397,-2.9287,-2.9195,-2.9177,-2.9085,-2.8916,-2.8901,-2.9403,-2.9904,-3.0023,-3.0345,-3.0555,-3.0555,-3.043,-3.0413,-3.0602,-3.0739,-3.1049,-3.128,-3.1527,-3.1629,-3.1588,-3.1616,-3.1561,-3.1451,-3.1377,-3.1377,-3.1341,-3.1176,-3.1102,-3.1377,-3.1286,-3.1249,-3.1341,-3.1488,-3.1524,-3.1561,-3.1579,-3.1524,-3.1763,-3.1909,-3.1873,-3.1579,-3.1212,-3.1176,-3.1029,-3.0974,-3.0809,-3.0607,-3.0888,-3.0696,-0.7129,-0.6998,-0.699,-0.7153,-0.7487,-0.8123,-0.8697,-0.9239,-1.0725,-1.1984,-1.3104,-1.4444,-1.5502,-1.6278,-1.6647,-1.6689,-1.6506,-1.6215,-1.6064,-1.6054,-1.5903,-1.6008,-1.638,-1.7179,-1.8408,-1.982,-2.1085,-2.2336,-2.3408,-2.397,-2.4535,-2.5238,-2.5826,-2.6245,-2.6626,-2.7384,-2.8155,-2.8635,-2.8973,-2.9448,-2.9942,-2.9994,-2.9994,-2.9994,-2.9994,-3.0099,-3.0256,-3.0806,-3.1387,-3.2127,-3.2952,-3.3265,-3.2659,-3.1023,-3.0115,-3.0217,-2.9254,-2.87,-2.892,-2.8975,-2.8993,-2.8975,-2.8993,-2.8975,-2.8975,-2.8975,-2.8975,-2.8975,-2.8975,-2.8874,-2.8583,-2.8929,-2.9404,-2.9608,-2.9871,-3.0107,-3.0213,-3.0107,-3.0101,-3.0219,-3.0657,-3.0918,-3.1133,-3.133,-3.1535,-3.1636,-3.1502,-3.1468,-3.1531,-3.146,-3.1451,-3.1506,-3.1267,-3.1194,-3.1322,-3.1322,-3.1304,-3.1377,-3.1396,-3.1377,-3.1377,-3.1377,-3.1451,-3.1708,-3.1818,-3.1799,-3.1579,-3.1176,-3.0937,-3.0791,-3.0589,-3.0442,-3.0426,-3.0469,-3.0789,-0.7072,-0.6994,-0.699,-0.7589,-0.8434,-0.8758,-0.9602,-1.0995,-1.2437,-1.3587,-1.4538,-1.5715,-1.6474,-1.6904,-1.6915,-1.698,-1.6872,-1.6527,-1.6334,-1.6312,-1.628,-1.6803,-1.769,-1.797,-1.9459,-2.1737,-2.3515,-2.4335,-2.4383,-2.4738,-2.529,-2.5935,-2.63,-2.6845,-2.7384,-2.8262,-2.8741,-2.8953,-2.9522,-2.9942,-2.9994,-3.0047,-3.0099,-3.0099,-3.014,-3.035,-3.0827,-3.1292,-3.1973,-3.2989,-3.3691,-3.3914,-3.3595,-3.2066,-3.0955,-3.0916,-2.9825,-2.9194,-2.9153,-2.9213,-2.9213,-2.9153,-2.9035,-2.8975,-2.8975,-2.8975,-2.8975,-2.8975,-2.8975,-2.8737,-2.8253,-2.8374,-2.8764,-2.911,-2.9298,-2.9526,-2.9648,-2.9491,-2.9346,-2.9807,-3.0319,-3.0968,-3.1287,-3.1318,-3.1385,-3.1577,-3.1576,-3.145,-3.1631,-3.1447,-3.1533,-3.1726,-3.1543,-3.1304,-3.1341,-3.1377,-3.1377,-3.1377,-3.1377,-3.1377,-3.1377,-3.1377,-3.1377,-3.1561,-3.1579,-3.1561,-3.1524,-3.1139,-3.0901,-3.0717,-3.0424,-3.0482,-3.0939,-3.1252,-3.1687,-0.7072,-0.6994,-0.699,-0.7621,-0.8801,-0.9924,-1.1224,-1.2597,-1.455,-1.5587,-1.584,-1.6664,-1.7031,-1.6979,-1.7001,-1.7001,-1.699,-1.684,-1.671,-1.6612,-1.6398,-1.7179,-1.8472,-1.9407,-2.1155,-2.3428,-2.4466,-2.4754,-2.4768,-2.5635,-2.6222,-2.6354,-2.7633,-2.8246,-2.8354,-2.9132,-2.9606,-2.9627,-2.9837,-3.013,-3.0495,-3.0547,-3.0703,-3.1034,-3.1052,-3.1327,-3.185,-3.1715,-3.2145,-3.3175,-3.4012,-3.4772,-3.5074,-3.4159,-3.3381,-3.3212,-3.2166,-3.1476,-3.1361,-3.0645,-3.0197,-3.0079,-2.9509,-2.9035,-2.8975,-2.8975,-2.8975,-2.8975,-2.8993,-2.8755,-2.8235,-2.8108,-2.8227,-2.813,-2.8771,-2.9219,-2.9254,-2.9271,-2.9323,-2.9405,-2.9678,-2.9934,-3.0237,-3.0373,-3.0628,-3.0968,-3.09,-3.0924,-3.1139,-3.1179,-3.1202,-3.146,-3.1396,-3.1377,-3.1377,-3.1377,-3.1377,-3.1377,-3.1377,-3.1377,-3.1377,-3.1377,-3.1377,-3.1377,-3.1377,-3.1396,-3.1322,-3.1121,-3.0882,-3.0809,-3.0662,-3.1108,-3.1837,-3.2277,-3.2751,-0.7125,-0.7117,-0.7833,-0.8749,-0.9928,-1.1683,-1.3232,-1.4579,-1.6146,-1.6807,-1.6834,-1.7265,-1.7313,-1.7055,-1.7001,-1.7001,-1.7001,-1.7001,-1.7301,-1.7667,-1.7582,-1.8292,-1.9843,-2.1855,-2.3444,-2.4871,-2.5433,-2.5428,-2.5309,-2.6342,-2.7009,-2.7345,-2.8784,-2.9699,-2.9709,-3.0224,-3.0618,-3.0757,-3.0831,-3.1074,-3.1527,-3.1684,-3.1789,-3.2093,-3.2144,-3.2379,-3.2928,-3.2787,-3.3056,-3.3824,-3.4741,-3.5631,-3.6122,-3.5157,-3.4469,-3.4246,-3.3381,-3.2545,-3.2488,-3.1381,-3.0762,-3.0587,-2.9667,-2.9035,-2.8975,-2.8975,-2.8975,-2.8975,-2.8993,-2.887,-2.8516,-2.8431,-2.8288,-2.8023,-2.8472,-2.8956,-2.9111,-2.9384,-2.9504,-2.9539,-2.9556,-2.9722,-2.9941,-2.9903,-3.0073,-3.0478,-3.0364,-3.0425,-3.0722,-3.0947,-3.1117,-3.1257,-3.1386,-3.1433,-3.1377,-3.1377,-3.1377,-3.1377,-3.1377,-3.1377,-3.1377,-3.1377,-3.1377,-3.1377,-3.1377,-3.1561,-3.1524,-3.1084,-3.0791,-3.0827,-3.1146,-3.1333,-3.1903,-3.3109,-3.374,-0.7352,-0.7495,-0.9307,-1.068,-1.1944,-1.3634,-1.5176,-1.6688,-1.7257,-1.7416,-1.7449,-1.7669,-1.7496,-1.7141,-1.712,-1.712,-1.712,-1.7488,-1.8266,-1.9313,-1.989,-2.069,-2.1742,-2.4348,-2.5806,-2.6089,-2.6363,-2.6491,-2.6572,-2.7222,-2.7803,-2.8671,-2.9734,-3.059,-3.1072,-3.1394,-3.1638,-3.19,-3.2125,-3.248,-3.3015,-3.3112,-3.3143,-3.3197,-3.3209,-3.3466,-3.4011,-3.4423,-3.4715,-3.4935,-3.5708,-3.6154,-3.6091,-3.519,-3.4692,-3.4714,-3.3473,-3.317,-3.268,-3.2072,-3.1227,-3.1053,-3.002,-2.9035,-2.9053,-2.8975,-2.8975,-2.8975,-2.8975,-2.9021,-2.901,-2.8997,-2.8931,-2.8745,-2.861,-2.8819,-2.971,-2.983,-2.9727,-2.9761,-2.9864,-2.9967,-3.0222,-3.0034,-3.0188,-3.0479,-3.0215,-3.0205,-3.0509,-3.0715,-3.1001,-3.119,-3.1294,-3.1386,-3.1377,-3.1377,-3.1377,-3.1414,-3.1515,-3.157,-3.1488,-3.1488,-3.1634,-3.1598,-3.169,-3.1791,-3.1744,-3.1451,-3.1625,-3.2113,-3.2098,-3.1721,-3.2777,-3.4554,-3.5491,-0.8765,-0.9381,-1.0674,-1.2115,-1.3721,-1.4849,-1.6042,-1.7217,-1.784,-1.801,-1.7959,-1.7959,-1.7809,-1.755,-1.7518,-1.7662,-1.8161,-1.901,-1.9813,-2.0915,-2.3185,-2.3773,-2.413,-2.6006,-2.7068,-2.6864,-2.7004,-2.7123,-2.7593,-2.8394,-2.9108,-2.9738,-3.0918,-3.1491,-3.1498,-3.1881,-3.2048,-3.2264,-3.2717,-3.3168,-3.3701,-3.3807,-3.3974,-3.4336,-3.428,-3.4491,-3.5093,-3.5603,-3.5854,-3.5854,-3.6131,-3.6254,-3.6254,-3.5927,-3.5708,-3.5653,-3.5466,-3.53,-3.5002,-3.4112,-3.3098,-3.2166,-3.1033,-2.9962,-2.9035,-2.8975,-2.8975,-2.8975,-2.8993,-2.9057,-2.9143,-2.9148,-2.9269,-2.9411,-2.9061,-2.9021,-2.969,-2.9641,-2.947,-2.947,-2.9487,-2.9676,-2.9881,-2.9795,-2.971,-3.0001,-2.9845,-2.963,-3.0118,-3.0268,-3.0449,-3.0822,-3.1027,-3.1202,-3.1313,-3.1377,-3.1396,-3.1451,-3.1607,-3.1773,-3.1773,-3.1708,-3.1983,-3.2221,-3.2487,-3.2646,-3.2511,-3.2287,-3.2833,-3.3662,-3.3934,-3.4152,-3.5955,-3.773,-3.7898,-1.0748,-1.1436,-1.2896,-1.4002,-1.5008,-1.6202,-1.7147,-1.7721,-1.8153,-1.8304,-1.8132,-1.8099,-1.8028,-1.7936,-1.7981,-1.8575,-1.9499,-2.0286,-2.1463,-2.3349,-2.556,-2.6372,-2.6504,-2.7447,-2.7741,-2.7631,-2.8009,-2.8374,-2.8823,-2.9825,-3.0684,-3.1339,-3.239,-3.2853,-3.2784,-3.3407,-3.3701,-3.3704,-3.4087,-3.4534,-3.4947,-3.4956,-3.5085,-3.5397,-3.5381,-3.5495,-3.5833,-3.6117,-3.6254,-3.6254,-3.6254,-3.6254,-3.6254,-3.6254,-3.6254,-3.6254,-3.6254,-3.6254,-3.6091,-3.5212,-3.4246,-3.3381,-3.2244,-3.1323,-3.0587,-3.0119,-2.9823,-3.003,-2.9573,-2.9465,-2.9737,-2.9868,-2.9987,-3.0173,-2.9784,-2.9639,-3.0096,-2.9975,-2.9705,-2.9587,-2.9436,-2.9453,-2.983,-2.9539,-2.9573,-2.971,-2.9624,-2.9581,-2.9791,-2.9822,-2.9952,-3.049,-3.0815,-3.1009,-3.1202,-3.1313,-3.1488,-3.1543,-3.2533,-3.2618,-3.2506,-3.2374,-3.2541,-3.2933,-3.3236,-3.3558,-3.3671,-3.4022,-3.4923,-3.5681,-3.6062,-3.6681,-3.8081,-3.8953,-3.9327,-1.3015,-1.3644,-1.5462,-1.612,-1.623,-1.764,-1.8223,-1.8363,-1.8363,-1.8336,-1.8186,-1.8212,-1.832,-1.8395,-1.8823,-1.9606,-2.113,-2.1779,-2.3651,-2.5649,-2.7482,-2.8069,-2.8069,-2.8111,-2.8295,-2.8477,-2.9342,-2.9847,-3.032,-3.1542,-3.2376,-3.3048,-3.398,-3.4438,-3.4482,-3.5367,-3.5764,-3.5458,-3.5804,-3.6024,-3.6068,-3.6108,-3.6154,-3.6094,-3.6117,-3.62,-3.63,-3.6346,-3.6378,-3.6516,-3.6401,-3.6277,-3.6254,-3.6254,-3.6254,-3.63,-3.6346,-3.6392,-3.6191,-3.5445,-3.4702,-3.4267,-3.3381,-3.268,-3.2244,-3.1556,-3.125,-3.1525,-3.0667,-3.0682,-3.0847,-3.1002,-3.0864,-3.0807,-3.0649,-3.052,-3.0456,-3.0429,-3.0296,-3.003,-2.9636,-2.9671,-2.9791,-2.969,-2.9585,-3.016,-2.9903,-2.9761,-2.9822,-2.9805,-3.0018,-3.0361,-3.062,-3.0879,-3.1073,-3.1249,-3.1478,-3.1819,-3.3337,-3.3885,-3.3747,-3.3652,-3.3481,-3.3842,-3.4984,-3.55,-3.5559,-3.6182,-3.6958,-3.7434,-3.7749,-3.7997,-3.8575,-3.9069,-3.9505,-1.4835,-1.5553,-1.6568,-1.7319,-1.7801,-1.8223,-1.8433,-1.8433,-1.8433,-1.8401,-1.8428,-1.8696,-1.886,-1.9013,-2.0343,-2.1419,-2.2511,-2.4247,-2.6584,-2.8325,-2.8799,-2.9059,-2.8991,-2.885,-2.8985,-2.9413,-2.987,-3.0835,-3.1985,-3.2855,-3.369,-3.4564,-3.5211,-3.5642,-3.5743,-3.6374,-3.6474,-3.6196,-3.6906,-3.6982,-3.6544,-3.6691,-3.6714,-3.6415,-3.6401,-3.653,-3.6714,-3.6484,-3.6668,-3.7058,-3.6759,-3.6392,-3.6392,-3.6346,-3.6369,-3.6461,-3.6691,-3.6714,-3.6383,-3.6246,-3.5837,-3.4724,-3.4367,-3.3663,-3.2701,-3.288,-3.2854,-3.298,-3.3048,-3.2713,-3.2425,-3.1713,-3.1515,-3.1442,-3.135,-3.1128,-3.0793,-3.0568,-3.0407,-3.0306,-3.0206,-3.0241,-3.0575,-3.0329,-3.0311,-3.054,-3.0351,-3.0088,-2.9952,-2.987,-3.0083,-3.0443,-3.0555,-3.0815,-3.1091,-3.133,-3.1752,-3.2562,-3.4073,-3.5363,-3.5148,-3.5865,-3.6182,-3.6607,-3.7156,-3.7396,-3.736,-3.7753,-3.8416,-3.8893,-3.9304,-3.9484,-3.969,-3.9775,-3.9613,-1.7018,-1.757,-1.8001,-1.8212,-1.8385,-1.8433,-1.8503,-1.8643,-1.8714,-1.8784,-1.9122,-1.9808,-2.0352,-2.0698,-2.2203,-2.3488,-2.4926,-2.6804,-2.8362,-2.9151,-2.9299,-2.9299,-2.9543,-2.9889,-3.0329,-3.042,-3.128,-3.2435,-3.3638,-3.4586,-3.5504,-3.6091,-3.6568,-3.675,-3.6911,-3.7511,-3.7575,-3.7156,-3.7714,-3.7747,-3.7173,-3.7219,-3.7311,-3.7035,-3.6989,-3.715,-3.7333,-3.715,-3.7311,-3.7517,-3.7344,-3.7022,-3.7045,-3.6966,-3.6966,-3.7035,-3.7196,-3.715,-3.6874,-3.6796,-3.6564,-3.5759,-3.5658,-3.5513,-3.4967,-3.487,-3.4699,-3.4774,-3.4613,-3.4185,-3.4042,-3.3704,-3.3107,-3.2485,-3.249,-3.2281,-3.1569,-3.0941,-3.0555,-3.0443,-3.0396,-3.0449,-3.0502,-3.058,-3.0514,-3.0526,-3.0543,-3.0296,-3.0426,-3.0343,-3.0361,-3.0573,-3.062,-3.0833,-3.1128,-3.1494,-3.2148,-3.3322,-3.498,-3.6176,-3.6809,-3.7996,-3.9239,-3.9106,-3.8666,-3.9038,-3.9039,-3.9453,-3.9758,-4.0204,-4.0594,-4.0808,-4.0669,-4.0243,-4.0048,-1.8862,-1.9071,-1.9039,-1.8771,-1.8476,-1.8503,-1.8843,-1.9332,-1.9401,-1.9947,-2.0421,-2.1584,-2.2258,-2.2887,-2.4167,-2.5883,-2.7432,-2.8378,-2.9268,-2.9387,-2.9399,-2.9691,-3.0113,-3.0964,-3.1825,-3.1662,-3.2922,-3.422,-3.5313,-3.6342,-3.6915,-3.75,-3.7836,-3.7907,-3.8114,-3.8635,-3.8722,-3.8034,-3.8355,-3.8321,-3.7839,-3.7793,-3.7839,-3.7655,-3.7632,-3.7747,-3.7816,-3.777,-3.7952,-3.8204,-3.8158,-3.8238,-3.8374,-3.7872,-3.7793,-3.7747,-3.7816,-3.7655,-3.7311,-3.7265,-3.7277,-3.714,-3.7094,-3.7254,-3.7269,-3.6844,-3.6661,-3.6354,-3.6037,-3.5365,-3.5622,-3.5108,-3.4612,-3.3985,-3.3902,-3.3347,-3.2497,-3.1606,-3.1042,-3.0811,-3.0757,-3.0804,-3.0739,-3.0768,-3.0638,-3.0555,-3.0573,-3.0721,-3.0933,-3.1034,-3.1089,-3.1215,-3.1418,-3.2032,-3.2395,-3.3513,-3.3907,-3.4619,-3.6262,-3.7253,-3.8402,-3.9649,-4.0535,-4.0018,-3.9736,-4.0105,-4.036,-4.0482,-4.0896,-4.145,-4.1337,-4.0885,-4.0676,-4.0522,-4.0493,-1.9255,-1.906,-1.8928,-1.8681,-1.8525,-1.8784,-1.9669,-2.0743,-2.117,-2.1996,-2.3134,-2.3746,-2.4017,-2.4506,-2.6002,-2.7729,-2.8993,-2.9438,-2.9536,-2.9757,-2.9865,-3.0242,-3.1258,-3.2244,-3.3257,-3.4654,-3.5417,-3.5992,-3.6807,-3.767,-3.8022,-3.8231,-3.8662,-3.8889,-3.8889,-3.918,-3.9055,-3.8596,-3.8849,-3.8688,-3.8275,-3.8321,-3.8321,-3.8079,-3.809,-3.8286,-3.839,-3.8205,-3.856,-3.9996,-3.977,-4.0192,-4.0272,-3.8971,-3.8181,-3.8113,-3.8309,-3.8206,-3.7793,-3.8045,-3.8022,-3.7793,-3.7655,-3.7678,-3.7851,-3.8034,-3.8018,-3.7862,-3.7398,-3.6898,-3.6924,-3.6338,-3.55,-3.4901,-3.4378,-3.3838,-3.356,-3.2711,-3.2059,-3.1964,-3.1643,-3.1229,-3.1255,-3.1208,-3.1154,-3.1117,-3.1045,-3.1773,-3.2485,-3.2366,-3.2115,-3.2282,-3.2419,-3.3237,-3.4008,-3.5525,-3.6521,-3.6689,-3.7785,-3.876,-3.991,-4.1119,-4.1591,-4.0968,-4.0832,-4.1058,-4.1319,-4.1365,-4.1214,-4.1276,-4.1028,-4.0778,-4.0952,-4.108,-4.089,-1.9626,-1.9362,-1.9304,-1.96,-2.0121,-2.0283,-2.1377,-2.2724,-2.3065,-2.3624,-2.4506,-2.5383,-2.5853,-2.6316,-2.7777,-2.9211,-2.9816,-2.9737,-2.982,-3.0125,-3.0781,-3.1304,-3.2499,-3.3677,-3.5047,-3.6316,-3.7127,-3.7533,-3.7916,-3.8514,-3.8752,-3.8894,-3.919,-3.9308,-3.9308,-3.9285,-3.9193,-3.9055,-3.917,-3.9239,-3.9022,-3.9275,-3.9091,-3.8804,-3.9046,-3.9405,-3.9591,-4.0059,-4.0425,-4.1127,-4.1144,-4.1136,-4.0884,-4.034,-3.9275,-3.9265,-3.9071,-3.8734,-3.8298,-3.8481,-3.8413,-3.8275,-3.8206,-3.8344,-3.855,-3.8826,-3.8918,-3.8811,-3.8762,-3.835,-3.8313,-3.7632,-3.7149,-3.6462,-3.5851,-3.558,-3.5144,-3.4141,-3.3754,-3.3473,-3.2842,-3.2393,-3.1972,-3.1899,-3.1763,-3.1616,-3.1552,-3.2558,-3.3811,-3.352,-3.3122,-3.4192,-3.4602,-3.5159,-3.5952,-3.715,-3.8354,-3.8698,-3.913,-4.0126,-4.0732,-4.1655,-4.2061,-4.1934,-4.2,-4.1959,-4.1667,-4.1552,-4.1253,-4.1033,-4.1018,-4.1094,-4.1465,-4.1638,-4.1663,-2.0117,-2.0218,-2.0291,-2.1054,-2.2125,-2.2349,-2.327,-2.4641,-2.4897,-2.5315,-2.6017,-2.702,-2.7567,-2.798,-2.896,-2.9967,-3.0445,-3.0285,-3.0627,-3.1337,-3.2316,-3.2879,-3.3928,-3.5376,-3.6985,-3.755,-3.8313,-3.9012,-3.8716,-3.8953,-3.9249,-3.9295,-3.9377,-3.9377,-3.9331,-3.9607,-3.9515,-3.9492,-3.9607,-3.9813,-4.0034,-4.026,-4.0111,-3.9708,-4.0455,-4.0928,-4.0937,-4.1347,-4.1833,-4.2157,-4.2213,-4.2069,-4.1558,-4.1182,-4.1067,-4.1009,-4.0048,-3.9219,-3.901,-3.8757,-3.8849,-3.8941,-3.878,-3.8964,-3.9124,-3.9193,-3.9262,-3.9308,-3.9249,-3.919,-3.9108,-3.919,-3.8693,-3.8021,-3.7745,-3.7625,-3.6917,-3.616,-3.5593,-3.5105,-3.4203,-3.37,-3.3454,-3.3448,-3.3521,-3.2679,-3.2547,-3.3527,-3.4551,-3.4303,-3.4394,-3.6136,-3.705,-3.7413,-3.8013,-3.8593,-3.9541,-3.9952,-4.0406,-4.1033,-4.1399,-4.1847,-4.2189,-4.257,-4.261,-4.2504,-4.2101,-4.1569,-4.1103,-4.0937,-4.1106,-4.1455,-4.203,-4.2731,-4.3078,-2.1089,-2.2117,-2.2481,-2.3158,-2.4053,-2.4481,-2.5227,-2.6285,-2.6671,-2.7618,-2.8427,-2.8839,-2.8922,-2.917,-2.9285,-3.0062,-3.087,-3.1585,-3.219,-3.3011,-3.4033,-3.4985,-3.6051,-3.6803,-3.7976,-3.8596,-3.9094,-3.9249,-3.9222,-3.9364,-3.9308,-3.9377,-3.9652,-3.9767,-3.9492,-3.9974,-4.0387,-4.0112,-4.0364,-4.041,-4.0352,-4.088,-4.0917,-4.0912,-4.1378,-4.1866,-4.1923,-4.2182,-4.2519,-4.3159,-4.3215,-4.3547,-4.3823,-4.2656,-4.2544,-4.2093,-4.1057,-3.9446,-3.9702,-3.9649,-3.938,-3.9541,-3.9472,-3.9285,-3.9354,-3.9331,-3.9308,-3.9308,-3.9308,-3.9308,-3.9308,-3.9308,-3.919,-3.8911,-3.8497,-3.8557,-3.8161,-3.7697,-3.7212,-3.7369,-3.6714,-3.5798,-3.5238,-3.5365,-3.5324,-3.4294,-3.3809,-3.4772,-3.5733,-3.5872,-3.6286,-3.8079,-3.9152,-3.9496,-3.984,-4.0445,-4.0726,-4.1248,-4.1569,-4.1975,-4.2166,-4.242,-4.2696,-4.3012,-4.3075,-4.3044,-4.2602,-4.1966,-4.1116,-4.1258,-4.2026,-4.2413,-4.2681,-4.3496,-4.4427,-2.2509,-2.3173,-2.4013,-2.5101,-2.6201,-2.6239,-2.6961,-2.7981,-2.8296,-2.8708,-2.9233,-2.9299,-2.9485,-2.9983,-3.0627,-3.152,-3.2419,-3.3155,-3.3843,-3.4704,-3.5687,-3.656,-3.7106,-3.8014,-3.9021,-3.9359,-3.9538,-3.9744,-3.9767,-3.9561,-3.9308,-3.9423,-3.979,-4.0034,-3.9721,-4.0158,-4.0203,-4.0226,-4.054,-4.0829,-4.1031,-4.1508,-4.1875,-4.1929,-4.2492,-4.2737,-4.288,-4.3381,-4.3657,-4.4123,-4.4123,-4.4013,-4.3903,-4.3215,-4.2824,-4.2375,-4.1639,-4.0758,-4.0493,-4.0666,-4.0434,-3.9952,-3.9906,-4.0012,-3.9798,-3.9492,-3.9469,-3.9721,-3.9446,-3.9331,-3.9308,-3.9308,-3.9308,-3.9209,-3.9153,-3.9566,-3.9481,-3.9019,-3.868,-3.9,-3.9235,-3.8264,-3.7346,-3.6889,-3.6686,-3.5845,-3.5344,-3.5871,-3.7614,-3.9084,-3.9602,-4.0447,-4.111,-4.147,-4.1706,-4.2074,-4.2092,-4.242,-4.2523,-4.2799,-4.2862,-4.3137,-4.3639,-4.3927,-4.4089,-4.378,-4.3313,-4.3178,-4.3041,-4.3111,-4.3275,-4.3959,-4.4575,-4.5046,-4.5954,-2.4597,-2.4784,-2.568,-2.6932,-2.8202,-2.801,-2.8395,-2.9168,-2.9233,-2.9299,-2.943,-2.9578,-3.0062,-3.0906,-3.1893,-3.2827,-3.4224,-3.5078,-3.5706,-3.6518,-3.7317,-3.7884,-3.8216,-3.8894,-3.9409,-3.9942,-3.9469,-3.9629,-3.9882,-3.9882,-3.9607,-3.9698,-4.0341,-4.0333,-4.0241,-4.0471,-4.0655,-4.0701,-4.1053,-4.1475,-4.1887,-4.2329,-4.2763,-4.3193,-4.3512,-4.3738,-4.3848,-4.4232,-4.4613,-4.4613,-4.4613,-4.4341,-4.3958,-4.3547,-4.327,-4.2936,-4.2488,-4.2135,-4.1891,-4.1752,-4.1384,-4.0972,-4.0505,-4.0881,-4.0292,-3.9813,-3.9584,-4.0034,-3.9561,-3.9354,-3.9308,-3.9308,-3.9423,-3.9652,-3.9877,-4.0479,-4.0815,-4.0315,-4.0162,-4.0533,-4.0732,-4.0732,-3.9777,-3.8786,-3.8039,-3.734,-3.7129,-3.7228,-3.8813,-4.0964,-4.1661,-4.1975,-4.2206,-4.254,-4.2753,-4.3075,-4.3263,-4.3678,-4.3716,-4.3903,-4.4151,-4.4607,-4.5331,-4.5367,-4.5489,-4.602,-4.6375,-4.5792,-4.5213,-4.5075,-4.5189,-4.6055,-4.6706,-4.7019,-4.7521,-2.7748,-2.7818,-2.7856,-2.8611,-2.968,-2.9747,-2.9492,-2.9382,-2.9382,-2.9561,-3.0,-3.023,-3.112,-3.2147,-3.2861,-3.4083,-3.6041,-3.698,-3.7711,-3.8565,-3.9354,-3.9394,-3.9368,-3.9336,-3.9469,-3.9515,-3.9469,-3.9469,-3.9561,-3.9997,-4.0203,-4.0709,-4.1023,-4.077,-4.0701,-4.0908,-4.1299,-4.1476,-4.1932,-4.2544,-4.3011,-4.3465,-4.3788,-4.4206,-4.4454,-4.4613,-4.4613,-4.4694,-4.4694,-4.4694,-4.4694,-4.4694,-4.4341,-4.3903,-4.3713,-4.3878,-4.3674,-4.3518,-4.3551,-4.2999,-4.2684,-4.2793,-4.2554,-4.1792,-4.1135,-4.0393,-4.0149,-4.0103,-3.9652,-3.9354,-3.9308,-3.9331,-3.9469,-3.9767,-4.0135,-4.0663,-4.1191,-4.1685,-4.1625,-4.2016,-4.1998,-4.1742,-4.1561,-4.0449,-3.9696,-3.8969,-3.8857,-3.8945,-3.9851,-4.1605,-4.2425,-4.2886,-4.3012,-4.324,-4.3302,-4.3678,-4.4213,-4.4804,-4.5147,-4.539,-4.5572,-4.6225,-4.6849,-4.7725,-4.8014,-4.8767,-4.9266,-4.8404,-4.7687,-4.6994,-4.7127,-4.8108,-4.8572,-4.8808,-4.9295,-2.83,-2.911,-2.9177,-2.9578,-3.0197,-2.9955,-2.9913,-2.9987,-2.997,-3.052,-3.1368,-3.179,-3.2664,-3.3882,-3.5458,-3.629,-3.7504,-3.8945,-3.9573,-3.9927,-4.0304,-4.0349,-4.0249,-4.0158,-4.0249,-4.0112,-3.9951,-3.9974,-4.0295,-4.0195,-4.0523,-4.1007,-4.143,-4.1099,-4.1007,-4.1345,-4.1821,-4.2386,-4.3034,-4.3844,-4.5244,-4.543,-4.5572,-4.5628,-4.5252,-4.5033,-4.4746,-4.4694,-4.4694,-4.4694,-4.4694,-4.4694,-4.4694,-4.4287,-4.4367,-4.4718,-4.4597,-4.4823,-4.4999,-4.451,-4.4407,-4.4144,-4.3718,-4.2916,-4.2188,-4.1456,-4.0884,-4.0458,-3.985,-3.9518,-3.9331,-3.9308,-3.9423,-3.9744,-4.0226,-4.08,-4.1397,-4.1954,-4.2206,-4.2252,-4.2275,-4.2125,-4.2046,-4.1896,-4.1308,-4.0723,-4.0689,-4.0705,-4.1496,-4.2114,-4.2872,-4.3553,-4.374,-4.4275,-4.446,-4.4829,-4.5293,-4.5935,-4.6628,-4.6959,-4.7339,-4.7665,-4.8411,-4.9418,-5.0293,-5.0612,-5.0761,-5.0684,-5.0133,-4.931,-4.9495,-5.0227,-5.0532,-5.068,-5.1149,-2.8843,-2.9757,-2.9952,-3.011,-3.032,-3.0075,-3.0343,-3.0908,-3.0972,-3.179,-3.3068,-3.3466,-3.4342,-3.5768,-3.7114,-3.8407,-3.9064,-4.0225,-4.0799,-4.0991,-4.1014,-4.0869,-4.0686,-4.0525,-4.0364,-4.0479,-4.0158,-4.002,-4.0569,-4.0301,-4.0634,-4.1126,-4.1622,-4.1538,-4.146,-4.2014,-4.2747,-4.36,-4.4442,-4.5607,-4.7146,-4.6881,-4.6955,-4.6713,-4.6271,-4.5767,-4.5401,-4.5245,-4.5062,-4.4983,-4.4879,-4.4694,-4.4694,-4.4694,-4.4772,-4.5062,-4.532,-4.5686,-4.5973,-4.6074,-4.584,-4.5276,-4.5121,-4.4372,-4.3663,-4.2904,-4.246,-4.2003,-4.0937,-3.9929,-3.9906,-3.9741,-3.9735,-4.0043,-4.041,-4.0961,-4.1473,-4.2046,-4.2161,-4.2275,-4.2402,-4.2506,-4.2627,-4.2606,-4.2452,-4.1971,-4.1623,-4.1855,-4.2498,-4.2989,-4.3357,-4.3927,-4.436,-4.5074,-4.5778,-4.6355,-4.6985,-4.7489,-4.8189,-4.8824,-4.9167,-4.9565,-5.029,-5.1431,-5.2128,-5.2237,-5.2698,-5.3202,-5.2534,-5.1541,-5.2099,-5.2784,-5.2753,-5.2942,-5.3142,-2.9757,-2.9887,-3.0296,-3.0443,-3.0609,-3.0443,-3.1102,-3.2136,-3.2327,-3.3257,-3.4696,-3.517,-3.6032,-3.7197,-3.8143,-3.916,-4.0263,-4.1136,-4.1558,-4.1558,-4.1535,-4.1007,-4.0632,-4.0425,-4.0554,-4.008,-4.0025,-4.0273,-4.0555,-4.0685,-4.0865,-4.1482,-4.2239,-4.2475,-4.2074,-4.3518,-4.4917,-4.6057,-4.6642,-4.751,-4.8148,-4.7801,-4.7876,-4.7672,-4.7271,-4.6734,-4.6444,-4.6154,-4.5996,-4.5943,-4.5441,-4.5309,-4.5281,-4.5068,-4.5197,-4.5805,-4.5744,-4.6238,-4.7069,-4.7174,-4.6797,-4.6269,-4.6205,-4.6009,-4.5303,-4.4716,-4.407,-4.3457,-4.2436,-4.1578,-4.0987,-4.0493,-4.0605,-4.0921,-4.1415,-4.1667,-4.2373,-4.2778,-4.3044,-4.3216,-4.2988,-4.2886,-4.3075,-4.3232,-4.3346,-4.3132,-4.2682,-4.2947,-4.365,-4.4141,-4.4484,-4.4767,-4.5293,-4.6475,-4.728,-4.7957,-4.8594,-4.9167,-4.9818,-5.0601,-5.132,-5.192,-5.2693,-5.3586,-5.4033,-5.4293,-5.5175,-5.6029,-5.5138,-5.446,-5.484,-5.5256,-5.5217,-5.5163,-5.5341,-3.0361,-3.0602,-3.1616,-3.2192,-3.232,-3.2128,-3.2428,-3.3107,-3.3968,-3.515,-3.6234,-3.6621,-3.7369,-3.8537,-3.9386,-4.015,-4.0792,-4.1765,-4.2086,-4.2063,-4.204,-4.1673,-4.123,-4.1068,-4.0967,-4.0634,-4.0569,-4.0618,-4.0844,-4.1054,-4.1529,-4.2113,-4.3576,-4.3779,-4.3825,-4.4926,-4.663,-4.734,-4.8099,-4.908,-4.9928,-4.9626,-4.9187,-4.8863,-4.8342,-4.7989,-4.7722,-4.7372,-4.7212,-4.7105,-4.6597,-4.649,-4.6543,-4.6381,-4.6326,-4.691,-4.7092,-4.7074,-4.7702,-4.7885,-4.7768,-4.7587,-4.7431,-4.7146,-4.6355,-4.5808,-4.5285,-4.4635,-4.3797,-4.311,-4.2763,-4.2656,-4.2791,-4.3394,-4.3747,-4.3709,-4.405,-4.4231,-4.4473,-4.4473,-4.4374,-4.5086,-4.5451,-4.5426,-4.5409,-4.56,-4.5415,-4.4864,-4.5195,-4.5608,-4.5985,-4.6055,-4.6569,-4.7808,-4.8851,-4.9565,-5.0543,-5.135,-5.201,-5.2687,-5.341,-5.3896,-5.4731,-5.5456,-5.5983,-5.6469,-5.7179,-5.7741,-5.7746,-5.759,-5.7754,-5.7456,-5.7055,-5.716,-5.7391,-3.0685,-3.1055,-3.2511,-3.3189,-3.3442,-3.3631,-3.4113,-3.4922,-3.6154,-3.727,-3.7872,-3.7992,-3.8432,-3.9405,-4.0295,-4.0823,-4.0938,-4.1794,-4.2466,-4.2466,-4.2466,-4.2061,-4.1878,-4.18,-4.1481,-4.1181,-4.1091,-4.1163,-4.1743,-4.1696,-4.2341,-4.3776,-4.5641,-4.629,-4.6412,-4.7304,-4.8532,-4.9223,-5.0076,-5.0489,-5.0934,-5.0796,-5.0408,-4.9883,-4.947,-4.9194,-4.8924,-4.8708,-4.8491,-4.8273,-4.8056,-4.7812,-4.7785,-4.7649,-4.7568,-4.8105,-4.853,-4.8444,-4.8793,-4.8899,-4.8846,-4.8815,-4.8521,-4.7938,-4.7357,-4.6982,-4.6593,-4.5952,-4.5028,-4.4853,-4.4811,-4.4728,-4.4535,-4.5048,-4.5334,-4.5288,-4.5614,-4.5835,-4.5824,-4.5885,-4.627,-4.7044,-4.775,-4.784,-4.7762,-4.8021,-4.8221,-4.7633,-4.6925,-4.7188,-4.7541,-4.7633,-4.8015,-4.9281,-5.0379,-5.1237,-5.2309,-5.3518,-5.4071,-5.4576,-5.4862,-5.532,-5.6332,-5.707,-5.7105,-5.7494,-5.8737,-5.9338,-5.974,-6.0069,-6.0258,-5.9786,-5.903,-5.9202,-5.957,-3.1009,-3.1249,-3.281,-3.3631,-3.3819,-3.5129,-3.6215,-3.7429,-3.8611,-3.9167,-3.9249,-3.9108,-3.9236,-3.9501,-4.041,-4.0908,-4.1199,-4.1988,-4.2477,-4.2783,-4.2822,-4.2405,-4.2037,-4.1855,-4.1821,-4.1469,-4.1436,-4.1971,-4.2817,-4.3251,-4.3964,-4.543,-4.7691,-4.8266,-4.8659,-4.9162,-5.0104,-5.0684,-5.1152,-5.1402,-5.1513,-5.1293,-5.1017,-5.0657,-5.0435,-5.0185,-4.9966,-4.9747,-4.9228,-4.8845,-4.8518,-4.8191,-4.8028,-4.811,-4.8572,-4.9087,-4.9572,-4.9818,-4.9756,-4.9727,-4.9727,-4.9556,-4.8926,-4.8463,-4.8262,-4.8126,-4.7814,-4.7451,-4.685,-4.6779,-4.6766,-4.6097,-4.5431,-4.5871,-4.6363,-4.6688,-4.7114,-4.7313,-4.7287,-4.7489,-4.7925,-4.8505,-4.9137,-4.9395,-4.9903,-5.0351,-5.0546,-5.0407,-4.9707,-4.8996,-4.9224,-4.9281,-4.9847,-5.0851,-5.1948,-5.3218,-5.4557,-5.5954,-5.5861,-5.6222,-5.6482,-5.703,-5.7948,-5.8468,-5.8012,-5.8651,-6.0417,-6.1535,-6.2183,-6.24,-6.2153,-6.1864,-6.1049,-6.1559,-6.1964,-3.2683,-3.2936,-3.5211,-3.6194,-3.6377,-3.7572,-3.8373,-3.8812,-3.919,-3.9308,-3.9308,-3.9308,-3.9574,-3.9965,-4.0768,-4.1291,-4.1901,-4.249,-4.2958,-4.3177,-4.3232,-4.2794,-4.2532,-4.2386,-4.2207,-4.2245,-4.2365,-4.3006,-4.4655,-4.5196,-4.5813,-4.6996,-4.8742,-4.9357,-4.9912,-5.0299,-5.0819,-5.1229,-5.1618,-5.1731,-5.1787,-5.1568,-5.1458,-5.1348,-5.1293,-5.11,-5.1017,-5.0989,-5.0628,-5.0626,-5.0291,-5.0069,-5.0597,-4.9967,-4.9666,-4.9769,-5.021,-5.046,-5.0123,-5.001,-5.0066,-5.0123,-4.967,-4.9613,-4.9385,-4.9156,-4.8926,-4.8563,-4.8368,-4.8184,-4.8307,-4.788,-4.7698,-4.8225,-4.8501,-4.8605,-4.9,-4.9022,-4.8996,-4.9224,-4.9675,-5.035,-5.0851,-5.1292,-5.1866,-5.2487,-5.2755,-5.2697,-5.2295,-5.1455,-5.1153,-5.1235,-5.1868,-5.2951,-5.4427,-5.5799,-5.7092,-5.8174,-5.8071,-5.8259,-5.9,-5.9554,-5.9914,-6.0267,-6.0565,-6.1391,-6.262,-6.3466,-6.3856,-6.3683,-6.3474,-6.3368,-6.3333,-6.3721,-6.3935,-3.4195,-3.4487,-3.6438,-3.767,-3.8373,-3.919,-3.9544,-3.9661,-3.9544,-3.9485,-3.9567,-3.9893,-4.0184,-4.0592,-4.1364,-4.1929,-4.1999,-4.274,-4.3208,-4.3198,-4.3764,-4.3638,-4.3433,-4.3678,-4.4094,-4.4011,-4.4252,-4.5102,-4.6488,-4.778,-4.8497,-4.8399,-4.947,-5.0133,-5.0713,-5.1097,-5.1229,-5.1421,-5.159,-5.1731,-5.1787,-5.1787,-5.1787,-5.1787,-5.1787,-5.1787,-5.1787,-5.1787,-5.1674,-5.1562,-5.1112,-5.1225,-5.1562,-5.0846,-5.0738,-5.0795,-5.0989,-5.1128,-5.0906,-5.0795,-5.0739,-5.0683,-5.0683,-5.0739,-5.0376,-4.9983,-4.97,-4.9388,-4.9388,-4.9475,-4.9705,-4.9988,-5.0463,-5.1017,-5.0878,-5.074,-5.0768,-5.0768,-5.0879,-5.11,-5.1621,-5.2301,-5.2865,-5.3237,-5.3681,-5.4142,-5.4573,-5.4768,-5.431,-5.3564,-5.3402,-5.3477,-5.4163,-5.5078,-5.6657,-5.7968,-5.8856,-5.9704,-6.006,-6.045,-6.137,-6.2195,-6.2713,-6.3208,-6.3645,-6.4398,-6.4952,-6.4953,-6.5161,-6.5159,-6.5528,-6.5814,-6.5688,-6.5364,-6.5563,-3.5561,-3.5684,-3.6946,-3.8432,-3.9684,-3.9802,-3.9954,-4.0165,-3.9954,-3.9861,-3.9989,-4.0598,-4.0869,-4.1221,-4.2218,-4.2576,-4.3034,-4.3805,-4.4257,-4.3359,-4.4664,-4.4926,-4.5027,-4.5608,-4.5437,-4.6087,-4.6469,-4.6415,-4.8021,-4.9281,-5.0043,-5.0043,-5.0823,-5.1318,-5.1456,-5.1425,-5.145,-5.1646,-5.1702,-5.1787,-5.1787,-5.1787,-5.1787,-5.1787,-5.1787,-5.1787,-5.1787,-5.1674,-5.1534,-5.1365,-5.1309,-5.145,-5.1421,-5.1395,-5.1593,-5.1649,-5.1623,-5.1568,-5.1513,-5.1458,-5.1568,-5.1623,-5.1787,-5.1568,-5.11,-5.0544,-5.0152,-5.0039,-5.0096,-5.0152,-5.0322,-5.0602,-5.1044,-5.1428,-5.1455,-5.1481,-5.162,-5.1759,-5.1922,-5.2218,-5.2939,-5.3547,-5.4119,-5.445,-5.525,-5.5747,-5.6061,-5.6401,-5.6401,-5.5698,-5.5648,-5.5797,-5.6271,-5.7113,-5.8601,-5.9775,-6.0377,-6.1087,-6.1867,-6.2615,-6.3584,-6.4539,-6.5542,-6.5795,-6.5994,-6.6532,-6.6982,-6.6898,-6.7111,-6.7827,-6.818,-6.8503,-6.826,-6.7608,-6.7084,-3.6824,-3.7006,-3.8551,-3.9508,-3.9802,-4.0013,-4.0165,-4.0223,-4.0421,-4.0444,-4.0211,-4.0434,-4.1082,-4.2138,-4.3343,-4.3919,-4.4347,-4.5201,-4.6035,-4.573,-4.6059,-4.6103,-4.5835,-4.6084,-4.6406,-4.6573,-4.69,-4.7545,-4.8969,-5.0298,-5.1042,-5.0708,-5.1225,-5.1421,-5.1731,-5.1506,-5.1421,-5.1759,-5.1787,-5.1787,-5.1787,-5.1787,-5.1787,-5.1787,-5.1787,-5.1787,-5.1787,-5.1759,-5.1702,-5.1646,-5.1702,-5.1674,-5.1618,-5.1731,-5.1787,-5.1787,-5.1787,-5.1787,-5.1787,-5.1787,-5.1787,-5.1787,-5.1787,-5.1787,-5.1568,-5.0989,-5.0712,-5.0656,-5.0712,-5.0823,-5.0962,-5.1181,-5.1453,-5.1699,-5.2051,-5.2298,-5.2544,-5.2812,-5.2972,-5.3495,-5.4142,-5.4675,-5.523,-5.5895,-5.669,-5.7135,-5.7371,-5.7698,-5.8268,-5.8039,-5.7963,-5.8058,-5.8232,-5.9128,-6.0679,-6.1945,-6.2749,-6.3694,-6.468,-6.5295,-6.5824,-6.6573,-6.7328,-6.7799,-6.8211,-6.8444,-6.8597,-6.8661,-6.902,-6.9814,-7.0082,-7.0147,-7.0314,-6.9873,-6.9093,-3.8291,-3.8551,-3.9521,-4.0095,-4.0305,-4.0894,-4.1272,-4.1501,-4.2125,-4.2499,-4.2495,-4.2421,-4.29,-4.4023,-4.5186,-4.5323,-4.5712,-4.661,-4.6492,-4.6491,-4.7007,-4.7092,-4.6912,-4.6919,-4.7785,-4.8136,-4.8488,-4.9283,-5.0106,-5.0599,-5.1115,-5.1197,-5.1281,-5.1393,-5.1731,-5.145,-5.1421,-5.1787,-5.1787,-5.1787,-5.1787,-5.1787,-5.1787,-5.1787,-5.1787,-5.1787,-5.1787,-5.1787,-5.1787,-5.1787,-5.1787,-5.1787,-5.1731,-5.1759,-5.1787,-5.1787,-5.1787,-5.1787,-5.1787,-5.1841,-5.1841,-5.1868,-5.1841,-5.1896,-5.1787,-5.1348,-5.1348,-5.1293,-5.1293,-5.1403,-5.1568,-5.1811,-5.2028,-5.2272,-5.3016,-5.3541,-5.4164,-5.4747,-5.4979,-5.538,-5.5895,-5.6255,-5.6769,-5.7072,-5.7869,-5.8645,-5.887,-5.937,-5.9827,-6.0581,-6.0443,-6.0609,-6.0869,-6.1829,-6.3553,-6.4689,-6.5471,-6.6459,-6.7147,-6.7692,-6.8075,-6.853,-6.907,-6.954,-6.9785,-6.9841,-6.9942,-7.0149,-7.0631,-7.1332,-7.1509,-7.156,-7.1718,-7.189,-7.1222,-3.9544,-3.9861,-4.013,-4.0513,-4.1033,-4.2012,-4.2662,-4.3219,-4.41,-4.5012,-4.5509,-4.5027,-4.6011,-4.6659,-4.7197,-4.6799,-4.6945,-4.7684,-4.7307,-4.7155,-4.7677,-4.7947,-4.835,-4.8664,-4.9128,-4.9649,-5.012,-5.0621,-5.1259,-5.1253,-5.1253,-5.1674,-5.1787,-5.1787,-5.1787,-5.1759,-5.1787,-5.1787,-5.1787,-5.1787,-5.1787,-5.1787,-5.1787,-5.1787,-5.1787,-5.1787,-5.1787,-5.1787,-5.1787,-5.1787,-5.1787,-5.1787,-5.1787,-5.1787,-5.1787,-5.1787,-5.1787,-5.1841,-5.1896,-5.1896,-5.2059,-5.2139,-5.2085,-5.2139,-5.2247,-5.2355,-5.2355,-5.2301,-5.2301,-5.2059,-5.2221,-5.257,-5.273,-5.3405,-5.4311,-5.5099,-5.5918,-5.6541,-5.6752,-5.7039,-5.7434,-5.7807,-5.8191,-5.8464,-5.9137,-5.9946,-6.0586,-6.1119,-6.179,-6.2764,-6.3281,-6.3566,-6.3943,-6.5125,-6.6239,-6.6793,-6.7387,-6.7938,-6.8548,-6.9459,-7.0197,-7.0255,-7.0548,-7.1164,-7.1363,-7.1252,-7.1471,-7.1729,-7.228,-7.2733,-7.2845,-7.2845,-7.2968,-7.3057,-7.3042,-4.0048,-4.0165,-4.0479,-4.1148,-4.2069,-4.2662,-4.333,-4.4209,-4.4535,-4.5445,-4.6625,-4.6867,-4.6861,-4.6638,-4.7106,-4.7244,-4.7676,-4.8491,-4.8862,-4.8764,-4.9049,-4.9153,-4.9256,-4.9529,-4.9848,-5.0182,-5.0547,-5.0888,-5.1222,-5.1054,-5.1222,-5.1813,-5.1841,-5.1841,-5.1841,-5.1841,-5.1896,-5.1896,-5.1896,-5.1896,-5.1841,-5.1841,-5.1787,-5.1787,-5.1787,-5.1787,-5.1787,-5.1787,-5.1787,-5.1787,-5.1841,-5.1896,-5.1896,-5.1896,-5.1896,-5.195,-5.195,-5.2139,-5.2221,-5.2355,-5.2594,-5.3541,-5.3698,-5.3957,-5.4186,-5.4544,-5.4493,-5.434,-5.4009,-5.2967,-5.302,-5.3646,-5.409,-5.5508,-5.6594,-5.7285,-5.7961,-5.7856,-5.7715,-5.8162,-5.8645,-5.9093,-5.9653,-6.0171,-6.097,-6.1656,-6.2178,-6.2749,-6.3296,-6.4554,-6.5829,-6.6318,-6.6694,-6.7041,-6.7603,-6.8087,-6.8691,-6.9277,-6.9883,-7.0698,-7.1318,-7.1547,-7.1945,-7.2283,-7.2502,-7.2484,-7.2781,-7.2904,-7.3353,-7.3691,-7.4019,-7.4182,-7.4201,-7.4197,-7.4099]},{"header":{"parameterUnit":"m.s-1","parameterCategory":1,"la1":31.0,"la2":29.5877,"lo1":-88.7671,"lo2":-86.6584,"dy":0.0162,"dx":0.0185,"nx":115,"ny":88,"refTime":"2023-10-10T06:00:00:Z","depth":0,"parameterNumber":3,"parameterNumberName":"V-component_of_WINDS"},"data":[0.0,0.0,0.0,0.0,0.0,0.0,0.0,0.0,0.0,0.0,0.0,0.0,0.0,0.0,0.0,0.0,0.0,0.0,0.0,0.0,0.0,0.0,0.0,0.0,0.0,0.0,0.0,0.0,0.0,0.0,0.0,0.0,0.0,0.0,0.0,0.0,0.0,0.0,0.0,0.0,0.0,0.0,0.0,0.0,0.0,0.0,0.0,0.0,0.0,0.0,0.0,0.0,0.0,0.0,0.0,0.0,0.0,0.0,0.0,0.0,0.0,0.0,0.0,0.0,0.0,0.0,0.0,0.0,0.0,0.0,0.0,0.0,0.0,0.0,0.0,0.0,0.0,0.0,0.0,0.0,0.0,0.0,0.0,0.0,0.0,0.0,0.0,0.0,0.0,0.0,0.0,0.0,0.0,0.0,0.0,0.0,0.0,0.0,0.0,0.0,0.0,0.0,0.0,0.0,0.0,0.0,0.0,0.0,0.0,0.0,0.0,0.0,0.0,0.0,0.0,0.0,0.0,0.0,0.0,0.0,0.0,0.0,0.0,0.0,0.0,0.0,0.0,0.0,0.0,0.0,0.0,0.0,0.0,0.0,0.0,0.0,0.0,0.0,0.0,0.0,0.0,0.0,0.0,0.0,0.0,0.0,0.0,0.0,0.0,0.0,0.0,0.0,0.0,0.0,0.0,0.0,0.0,0.0,0.0,0.0,0.0,0.0,0.0,0.0,0.0,0.0,0.0,0.0,0.0,0.0,0.0,0.0,0.0,0.0,0.0,0.0,0.0,0.0,0.0,0.0,0.0,0.0,0.0,0.0,0.0,0.0,0.0,0.0,0.0,0.0,0.0,0.0,0.0,0.0,0.0,0.0,0.0,0.0,0.0,0.0,0.0,0.0,0.0,0.0,0.0,0.0,0.0,0.0,0.0,0.0,0.0,0.0,0.0,0.0,0.0,0.0,0.0,0.0,0.0,0.0,0.0,0.0,0.0,0.0,0.0,0.0,0.0,0.0,0.0,0.0,0.0,0.0,0.0,0.0,0.0,0.0,0.0,0.0,0.0,0.0,0.0,0.0,0.0,0.0,0.0,0.0,0.0,0.0,0.0,0.0,0.0,0.0,0.0,0.0,0.0,0.0,0.0,0.0,0.0,0.0,0.0,0.0,0.0,0.0,0.0,0.0,0.0,0.0,0.0,0.0,0.0,0.0,0.0,0.0,0.0,0.0,0.0,0.0,0.0,0.0,0.0,0.0,0.0,0.0,0.0,0.0,0.0,0.0,0.0,0.0,0.0,0.0,0.0,0.0,0.0,0.0,0.0,0.0,0.0,0.0,0.0,0.0,0.0,0.0,0.0,0.0,0.0,0.0,0.0,0.0,0.0,0.0,0.0,0.0,0.0,0.0,0.0,0.0,0.0,0.0,0.0,0.0,0.0,0.0,0.0,0.0,0.0,0.0,0.0,0.0,0.0,0.0,0.0,0.0,0.0,0.0,0.0,0.0,0.0,0.0,0.0,0.0,0.0,0.0,0.0,0.0,0.0,0.0,0.0,0.0,0.0,0.0,0.0,0.0,0.0,0.0,0.0,0.0,0.0,0.0,0.0,0.0,0.0,0.0,0.0,0.0,0.0,0.0,0.0,0.0,0.0,0.0,0.0,0.0,0.0,0.0,0.0,0.0,0.0,0.0,0.0,0.0,0.0,0.0,0.0,0.0,0.0,0.0,0.0,0.0,0.0,0.0,0.0,0.0,0.0,0.0,0.0,0.0,0.0,0.0,0.0,0.0,0.0,0.0,0.0,0.0,0.0,0.0,0.0,0.0,0.0,0.0,0.0,0.0,0.0,0.0,0.0,0.0,0.0,0.0,0.0,0.0,0.0,0.0,0.0,0.0,0.0,0.0,0.0,0.0,0.0,0.0,0.0,0.0,0.0,0.0,0.0,0.0,0.0,0.0,0.0,0.0,0.0,0.0,0.0,0.0,0.0,0.0,0.0,0.0,0.0,0.0,0.0,0.0,0.0,0.0,0.0,0.0,0.0,0.0,0.0,0.0,0.0,0.0,0.0,0.0,0.0,0.0,0.0,0.0,0.0,0.0,0.0,0.0,0.0,0.0,0.0,0.0,0.0,0.0,0.0,0.0,0.0,0.0,0.0,0.0,0.0,0.0,0.0,0.0,0.0,0.0,0.0,0.0,0.0,0.0,0.0,0.0,0.0,0.0,0.0,0.0,0.0,0.0,0.0,0.0,0.0,0.0,0.0,0.0,0.0,0.0,0.0,0.0,0.0,0.0,0.0,0.0,0.0,0.0,0.0,0.0,0.0,0.0,0.0,0.0,0.0,0.0,0.0,0.0,0.0,0.0,0.0,0.0,0.0,0.0,0.0,0.0,0.0,0.0,0.0,0.0,0.0,0.0,0.0,0.0,0.0,0.0,0.0,0.0,0.0,0.0,0.0,0.0,0.0,0.0,0.0,0.0,0.0,0.0,0.0,0.0,0.0,0.0,0.0,0.0,0.0,0.0,0.0,0.0,0.0,0.0,0.0,0.0,0.0,0.0,0.0,0.0,0.0,0.0,0.0,0.0,0.0,0.0,0.0,0.0,0.0,0.0,0.0,0.0,0.0,0.0,0.0,0.0,0.0,0.0,0.0,0.0,0.0,0.0,0.0,0.0,0.0,0.0,0.0,0.0,0.0,0.0,0.0,0.0,0.0,0.0,0.0,0.0,0.0,0.0,0.0,0.0,0.0,0.0,0.0,0.0,0.0,0.0,0.0,0.0,0.0,0.0,0.0,0.0,0.0,0.0,0.0,0.0,0.0,0.0,0.0,0.0,0.0,0.0,0.0,0.0,0.0,0.0,0.0,0.0,0.0,0.0,0.0,0.0,0.0,0.0,0.0,0.0,0.0,0.0,0.0,0.0,0.0,0.0,0.0,0.0,0.0,0.0,0.0,0.0,0.0,0.0,0.0,0.0,0.0,0.0,0.0,0.0,0.0,0.0,0.0,0.0,0.0,0.0,0.0,0.0,0.0,0.0,0.0,0.0,0.0,0.0,0.0,0.0,0.0,0.0,0.0,0.0,0.0,0.0,0.0,0.0,0.0,0.0,0.0,0.0,0.0,0.0,0.0,0.0,0.0,0.0,0.0,0.0,0.0,0.0,0.0,0.0,0.0,0.0,0.0,0.0,0.0,0.0,0.0,0.0,0.0,0.0,0.0,0.0,0.0,0.0,0.0,0.0,0.0,0.0,0.0,0.0,0.0,0.0,0.0,0.0,0.0,0.0,0.0,0.0,0.0,0.0,0.0,0.0,0.0,0.0,0.0,0.0,0.0,0.0,0.0,0.0,0.0,0.0,0.0,0.0,0.0,0.0,0.0,0.0,0.0,0.0,0.0,0.0,0.0,0.0,0.0,0.0,0.0,0.0,0.0,0.0,0.0,0.0,0.0,0.0,0.0,0.0,0.0,0.0,0.0,0.0,0.0,0.0,0.0,0.0,0.0,0.0,0.0,0.0,0.0,0.0,0.0,0.0,0.0,0.0,0.0,0.0,0.0,0.0,0.0,0.0,0.0,0.0,0.0,0.0,0.0,0.0,0.0,0.0,0.0,0.0,0.0,0.0,0.0,0.0,0.0,0.0,0.0,0.0,0.0,0.0,0.0,0.0,0.0,0.0,0.0,0.0,0.0,0.0,0.0,0.0,0.0,0.0,0.0,0.0,0.0,0.0,0.0,0.0,0.0,0.0,0.0,0.0,0.0,0.0,0.0,0.0,0.0,0.0,0.0,0.0,0.0,0.0,0.0,0.0,0.0,0.0,0.0,0.0,0.0,0.0,0.0,0.0,0.0,0.0,0.0,0.0,0.0,0.0,0.0,0.0,0.0,0.0,0.0,0.0,0.0,0.0,0.0,0.0,0.0,0.0,0.0,0.0,0.0,0.0,0.0,0.0,0.0,0.0,0.0,0.0,0.0,0.0,0.0,0.0,0.0,0.0,0.0,0.0,0.0,0.0,0.0,0.0,0.0,0.0,0.0,0.0,0.0,0.0,0.0,0.0,0.0,0.0,0.0,0.0,0.0,0.0,0.0,0.0,0.0,0.0,0.0,0.0,0.0,0.0,0.0,0.0,0.0,0.0,0.0,0.0,0.0,0.0,0.0,0.0,0.0,0.0,0.0,0.0,0.0,0.0,0.0,0.0,0.0,0.0,0.0,0.0,0.0,0.0,0.0,0.0,0.0,0.0,0.0,0.0,0.0,0.0,0.0,0.0,0.0,0.0,0.0,0.0,4.0477,0.0,0.0,0.0,0.0,0.0,0.0,0.0,0.0,0.0,0.0,0.0,0.0,0.0,0.0,0.0,0.0,0.0,0.0,0.0,0.0,0.0,0.0,0.0,0.0,0.0,0.0,0.0,0.0,0.0,0.0,0.0,0.0,0.0,0.0,0.0,0.0,0.0,0.0,0.0,0.0,0.0,0.0,0.0,0.0,0.0,0.0,0.0,0.0,0.0,0.0,0.0,0.0,0.0,0.0,0.0,0.0,0.0,0.0,0.0,0.0,0.0,0.0,0.0,0.0,0.0,0.0,0.0,0.0,0.0,0.0,0.0,0.0,0.0,0.0,0.0,0.0,0.0,0.0,0.0,0.0,0.0,0.0,0.0,0.0,0.0,0.0,0.0,0.0,0.0,0.0,0.0,0.0,0.0,0.0,0.0,0.0,0.0,0.0,0.0,0.0,0.0,0.0,0.0,0.0,0.0,0.0,0.0,0.0,0.0,0.0,4.0516,4.0516,4.0516,4.0516,4.0477,0.0,0.0,0.0,0.0,0.0,0.0,0.0,0.0,0.0,0.0,0.0,0.0,0.0,0.0,0.0,0.0,0.0,0.0,0.0,0.0,0.0,0.0,0.0,0.0,0.0,0.0,0.0,0.0,0.0,0.0,0.0,0.0,0.0,0.0,0.0,0.0,0.0,0.0,0.0,0.0,0.0,0.0,0.0,0.0,0.0,0.0,0.0,0.0,0.0,0.0,0.0,0.0,0.0,0.0,0.0,0.0,0.0,0.0,0.0,0.0,0.0,0.0,0.0,0.0,0.0,0.0,0.0,0.0,0.0,0.0,0.0,0.0,0.0,0.0,0.0,0.0,0.0,0.0,0.0,0.0,0.0,0.0,0.0,0.0,0.0,0.0,0.0,0.0,0.0,0.0,0.0,0.0,0.0,0.0,0.0,0.0,0.0,0.0,0.0,0.0,0.0,0.0,0.0,0.0,0.0,0.0,0.0,0.0,0.0,0.0,0.0,0.0,4.0977,4.09,4.0477,0.0,0.0,0.0,0.0,0.0,0.0,0.0,0.0,0.0,0.0,0.0,0.0,0.0,0.0,0.0,0.0,0.0,0.0,0.0,0.0,0.0,0.0,0.0,0.0,0.0,0.0,0.0,0.0,0.0,0.0,0.0,0.0,0.0,0.0,0.0,0.0,0.0,0.0,0.0,0.0,0.0,0.0,0.0,0.0,0.0,0.0,0.0,0.0,0.0,0.0,0.0,0.0,0.0,0.0,0.0,0.0,0.0,0.0,0.0,0.0,0.0,0.0,0.0,0.0,0.0,0.0,0.0,0.0,0.0,0.0,0.0,0.0,0.0,0.0,0.0,0.0,0.0,0.0,0.0,0.0,0.0,0.0,0.0,0.0,0.0,0.0,0.0,0.0,0.0,0.0,0.0,0.0,0.0,0.0,0.0,0.0,0.0,0.0,0.0,0.0,0.0,0.0,0.0,0.0,0.0,0.0,0.0,0.0,0.0,0.0,4.17,4.17,4.2431,0.0,4.0554,0.0,0.0,0.0,0.0,0.0,0.0,0.0,0.0,0.0,0.0,0.0,0.0,0.0,0.0,0.0,0.0,0.0,0.0,0.0,0.0,0.0,0.0,0.0,0.0,0.0,0.0,0.0,0.0,0.0,0.0,0.0,0.0,0.0,0.0,0.0,0.0,0.0,0.0,0.0,0.0,0.0,0.0,0.0,0.0,0.0,0.0,0.0,0.0,0.0,0.0,0.0,0.0,0.0,0.0,0.0,0.0,0.0,0.0,0.0,0.0,0.0,0.0,0.0,0.0,0.0,0.0,0.0,0.0,0.0,0.0,0.0,0.0,0.0,0.0,0.0,0.0,0.0,0.0,0.0,0.0,0.0,0.0,0.0,0.0,0.0,0.0,0.0,0.0,0.0,0.0,0.0,0.0,0.0,0.0,0.0,0.0,0.0,0.0,0.0,0.0,0.0,0.0,0.0,0.0,0.0,0.0,0.0,0.0,0.0,0.0,4.2047,4.2547,4.2917,4.2548,0.0,0.0,0.0,0.0,0.0,0.0,0.0,0.0,0.0,0.0,0.0,0.0,0.0,0.0,0.0,0.0,0.0,0.0,0.0,0.0,0.0,0.0,0.0,0.0,0.0,0.0,0.0,0.0,0.0,0.0,0.0,0.0,0.0,0.0,0.0,0.0,0.0,0.0,0.0,0.0,0.0,0.0,0.0,0.0,0.0,0.0,0.0,0.0,0.0,0.0,0.0,0.0,0.0,0.0,0.0,0.0,0.0,0.0,0.0,0.0,0.0,0.0,0.0,0.0,0.0,0.0,0.0,0.0,0.0,0.0,0.0,0.0,0.0,0.0,0.0,0.0,0.0,0.0,0.0,0.0,0.0,0.0,0.0,0.0,0.0,0.0,0.0,0.0,0.0,0.0,0.0,0.0,0.0,0.0,0.0,0.0,0.0,0.0,0.0,0.0,0.0,0.0,0.0,0.0,0.0,0.0,0.0,0.0,0.0,0.0,4.1893,4.2662,4.3701,4.3357,4.2734,4.1932,0.0,0.0,0.0,0.0,0.0,0.0,0.0,0.0,0.0,0.0,0.0,0.0,0.0,0.0,0.0,0.0,0.0,0.0,0.0,0.0,0.0,0.0,0.0,0.0,0.0,0.0,0.0,0.0,0.0,0.0,0.0,0.0,0.0,0.0,0.0,0.0,0.0,0.0,0.0,0.0,0.0,0.0,0.0,0.0,0.0,0.0,0.0,0.0,0.0,0.0,0.0,0.0,0.0,0.0,0.0,0.0,0.0,0.0,0.0,0.0,0.0,0.0,0.0,0.0,0.0,0.0,0.0,0.0,0.0,0.0,0.0,0.0,0.0,0.0,0.0,0.0,0.0,0.0,0.0,0.0,0.0,0.0,0.0,0.0,0.0,0.0,0.0,0.0,0.0,0.0,0.0,0.0,0.0,0.0,0.0,0.0,0.0,0.0,0.0,0.0,0.0,0.0,0.0,0.0,0.0,0.0,0.0,0.0,4.0593,4.22,4.3816,4.5364,4.3935,4.2703,0.0,0.0,0.0,0.0,0.0,0.0,0.0,0.0,0.0,0.0,0.0,0.0,0.0,0.0,0.0,0.0,0.0,0.0,0.0,0.0,0.0,0.0,0.0,0.0,0.0,0.0,0.0,0.0,0.0,0.0,0.0,0.0,0.0,0.0,0.0,0.0,0.0,0.0,0.0,0.0,0.0,0.0,0.0,0.0,0.0,0.0,0.0,0.0,0.0,0.0,0.0,0.0,0.0,0.0,0.0,0.0,0.0,0.0,0.0,0.0,0.0,0.0,0.0,0.0,0.0,0.0,0.0,0.0,0.0,0.0,0.0,0.0,0.0,0.0,0.0,0.0,0.0,0.0,0.0,0.0,0.0,0.0,0.0,0.0,0.0,0.0,0.0,0.0,0.0,0.0,0.0,0.0,0.0,0.0,0.0,0.0,0.0,0.0,0.0,0.0,0.0,0.0,0.0,0.0,0.0,0.0,0.0,0.0,0.0,4.1354,4.3547,4.4718,4.4812,4.4268,4.3093,0.0,0.0,0.0,0.0,0.0,0.0,0.0,0.0,0.0,0.0,0.0,0.0,0.0,0.0,0.0,0.0,0.0,0.0,0.0,0.0,0.0,0.0,0.0,0.0,0.0,0.0,0.0,0.0,0.0,0.0,0.0,0.0,0.0,0.0,0.0,0.0,0.0,0.0,0.0,0.0,0.0,0.0,0.0,0.0,0.0,0.0,0.0,0.0,0.0,0.0,0.0,0.0,0.0,0.0,0.0,0.0,0.0,0.0,0.0,0.0,0.0,0.0,0.0,0.0,0.0,0.0,0.0,0.0,0.0,0.0,0.0,0.0,0.0,0.0,0.0,0.0,0.0,0.0,0.0,0.0,0.0,0.0,0.0,0.0,0.0,0.0,0.0,0.0,0.0,0.0,0.0,0.0,0.0,0.0,0.0,0.0,0.0,0.0,0.0,0.0,0.0,0.0,0.0,0.0,0.0,0.0,0.0,0.0,0.0,4.2202,0.0,4.5384,4.4847,4.4368,4.3079,0.0,0.0,0.0,0.0,0.0,0.0,0.0,0.0,0.0,0.0,0.0,0.0,0.0,0.0,0.0,0.0,0.0,0.0,0.0,0.0,0.0,0.0,0.0,0.0,0.0,0.0,0.0,0.0,0.0,0.0,0.0,0.0,0.0,0.0,0.0,0.0,0.0,0.0,0.0,0.0,0.0,0.0,0.0,0.0,0.0,0.0,0.0,0.0,0.0,0.0,0.0,0.0,0.0,0.0,0.0,0.0,0.0,0.0,0.0,0.0,0.0,0.0,0.0,0.0,0.0,0.0,0.0,0.0,0.0,0.0,0.0,0.0,0.0,0.0,0.0,0.0,0.0,0.0,0.0,0.0,0.0,0.0,0.0,0.0,0.0,0.0,0.0,0.0,0.0,0.0,0.0,0.0,0.0,0.0,0.0,0.0,0.0,0.0,0.0,0.0,0.0,0.0,0.0,0.0,0.0,0.0,0.0,0.0,3.9818,4.3103,4.4878,4.575,4.5749,4.4239,4.2556,0.0,0.0,0.0,0.0,0.0,0.0,0.0,0.0,0.0,0.0,0.0,0.0,0.0,0.0,0.0,0.0,0.0,0.0,0.0,0.0,0.0,0.0,0.0,0.0,0.0,0.0,0.0,0.0,0.0,0.0,0.0,0.0,0.0,0.0,0.0,0.0,0.0,0.0,0.0,0.0,0.0,0.0,0.0,0.0,0.0,0.0,0.0,0.0,0.0,0.0,0.0,0.0,0.0,0.0,0.0,0.0,0.0,0.0,0.0,0.0,0.0,0.0,0.0,0.0,0.0,0.0,0.0,0.0,0.0,0.0,0.0,0.0,0.0,0.0,0.0,0.0,0.0,0.0,0.0,0.0,0.0,0.0,0.0,0.0,0.0,0.0,0.0,0.0,0.0,0.0,0.0,0.0,0.0,0.0,0.0,0.0,0.0,0.0,0.0,0.0,0.0,0.0,0.0,0.0,0.0,0.0,0.0,0.0,0.0,4.4116,4.581,4.6419,4.5861,4.4846,4.2931,0.0,0.0,0.0,0.0,0.0,0.0,0.0,0.0,0.0,0.0,0.0,0.0,0.0,0.0,0.0,0.0,0.0,0.0,0.0,0.0,0.0,0.0,0.0,0.0,0.0,0.0,0.0,0.0,0.0,0.0,0.0,0.0,0.0,0.0,0.0,0.0,0.0,0.0,0.0,0.0,0.0,0.0,0.0,0.0,0.0,0.0,0.0,0.0,0.0,0.0,0.0,0.0,0.0,0.0,0.0,0.0,0.0,0.0,0.0,0.0,0.0,0.0,0.0,0.0,0.0,0.0,0.0,0.0,0.0,0.0,0.0,0.0,0.0,0.0,0.0,0.0,0.0,0.0,0.0,0.0,0.0,0.0,0.0,0.0,0.0,0.0,0.0,0.0,0.0,0.0,0.0,0.0,0.0,0.0,0.0,0.0,0.0,0.0,0.0,0.0,0.0,0.0,0.0,0.0,0.0,0.0,0.0,0.0,0.0,4.5149,4.6822,4.7416,4.6973,4.6134,4.3999,4.0406,0.0,0.0,0.0,0.0,0.0,0.0,0.0,0.0,0.0,0.0,0.0,0.0,0.0,0.0,0.0,0.0,0.0,0.0,0.0,0.0,0.0,0.0,0.0,0.0,0.0,0.0,0.0,0.0,0.0,0.0,0.0,0.0,0.0,0.0,0.0,0.0,0.0,0.0,0.0,0.0,0.0,0.0,0.0,0.0,0.0,0.0,0.0,0.0,0.0,0.0,0.0,0.0,0.0,0.0,0.0,0.0,0.0,0.0,0.0,0.0,0.0,0.0,0.0,0.0,0.0,0.0,0.0,0.0,0.0,0.0,0.0,0.0,0.0,0.0,0.0,0.0,0.0,0.0,0.0,0.0,0.0,0.0,0.0,0.0,0.0,0.0,0.0,0.0,0.0,0.0,0.0,0.0,0.0,0.0,0.0,0.0,0.0,0.0,0.0,0.0,0.0,0.0,0.0,0.0,0.0,0.0,0.0,0.0,4.63,4.7925,4.8807,4.8842,4.7911,4.5478,0.0,0.0,0.0,0.0,0.0,0.0,0.0,0.0,0.0,0.0,0.0,0.0,0.0,0.0,0.0,0.0,0.0,0.0,0.0,0.0,0.0,0.0,0.0,0.0,0.0,0.0,0.0,0.0,0.0,0.0,0.0,0.0,0.0,0.0,0.0,0.0,0.0,0.0,0.0,0.0,0.0,0.0,0.0,0.0,0.0,0.0,0.0,0.0,0.0,0.0,0.0,0.0,0.0,0.0,0.0,0.0,0.0,0.0,0.0,0.0,0.0,0.0,0.0,0.0,0.0,0.0,0.0,0.0,0.0,0.0,0.0,0.0,0.0,0.0,0.0,0.0,0.0,0.0,0.0,0.0,0.0,0.0,0.0,0.0,0.0,0.0,0.0,0.0,0.0,0.0,0.0,0.0,0.0,0.0,0.0,0.0,0.0,0.0,0.0,0.0,0.0,0.0,0.0,0.0,0.0,0.0,0.0,0.0,0.0,4.804,4.9778,5.0657,5.0559,4.8581,4.6379,0.0,0.0,0.0,0.0,0.0,0.0,0.0,0.0,0.0,0.0,0.0,0.0,0.0,0.0,0.0,0.0,0.0,0.0,0.0,0.0,0.0,0.0,0.0,0.0,0.0,0.0,0.0,0.0,0.0,0.0,0.0,0.0,0.0,0.0,0.0,0.0,0.0,0.0,0.0,0.0,0.0,0.0,0.0,0.0,0.0,0.0,0.0,0.0,0.0,0.0,0.0,0.0,0.0,0.0,0.0,0.0,0.0,0.0,0.0,0.0,0.0,0.0,0.0,0.0,0.0,0.0,0.0,0.0,0.0,0.0,0.0,0.0,0.0,0.0,0.0,0.0,0.0,0.0,0.0,0.0,0.0,0.0,0.0,0.0,0.0,0.0,0.0,0.0,0.0,0.0,0.0,0.0,0.0,0.0,0.0,0.0,0.0,0.0,0.0,0.0,0.0,0.0,0.0,0.0,0.0,0.0,0.0,0.0,4.5893,4.82,5.027,5.1519,5.1825,5.0088,4.782,0.0,0.0,0.0,0.0,0.0,0.0,0.0,0.0,0.0,0.0,0.0,0.0,0.0,0.0,0.0,0.0,0.0,0.0,0.0,0.0,0.0,0.0,0.0,0.0,0.0,0.0,0.0,0.0,0.0,0.0,0.0,0.0,0.0,0.0,0.0,0.0,0.0,0.0,0.0,0.0,0.0,0.0,0.0,0.0,0.0,0.0,0.0,0.0,0.0,0.0,0.0,0.0,0.0,0.0,0.0,0.0,0.0,0.0,0.0,0.0,0.0,0.0,0.0,0.0,0.0,0.0,0.0,0.0,0.0,0.0,0.0,0.0,0.0,0.0,0.0,0.0,0.0,0.0,0.0,0.0,0.0,0.0,0.0,0.0,0.0,0.0,0.0,0.0,0.0,0.0,0.0,0.0,0.0,0.0,0.0,0.0,0.0,0.0,0.0,0.0,0.0,0.0,0.0,0.0,0.0,0.0,0.0,0.0,4.6791,4.7762,5.0094,5.1689,5.2513,5.164,4.933,0.0,0.0,0.0,0.0,0.0,0.0,0.0,0.0,0.0,0.0,0.0,0.0,0.0,0.0,0.0,0.0,0.0,0.0,0.0,0.0,0.0,0.0,0.0,0.0,0.0,0.0,0.0,0.0,0.0,0.0,0.0,0.0,0.0,0.0,0.0,0.0,0.0,0.0,0.0,0.0,0.0,0.0,0.0,0.0,0.0,0.0,0.0,0.0,0.0,0.0,0.0,0.0,0.0,0.0,0.0,0.0,0.0,0.0,0.0,0.0,0.0,0.0,0.0,0.0,0.0,0.0,0.0,0.0,0.0,0.0,0.0,0.0,0.0,0.0,0.0,0.0,0.0,0.0,0.0,0.0,0.0,0.0,0.0,0.0,0.0,0.0,0.0,0.0,0.0,0.0,0.0,0.0,0.0,0.0,0.0,0.0,0.0,0.0,0.0,0.0,0.0,0.0,0.0,0.0,0.0,0.0,0.0,0.0,4.7948,4.9456,5.067,5.1728,5.255,5.049,4.8891,0.0,0.0,0.0,0.0,0.0,0.0,0.0,0.0,0.0,0.0,0.0,0.0,0.0,0.0,0.0,0.0,0.0,0.0,0.0,0.0,0.0,0.0,0.0,0.0,0.0,0.0,0.0,0.0,0.0,0.0,0.0,0.0,0.0,0.0,0.0,0.0,0.0,0.0,0.0,0.0,0.0,0.0,0.0,0.0,0.0,0.0,0.0,0.0,5.1294,0.0,0.0,0.0,0.0,0.0,0.0,0.0,0.0,0.0,0.0,0.0,0.0,0.0,0.0,0.0,0.0,0.0,0.0,0.0,0.0,0.0,0.0,0.0,0.0,0.0,0.0,0.0,0.0,0.0,0.0,0.0,0.0,0.0,0.0,0.0,0.0,0.0,0.0,0.0,0.0,0.0,0.0,0.0,0.0,0.0,0.0,0.0,0.0,0.0,0.0,0.0,0.0,0.0,0.0,0.0,0.0,0.0,0.0,0.0,4.8287,4.9896,5.0825,5.1433,5.1758,5.0123,4.906,0.0,0.0,0.0,0.0,0.0,0.0,0.0,0.0,0.0,0.0,0.0,0.0,0.0,0.0,0.0,0.0,0.0,0.0,0.0,0.0,0.0,0.0,0.0,0.0,0.0,0.0,0.0,0.0,0.0,0.0,0.0,0.0,0.0,0.0,0.0,0.0,0.0,0.0,0.0,0.0,0.0,0.0,0.0,0.0,0.0,0.0,0.0,0.0,0.0,0.0,0.0,0.0,0.0,0.0,0.0,0.0,0.0,0.0,0.0,0.0,0.0,0.0,0.0,0.0,0.0,0.0,0.0,0.0,0.0,0.0,0.0,0.0,0.0,0.0,0.0,0.0,0.0,0.0,0.0,0.0,0.0,0.0,0.0,0.0,0.0,0.0,0.0,0.0,0.0,0.0,0.0,0.0,0.0,0.0,0.0,0.0,0.0,0.0,0.0,0.0,0.0,0.0,0.0,0.0,0.0,0.0,0.0,4.6512,4.8262,5.0008,5.0763,5.1075,5.0944,5.01,4.9227,4.8292,0.0,0.0,0.0,0.0,0.0,0.0,0.0,0.0,0.0,0.0,0.0,0.0,0.0,0.0,0.0,0.0,0.0,0.0,0.0,0.0,0.0,0.0,0.0,0.0,0.0,0.0,0.0,0.0,0.0,0.0,0.0,0.0,0.0,0.0,0.0,0.0,0.0,0.0,4.8017,5.0012,0.0,0.0,0.0,0.0,0.0,0.0,0.0,0.0,5.2311,0.0,0.0,0.0,0.0,0.0,0.0,0.0,0.0,0.0,0.0,0.0,0.0,0.0,0.0,0.0,0.0,0.0,0.0,0.0,0.0,0.0,0.0,0.0,0.0,0.0,0.0,0.0,0.0,0.0,0.0,0.0,0.0,0.0,0.0,0.0,0.0,0.0,0.0,0.0,0.0,0.0,0.0,0.0,0.0,0.0,0.0,0.0,0.0,0.0,0.0,0.0,0.0,0.0,0.0,0.0,0.0,4.4806,4.6406,4.8392,5.0738,5.079,5.0756,5.0692,4.986,4.8612,4.695,0.0,0.0,0.0,0.0,0.0,0.0,0.0,0.0,0.0,0.0,0.0,0.0,0.0,0.0,0.0,0.0,0.0,0.0,0.0,0.0,0.0,0.0,0.0,0.0,0.0,0.0,0.0,0.0,0.0,0.0,0.0,0.0,0.0,0.0,0.0,0.0,0.0,0.0,0.0,5.0996,5.2027,0.0,0.0,0.0,0.0,0.0,0.0,0.0,0.0,5.3814,0.0,0.0,0.0,0.0,0.0,0.0,0.0,0.0,0.0,0.0,0.0,0.0,0.0,0.0,0.0,0.0,0.0,0.0,0.0,0.0,0.0,0.0,0.0,0.0,0.0,0.0,0.0,0.0,0.0,0.0,0.0,0.0,0.0,0.0,0.0,0.0,0.0,0.0,0.0,0.0,0.0,0.0,0.0,0.0,0.0,0.0,0.0,0.0,0.0,0.0,0.0,0.0,0.0,0.0,0.0,4.4605,4.6744,4.8811,5.0758,5.0731,5.0661,5.0577,4.9662,4.8269,0.0,0.0,0.0,0.0,0.0,0.0,0.0,0.0,0.0,0.0,0.0,0.0,0.0,0.0,0.0,0.0,0.0,0.0,0.0,0.0,0.0,0.0,0.0,0.0,0.0,0.0,0.0,0.0,0.0,0.0,0.0,0.0,0.0,0.0,0.0,0.0,0.0,0.0,0.0,0.0,5.214,5.3719,5.5023,0.0,0.0,0.0,0.0,0.0,0.0,5.4351,5.4112,0.0,0.0,0.0,0.0,0.0,0.0,0.0,0.0,0.0,0.0,0.0,0.0,0.0,0.0,0.0,0.0,0.0,0.0,0.0,0.0,0.0,0.0,0.0,0.0,0.0,0.0,0.0,0.0,0.0,0.0,0.0,0.0,0.0,0.0,0.0,0.0,0.0,0.0,0.0,0.0,0.0,0.0,0.0,0.0,0.0,0.0,0.0,0.0,0.0,0.0,0.0,0.0,0.0,0.0,0.0,4.4459,4.6827,4.8895,5.0545,5.0548,5.0489,5.0342,4.9193,4.7631,0.0,0.0,0.0,0.0,0.0,0.0,0.0,0.0,0.0,0.0,0.0,0.0,0.0,0.0,0.0,0.0,0.0,0.0,0.0,0.0,0.0,0.0,0.0,0.0,0.0,0.0,0.0,0.0,0.0,0.0,0.0,0.0,0.0,0.0,0.0,0.0,0.0,0.0,0.0,0.0,0.0,5.5316,5.6347,5.6227,0.0,0.0,0.0,0.0,5.4897,5.5096,0.0,0.0,0.0,0.0,0.0,0.0,0.0,0.0,0.0,0.0,0.0,0.0,0.0,0.0,0.0,0.0,0.0,0.0,0.0,0.0,0.0,0.0,0.0,0.0,0.0,0.0,0.0,0.0,0.0,0.0,0.0,0.0,0.0,0.0,0.0,0.0,0.0,0.0,0.0,0.0,0.0,0.0,0.0,0.0,0.0,0.0,0.0,0.0,0.0,0.0,0.0,0.0,0.0,0.0,0.0,0.0,4.4338,4.6074,4.8087,5.0363,5.0135,4.9872,4.9846,4.7999,4.6046,0.0,0.0,0.0,0.0,0.0,0.0,0.0,0.0,0.0,0.0,0.0,0.0,0.0,0.0,0.0,0.0,0.0,0.0,0.0,0.0,0.0,0.0,0.0,0.0,0.0,0.0,0.0,0.0,0.0,0.0,0.0,0.0,0.0,0.0,0.0,0.0,0.0,0.0,0.0,0.0,0.0,5.5728,5.6319,5.7054,5.6938,0.0,0.0,5.7229,5.7206,5.7594,0.0,0.0,0.0,0.0,0.0,0.0,0.0,0.0,0.0,0.0,0.0,0.0,0.0,0.0,0.0,0.0,0.0,0.0,0.0,0.0,0.0,0.0,0.0,0.0,0.0,0.0,0.0,0.0,0.0,0.0,0.0,0.0,0.0,0.0,0.0,0.0,0.0,0.0,0.0,0.0,0.0,0.0,0.0,0.0,0.0,0.0,0.0,0.0,0.0,0.0,0.0,0.0,0.0,0.0,0.0,4.137,4.4161,4.6174,4.8132,4.9985,4.9669,4.9476,4.9439,4.7447,4.5502,0.0,0.0,0.0,0.0,0.0,0.0,0.0,0.0,0.0,0.0,0.0,0.0,0.0,0.0,0.0,0.0,0.0,0.0,0.0,0.0,0.0,0.0,0.0,0.0,0.0,0.0,0.0,0.0,0.0,0.0,0.0,0.0,0.0,0.0,0.0,0.0,0.0,0.0,0.0,0.0,0.0,0.0,5.7765,5.8578,0.0,0.0,0.0,5.7582,5.7902,0.0,0.0,0.0,0.0,0.0,0.0,0.0,0.0,0.0,0.0,0.0,0.0,0.0,0.0,0.0,0.0,0.0,0.0,0.0,0.0,0.0,0.0,0.0,0.0,0.0,0.0,0.0,0.0,0.0,0.0,0.0,0.0,0.0,0.0,0.0,0.0,0.0,0.0,0.0,0.0,0.0,0.0,0.0,0.0,0.0,0.0,0.0,0.0,0.0,0.0,0.0,0.0,0.0,0.0,0.0,0.0,0.0,4.4179,4.6309,4.8112,4.9589,4.9293,4.9069,4.8961,4.7233,0.0,0.0,0.0,0.0,0.0,0.0,0.0,0.0,0.0,0.0,0.0,0.0,0.0,0.0,0.0,0.0,0.0,0.0,0.0,0.0,0.0,0.0,0.0,0.0,0.0,0.0,0.0,3.9851,0.0,0.0,0.0,0.0,0.0,0.0,0.0,0.0,0.0,0.0,0.0,0.0,0.0,0.0,5.6212,5.8697,5.9613,6.0093,0.0,0.0,5.7861,5.8653,5.7441,5.6141,0.0,0.0,0.0,0.0,0.0,0.0,0.0,0.0,0.0,0.0,0.0,0.0,0.0,0.0,0.0,0.0,0.0,0.0,0.0,0.0,0.0,0.0,0.0,0.0,0.0,0.0,0.0,0.0,0.0,0.0,0.0,0.0,0.0,0.0,0.0,0.0,0.0,0.0,0.0,0.0,0.0,0.0,0.0,0.0,0.0,0.0,0.0,0.0,0.0,0.0,0.0,0.0,0.0,0.0,4.1399,4.4395,4.6207,4.7819,4.9171,4.8902,4.8676,4.8549,4.7368,4.5411,0.0,0.0,0.0,0.0,0.0,0.0,0.0,0.0,0.0,0.0,0.0,0.0,0.0,0.0,0.0,0.0,0.0,0.0,0.0,0.0,0.0,0.0,0.0,0.0,0.0,0.0,0.0,0.0,0.0,0.0,0.0,0.0,0.0,0.0,0.0,0.0,0.0,0.0,0.0,0.0,0.0,5.6528,5.8048,5.9622,6.0825,0.0,5.9583,5.8656,6.0139,5.8769,5.7474,5.7128,0.0,0.0,0.0,0.0,0.0,0.0,0.0,0.0,0.0,0.0,0.0,0.0,0.0,0.0,0.0,0.0,0.0,0.0,0.0,0.0,0.0,0.0,0.0,0.0,0.0,0.0,0.0,0.0,0.0,0.0,0.0,0.0,0.0,0.0,0.0,0.0,0.0,0.0,0.0,0.0,0.0,0.0,0.0,0.0,0.0,0.0,0.0,0.0,0.0,0.0,0.0,0.0,0.0,4.104,4.4285,4.5752,4.721,4.867,4.808,4.7695,4.7638,4.6283,4.4591,0.0,0.0,0.0,0.0,0.0,0.0,0.0,0.0,0.0,0.0,0.0,0.0,0.0,0.0,0.0,0.0,0.0,0.0,0.0,0.0,0.0,0.0,0.0,0.0,0.0,0.0,0.0,0.0,4.2207,4.2391,4.1957,0.0,0.0,0.0,0.0,0.0,0.0,0.0,0.0,0.0,0.0,5.7129,5.8505,6.0146,0.0,0.0,5.9746,5.9243,6.0215,5.8549,5.7102,5.6994,5.4758,0.0,0.0,0.0,0.0,0.0,0.0,0.0,0.0,0.0,0.0,0.0,0.0,0.0,0.0,0.0,0.0,0.0,0.0,0.0,0.0,0.0,0.0,0.0,0.0,0.0,0.0,0.0,0.0,0.0,0.0,0.0,0.0,0.0,0.0,0.0,0.0,0.0,0.0,0.0,0.0,0.0,0.0,0.0,0.0,0.0,0.0,0.0,0.0,0.0,0.0,0.0,0.0,4.1303,4.4268,4.5688,4.6948,4.8043,4.7442,4.7017,4.6799,4.5703,4.43,0.0,0.0,0.0,0.0,0.0,0.0,0.0,0.0,0.0,0.0,0.0,0.0,0.0,0.0,0.0,0.0,0.0,0.0,0.0,0.0,0.0,0.0,0.0,0.0,0.0,0.0,0.0,0.0,4.3158,4.3242,4.2623,0.0,0.0,0.0,0.0,0.0,0.0,0.0,0.0,0.0,0.0,5.794,5.8875,6.0255,6.1051,6.0705,5.9632,5.9211,6.0124,5.8131,5.6619,5.711,0.0,0.0,0.0,0.0,0.0,0.0,0.0,0.0,0.0,0.0,0.0,0.0,0.0,0.0,0.0,0.0,0.0,0.0,0.0,0.0,0.0,0.0,0.0,0.0,0.0,0.0,0.0,0.0,0.0,0.0,4.4777,0.0,0.0,0.0,0.0,0.0,0.0,0.0,0.0,0.0,0.0,0.0,0.0,0.0,0.0,0.0,0.0,0.0,0.0,0.0,0.0,0.0,0.0,4.2226,4.4473,4.6158,4.7077,4.716,4.7107,4.6776,4.6147,4.594,4.4968,4.3078,0.0,0.0,0.0,0.0,0.0,0.0,0.0,0.0,0.0,0.0,0.0,0.0,0.0,0.0,0.0,0.0,0.0,0.0,0.0,0.0,0.0,0.0,0.0,0.0,0.0,0.0,4.3955,4.351,4.3129,0.0,0.0,0.0,0.0,0.0,0.0,0.0,0.0,0.0,0.0,5.6115,5.8944,5.9012,5.9702,6.0461,6.1116,5.9392,5.8461,5.9979,5.7667,5.6215,0.0,0.0,0.0,0.0,0.0,0.0,0.0,0.0,0.0,0.0,0.0,0.0,0.0,0.0,0.0,0.0,0.0,0.0,0.0,0.0,0.0,0.0,0.0,0.0,0.0,0.0,0.0,5.0921,5.0062,0.0,0.0,0.0,0.0,0.0,0.0,0.0,0.0,0.0,0.0,0.0,5.0635,5.099,0.0,0.0,0.0,0.0,0.0,0.0,0.0,0.0,0.0,0.0,0.0,0.0,4.2011,4.4234,4.5889,4.6948,4.7436,4.6799,4.6317,4.6098,4.5294,4.3994,4.2213,0.0,0.0,0.0,0.0,0.0,0.0,0.0,0.0,0.0,0.0,0.0,0.0,0.0,0.0,0.0,0.0,0.0,0.0,0.0,0.0,0.0,0.0,0.0,0.0,0.0,4.4997,0.0,0.0,0.0,0.0,0.0,0.0,0.0,0.0,0.0,0.0,0.0,5.346,5.5701,5.7736,5.9012,5.9012,5.9702,6.0289,0.0,0.0,0.0,0.0,0.0,0.0,0.0,0.0,0.0,0.0,0.0,0.0,0.0,0.0,5.7617,5.6982,5.6008,5.5178,5.4776,0.0,0.0,0.0,0.0,0.0,0.0,0.0,0.0,0.0,0.0,0.0,0.0,0.0,0.0,5.3504,0.0,5.1768,0.0,0.0,0.0,0.0,0.0,0.0,0.0,0.0,5.3028,5.3754,5.3615,5.398,5.3619,0.0,5.0328,4.782,0.0,0.0,0.0,0.0,0.0,0.0,0.0,0.0,4.2776,4.4554,4.6126,4.6988,4.7093,4.6472,4.5875,4.5468,4.4625,4.3471,4.2043,4.1172,4.0078,0.0,0.0,0.0,0.0,0.0,0.0,0.0,0.0,0.0,0.0,0.0,0.0,0.0,0.0,0.0,0.0,0.0,0.0,0.0,0.0,0.0,0.0,0.0,4.589,0.0,0.0,0.0,0.0,0.0,0.0,0.0,0.0,0.0,5.2218,5.408,5.6081,5.8012,5.915,5.9599,5.9081,0.0,0.0,0.0,0.0,0.0,0.0,0.0,5.9806,5.9806,5.9806,6.0082,6.084,6.1392,6.222,6.3703,0.0,0.0,5.9875,5.8837,5.8008,5.7633,5.7805,5.784,5.7322,5.6631,5.6312,0.0,0.0,0.0,0.0,0.0,0.0,0.0,0.0,5.6607,5.613,0.0,5.431,0.0,0.0,0.0,0.0,0.0,5.2756,0.0,0.0,5.7023,5.7645,5.5895,5.5837,5.5259,5.3964,5.142,5.0475,5.0714,4.5923,0.0,0.0,0.0,0.0,0.0,0.0,4.4512,4.5345,4.6902,4.7196,4.622,4.6123,4.5494,4.435,4.4039,4.3477,4.2667,4.3049,4.243,4.0418,3.9944,0.0,0.0,0.0,0.0,0.0,0.0,0.0,0.0,0.0,0.0,0.0,0.0,0.0,0.0,0.0,0.0,0.0,0.0,0.0,0.0,4.6182,0.0,0.0,0.0,0.0,0.0,0.0,0.0,0.0,0.0,0.0,5.4701,5.7185,5.9047,5.9116,0.0,0.0,0.0,0.0,6.0254,6.0289,6.084,6.1289,6.1323,6.1323,6.1323,6.1323,0.0,0.0,6.2427,6.2565,6.3048,6.4496,6.4083,6.3358,6.2739,6.1359,6.0496,6.0978,6.0634,6.0289,6.0151,5.9633,5.9145,5.9801,0.0,0.0,0.0,0.0,5.9316,5.9844,6.0882,6.0945,5.9789,5.781,5.6927,0.0,0.0,0.0,0.0,0.0,0.0,5.3455,5.4653,5.6132,5.683,5.6872,5.7159,5.6776,5.5798,5.4135,5.3142,5.259,4.9696,4.719,4.5164,0.0,0.0,0.0,0.0,4.4765,4.6142,4.7192,4.7572,4.7218,4.6424,4.5312,4.4039,4.3956,4.3972,4.4059,4.3523,4.308,4.2827,4.1578,0.0,0.0,0.0,0.0,0.0,0.0,0.0,0.0,0.0,0.0,0.0,0.0,0.0,0.0,0.0,0.0,0.0,0.0,0.0,4.6906,4.7286,4.7362,0.0,0.0,0.0,0.0,0.0,0.0,0.0,0.0,0.0,5.9116,5.9082,5.9633,0.0,0.0,6.1151,6.0703,6.084,6.1185,6.1772,6.153,0.0,6.2082,6.2151,6.2151,6.2151,6.3013,6.3807,6.4014,6.4048,6.4565,6.6048,6.4841,6.3841,6.4669,6.3669,6.2393,6.1599,6.1979,6.2186,6.1254,6.1327,6.1328,6.3362,6.208,6.1614,6.1568,6.1924,6.1906,6.2419,6.3214,6.3231,6.2235,6.0409,5.9493,5.7587,5.4941,5.339,0.0,0.0,0.0,5.4594,5.5952,5.6643,5.7021,5.714,5.7332,5.6894,5.5963,5.4769,5.4069,5.3843,5.1677,4.9932,4.8531,0.0,0.0,4.4604,4.4874,4.5526,4.6504,4.7301,4.7551,4.7232,4.5975,4.4865,4.3923,4.3839,4.3989,4.4504,4.4156,4.4068,4.4204,4.2879,4.1912,0.0,0.0,0.0,0.0,0.0,0.0,0.0,0.0,0.0,0.0,0.0,4.2928,4.3158,0.0,0.0,0.0,4.6182,4.7603,4.8499,4.912,0.0,0.0,0.0,0.0,0.0,0.0,0.0,5.4701,5.715,5.9426,6.1082,6.0771,6.1116,6.3082,6.2703,6.2117,6.1806,0.0,6.2289,6.2461,6.2324,6.2393,6.2841,6.3186,6.3358,6.3358,6.3841,6.4358,6.4669,6.4462,6.4807,6.5911,6.5152,6.4427,6.5669,6.4876,6.3669,6.2496,6.2668,6.2772,6.1944,6.2018,6.1918,6.6042,6.5102,6.2772,6.2313,6.2973,6.2934,6.3362,6.4061,6.4022,6.3461,6.2549,6.1737,6.0469,5.8752,5.631,0.0,5.6401,5.6148,5.6443,5.7202,5.7882,5.7685,5.6779,5.6548,5.5988,5.5033,5.3982,5.3865,5.4436,5.243,5.164,5.1986,4.8727,4.6603,4.5764,4.6359,4.6685,4.6721,4.7425,4.7334,4.6472,4.5214,4.435,4.3956,4.3717,4.3779,4.4163,4.4817,4.5049,4.4723,4.388,4.3393,4.329,0.0,0.0,0.0,0.0,0.0,0.0,0.0,0.0,0.0,0.0,0.0,0.0,0.0,0.0,4.6707,4.8803,0.0,5.0252,5.1533,0.0,0.0,0.0,5.377,5.377,5.5701,5.7081,5.7081,0.0,0.0,6.1392,6.2117,6.3117,6.46,6.4083,6.3358,6.2737,6.3186,6.3358,6.2806,6.3186,6.3565,6.3531,6.3945,6.4289,6.4358,6.3979,6.3772,6.4358,6.4083,6.4255,6.5531,6.5117,6.4841,6.5635,6.5048,6.4393,6.3634,6.3048,6.2565,6.2289,6.2018,6.1501,6.6392,6.6159,6.5537,6.5421,6.5537,6.4877,6.4714,6.4877,6.4255,6.3136,6.1698,6.1497,6.0448,5.8752,5.7541,5.7114,5.7269,5.6537,5.6248,5.6303,5.6405,5.6169,5.5693,5.5434,5.5093,5.4723,5.4312,5.4251,5.4368,5.2791,5.1748,5.121,4.935,4.8596,4.8952,4.8568,4.833,4.833,4.8323,4.7602,4.6144,4.5451,4.4811,4.4241,4.3772,4.3779,4.4161,4.4105,4.4399,4.5016,4.4107,4.3645,4.3831,4.2622,0.0,0.0,0.0,0.0,0.0,0.0,0.0,0.0,0.0,4.5486,4.5576,0.0,4.8706,0.0,4.9838,5.1321,5.2494,5.3425,0.0,0.0,5.6012,5.684,5.684,5.8357,5.9392,5.9392,6.0909,6.222,6.2944,6.322,6.391,6.5359,6.4427,6.3738,6.4083,6.3807,6.3738,6.4014,6.3807,6.36,6.3565,6.3255,6.3255,6.3772,6.3255,6.3013,6.3738,6.3738,6.391,6.4738,6.4358,6.422,6.4876,6.4358,6.3876,6.3634,6.3427,6.2944,6.1875,6.2018,6.1883,6.6508,6.6508,6.6508,6.6508,6.647,6.5965,6.577,6.5732,6.4916,6.3789,6.2468,6.1342,6.0293,5.9322,5.8124,5.758,5.7535,5.6594,5.6079,5.5909,5.576,5.5527,5.5198,5.4976,5.4791,5.4597,5.4455,5.4409,5.43,5.2921,5.1949,5.1506,5.0128,4.9655,5.0039,4.9293,4.8873,4.8873,4.8205,4.7251,4.603,4.5425,4.4872,4.4321,4.3772,4.3687,4.4067,4.3814,4.4075,4.4821,4.4075,4.384,4.4293,4.3294,4.2589,0.0,0.0,0.0,0.0,0.0,0.0,0.0,0.0,0.0,0.0,0.0,5.1222,5.1774,5.2942,5.4115,5.5288,5.6391,5.7219,5.7633,5.8702,5.9426,5.9426,6.0496,6.122,6.122,6.2255,6.3117,6.3531,6.36,6.3876,6.4772,6.4117,6.3876,6.4531,6.4324,6.4117,6.4186,6.3841,6.36,6.36,6.2979,6.2634,6.2979,6.2772,6.2634,6.3013,6.3117,6.3358,6.3979,6.36,6.3462,6.4427,6.4083,6.3703,6.3979,6.3807,6.3186,6.2082,6.2018,6.164,6.6508,6.6508,6.6508,6.6431,6.6353,6.6353,6.6275,6.612,6.5258,6.445,6.3517,6.1264,6.0215,5.9982,5.8474,5.7696,5.7535,5.6482,5.5926,5.5789,5.5643,5.5389,5.5085,5.4927,5.4761,5.4565,5.4455,5.4392,5.4303,5.2902,5.2188,5.2092,5.0654,5.0003,5.0075,4.9401,4.9068,4.9075,4.794,4.6909,4.617,4.544,4.4865,4.435,4.3743,4.353,4.3746,4.3621,4.3816,4.43,4.401,4.4194,4.4923,4.3881,4.3417,0.0,4.3054,0.0,0.0,0.0,0.0,0.0,0.0,0.0,0.0,5.158,5.3497,5.5598,5.6564,5.7322,5.7874,5.9357,6.0289,6.022,6.0944,6.1427,6.1358,6.2082,6.2599,6.2496,6.3226,6.3712,6.3637,6.3639,6.3712,6.3706,6.3531,6.3669,6.4393,6.4496,6.4255,6.3772,6.3634,6.36,6.3531,6.2979,6.253,6.2599,6.2565,6.253,6.2739,6.2703,6.2875,6.3393,6.3151,6.3082,6.4255,6.391,6.3772,6.4152,6.3772,6.3186,6.2601,6.2121,6.1396,6.6508,6.6508,6.6508,6.6081,6.5452,6.5452,6.5071,6.4411,6.3556,6.2701,6.1878,6.1381,6.0759,6.0021,5.9011,5.8234,5.7535,5.6482,5.5926,5.5789,5.5477,5.5198,5.4927,5.4723,5.4603,5.4422,5.4426,5.4251,5.3981,5.2789,5.2089,5.1804,5.0053,4.9474,5.0075,0.0,0.0,0.0,4.9329,4.8256,4.7009,4.6366,4.5569,4.4659,4.3948,0.0,4.3126,4.2907,4.3034,4.3504,4.4148,0.0,0.0,0.0,0.0,0.0,0.0,0.0,0.0,0.0,0.0,0.0,5.1501,5.2046,5.1665,5.3642,5.5426,5.6495,5.7805,5.8392,5.7978,5.984,6.084,6.0323,6.1427,6.2013,6.1461,6.2496,6.3151,6.2601,6.3623,6.4182,6.3677,6.404,6.4182,6.3606,6.3082,6.3013,6.3669,6.3772,6.3945,6.4324,6.391,6.36,6.36,6.2979,6.2703,6.3117,6.2841,6.2737,6.3186,6.3289,6.3358,6.3565,6.3496,6.3151,6.3013,6.3255,6.3393,6.2979,6.2806,6.2668,6.2496,6.2429,6.1911,6.6508,0.0,6.6508,6.6003,0.0,6.518,6.4488,6.3323,6.2896,6.2196,6.1412,6.1412,6.0914,6.006,5.911,5.8234,5.7373,5.6394,5.5827,5.5707,5.5446,5.5159,5.492,5.4676,5.4554,5.4409,5.4233,5.4054,5.3851,5.2594,5.1924,5.1757,5.0249,4.9647,4.9875,5.0158,5.0366,5.0483,4.9588,4.87,4.7917,4.6968,4.6158,4.5425,4.4347,0.0,0.0,0.0,0.0,0.0,0.0,0.0,0.0,4.7355,0.0,4.8338,4.8655,4.9065,4.9535,5.056,5.161,5.2647,5.4402,5.5159,5.4402,5.5841,5.7219,5.8392,5.9185,5.9599,5.9633,6.0634,6.1151,6.084,6.1427,6.1737,6.1497,6.2265,6.2682,6.2191,6.3102,6.3764,6.3123,6.3339,6.3412,6.3086,6.2393,6.2048,6.2358,6.2461,6.2737,6.3462,6.3669,6.36,6.3531,6.2979,6.2599,6.291,6.2737,6.2668,6.2979,6.2737,6.2668,6.3289,6.2737,6.1979,6.2427,6.2496,6.2358,6.2048,6.222,6.2461,6.2461,6.2186,6.1599,6.6508,6.6508,6.6508,6.6003,6.518,6.518,6.4255,6.2701,0.0,0.0,0.0,6.1412,6.0914,6.0053,5.9056,5.8101,5.7271,5.6222,5.5679,5.5566,5.535,5.5105,5.4882,5.4683,5.4522,5.4409,5.4054,5.3833,5.3777,5.2598,5.1971,5.1834,5.0824,5.0159,4.9944,5.0246,5.0492,5.0588,4.977,4.9113,4.8636,4.7603,4.6756,4.6181,4.4879,4.4164,4.4072,4.3913,4.4009,4.4523,4.5536,4.6472,4.7323,4.8395,4.9252,4.9731,5.0039,5.0442,5.1077,5.1966,5.3163,5.4805,5.6633,5.7495,5.7012,5.7667,5.8633,5.9875,6.0116,6.0392,6.084,6.1047,6.1047,6.0909,6.1013,6.1083,6.112,6.1709,6.1917,6.1537,6.2578,6.3135,6.2433,6.2573,6.2606,6.2429,6.1875,6.122,6.1151,6.1323,6.1737,6.2496,6.3013,6.3393,6.3496,6.3151,6.2668,6.2565,6.253,6.2427,6.222,6.1737,6.1875,6.2841,6.1565,6.1151,6.1806,6.1703,6.1323,6.1323,6.1806,6.2324,6.2393,6.1875,6.1151,6.6508,6.6508,6.6508,6.6003,6.518,6.518,6.4255,6.2663,6.1924,6.1529,6.1412,6.1412,6.0914,6.006,5.9056,5.8139,5.7232,5.6144,5.5599,5.5593,5.5143,5.4927,5.4905,5.4571,5.4405,5.4392,5.4054,5.3739,5.3467,5.3025,5.2682,5.2341,5.1547,5.099,5.0712,5.036,5.05,5.1199,5.1041,5.0224,4.8834,4.8499,4.7665,4.6354,4.5483,4.498,4.4854,4.4362,4.426,4.4522,4.652,4.7896,4.8348,5.028,5.1317,5.0991,5.2123,5.2605,5.2119,5.336,5.4807,5.6288,5.6771,5.715,5.7702,5.8426,5.8944,5.9185,5.9737,5.9944,5.9495,5.9944,6.0047,5.9495,5.9944,6.0324,6.0237,6.0945,6.1328,6.111,6.2499,6.289,6.1812,6.2475,6.2892,6.2469,6.1565,6.1013,6.0599,6.0909,6.1599,6.2289,6.2565,6.291,6.3255,6.3531,6.3048,6.2565,6.2461,6.222,6.1772,6.1392,6.1392,6.1634,6.1254,6.0944,6.0771,6.0978,6.1082,6.1116,6.1323,6.1634,6.2151,6.1737,6.122,6.678,6.713,6.6703,6.6275,6.5809,6.445,6.3439,6.2624,6.1762,6.1412,6.1412,6.1412,6.0914,6.0046,5.8854,5.7873,5.7004,5.5853,5.5275,5.5197,5.5,5.4837,5.473,5.4489,5.4409,5.4375,5.3889,5.3546,5.3367,5.2959,5.264,5.248,5.1861,5.1394,5.1087,5.0706,5.0709,5.1088,5.1088,5.0554,4.9532,4.9033,4.8225,4.706,4.6072,4.5631,4.5702,4.5071,4.5149,4.6022,4.7668,4.8962,4.9926,5.1335,5.2333,5.2912,5.3218,5.3425,5.346,5.4908,5.6046,5.6736,5.7564,5.815,5.8495,5.8806,5.884,5.8461,5.8771,5.8633,5.7943,5.8495,5.8806,5.8461,5.9116,5.9529,5.9556,6.014,6.0421,6.0178,6.128,6.1806,6.0842,6.1294,6.1641,6.1222,6.0565,5.9944,5.9633,5.984,6.0358,6.1082,6.1565,6.1944,6.2324,6.2358,6.2358,6.2427,6.2117,6.1944,6.1772,6.1392,6.0944,6.1151,6.0703,6.0185,6.0082,6.0082,6.0082,6.0082,6.0461,6.084,6.1116,6.0909,6.0737,6.7014,6.7713,6.6858,6.6508,6.6275,6.3983,6.2973,6.2896,6.1886,6.1412,6.1412,6.1412,6.0914,5.9993,5.8694,5.7649,5.6786,5.5631,5.5,5.4882,5.4837,5.4761,5.4597,5.4455,5.4375,5.4233,5.3662,5.3367,5.3281,5.2761,5.2457,5.2364,5.1882,5.147,5.1298,5.1034,5.0908,5.0908,5.0792,5.0481,4.9925,4.9258,4.8519,4.7701,4.6764,4.6318,4.6487,4.6007,4.6234,4.7361,4.8748,4.9923,5.092,5.1881,5.2873,5.3632,5.3529,5.3804,5.4736,5.6012,5.6874,5.7047,5.8116,5.884,5.8978,5.8875,5.853,5.8012,5.7943,5.7633,5.7116,5.7529,5.7909,5.7943,5.8564,5.9115,5.9249,5.9582,5.9681,5.9386,6.0244,6.0699,6.0117,6.0082,6.0254,6.0255,5.9633,5.9288,5.9288,5.915,5.9323,5.984,6.0565,6.1151,6.1254,6.1358,6.153,6.1979,6.1634,6.1392,6.1427,6.0771,6.0461,6.0668,6.0047,5.9599,5.9806,5.9495,5.9254,5.9461,5.9944,6.0323,6.0599,6.0599,6.0392,6.7014,6.7596,6.6897,6.6508,6.6275,6.4605,6.3828,6.3595,6.2119,6.1412,6.1405,6.1412,6.0907,5.9986,5.8694,5.7638,5.6786,5.5524,5.4897,5.4852,5.473,5.4613,5.4581,5.4455,5.4233,5.3944,5.3565,5.3302,5.3045,5.2686,5.2364,5.2102,5.1607,5.1324,5.1272,5.1008,5.0908,5.0873,5.0425,4.993,4.9462,4.9006,4.8509,4.7999,4.7507,4.7274,4.7273,4.7235,4.7261,4.7558,4.9665,5.0685,5.0423,5.2117,5.2701,5.1666,5.2666,5.4011,5.5357,5.6322,5.7047,5.7736,5.7874,5.8254,5.884,5.8392,5.7978,5.7805,5.784,5.746,5.6943,5.7426,5.784,5.7943,5.8564,5.925,5.9648,5.9417,5.9283,5.9841,6.0077,5.9979,5.9461,5.9806,6.0151,6.0082,5.9909,5.9806,5.9771,5.9357,5.9012,5.9254,5.9806,6.0496,6.0978,6.1289,6.1013,6.0668,6.0944,6.0737,6.0254,6.0496,6.0909,5.9978,5.9875,5.984,5.9426,5.9047,5.9323,5.9599,5.9978,6.0323,6.0944,6.0909,6.0634,6.779,6.8412,6.7052,6.6198,6.5615,6.4488,6.3711,6.309,6.1963,6.1344,6.1228,6.1139,6.0618,5.9758,5.8522,5.7414,5.6358,5.5245,5.4683,5.4603,5.4619,5.4587,5.4489,5.4443,5.4216,5.3907,5.3565,5.3244,5.2959,5.2526,5.2054,5.1658,5.1402,5.122,5.1061,5.0954,5.0729,5.0418,4.993,4.9462,4.9009,4.8796,4.8483,4.8033,4.7605,4.7538,4.7671,4.7117,4.7048,4.768,4.8763,4.9542,4.9987,5.0918,5.1576,5.1744,5.2804,5.3873,5.4908,5.5667,5.6219,5.6529,5.6978,5.7391,5.7667,5.7426,5.7081,5.6633,5.6564,5.6391,5.6219,5.6805,5.7391,5.7874,5.8564,5.9115,5.935,5.9148,5.9149,5.9385,5.9459,5.9599,5.9702,5.9978,5.9978,5.9633,5.953,5.9564,5.9495,5.9185,5.9047,5.8978,5.8978,5.9116,5.9806,5.9944,5.9978,6.0116,6.0013,5.9599,5.9909,5.9633,5.9771,5.9633,5.9978,6.0082,5.984,5.9668,5.9771,5.9806,5.9495,5.9495,5.9357,5.9288,5.8978,6.8296,6.8762,6.7208,6.6003,6.5141,6.4333,6.3517,6.2616,6.1733,6.1189,6.103,6.0876,6.0261,5.9276,5.8258,5.7158,5.6078,5.5016,5.4505,5.4426,5.4505,5.4505,5.4426,5.4409,5.418,5.3758,5.3506,5.3162,5.2739,5.2162,5.1672,5.135,5.1246,5.1088,5.09,5.0792,5.0509,5.0074,4.9521,4.9043,4.8733,4.8576,4.8356,4.8001,4.7704,4.7671,4.777,4.7123,4.7027,4.7716,4.8087,4.8803,4.9887,5.0254,5.1057,5.2402,5.3287,5.4046,5.477,5.5495,5.5943,5.5977,5.6495,5.6805,5.6771,5.6598,5.6219,5.577,5.5426,5.5322,5.5391,5.6219,5.7012,5.7564,5.846,5.9081,5.9115,5.8943,5.8839,5.9046,5.8908,5.9116,5.9944,6.0185,6.0013,5.9564,5.9392,5.9185,5.9081,5.9012,5.9012,5.8978,5.8564,5.853,5.8909,5.8875,5.9116,5.9564,5.953,5.9668,5.9978,5.953,5.9288,5.9737,6.0013,5.9978,5.9599,5.9668,5.9702,5.9254,5.8944,5.884,5.8702,5.8323,5.7978,6.8334,6.8762,6.7208,6.6003,6.5141,6.4326,6.3478,6.2602,6.1569,6.103,6.0866,6.0657,5.9894,5.869,5.787,5.6952,5.6042,5.5002,5.4463,5.4484,5.4426,5.4426,5.4409,5.4409,5.4091,5.3598,5.3498,5.3023,5.2198,5.1597,5.1324,5.1298,5.1034,5.09,5.0792,5.0363,5.0102,4.993,4.9226,4.8702,4.8639,4.826,4.8033,4.8001,4.7968,4.7836,4.7537,4.7682,4.7719,4.7425,4.8336,4.9192,4.992,5.0691,5.1739,5.3129,5.3946,5.4736,5.5426,5.6115,5.6564,5.6633,5.6529,5.6736,5.6529,5.6012,5.5632,5.5598,5.4977,5.4632,5.477,5.601,5.6838,5.7114,5.8387,5.9181,5.9285,5.8766,5.8627,5.9008,5.8734,5.8908,6.0047,6.022,6.0151,6.0013,6.0047,5.9806,5.9185,5.9012,5.9012,5.8978,5.8909,5.8978,5.8978,5.8737,5.8599,5.8944,5.953,5.9806,5.9875,5.9875,5.9771,5.9771,6.0013,5.9875,5.9323,5.9047,5.9047,5.884,5.8702,5.8564,5.815,5.8702,5.8323,6.814,6.7402,6.678,6.6003,6.5134,6.4217,6.3322,6.2405,6.1272,6.0696,6.0558,6.0272,5.9817,5.9185,5.8237,5.7393,5.6547,5.5587,5.518,5.5105,5.4634,5.4409,5.4429,5.4704,5.4614,5.4203,5.3934,5.3153,5.1932,5.1479,5.122,5.0981,5.062,5.0363,5.0307,4.9873,4.9521,4.9192,4.8858,4.8578,4.8292,4.8099,4.8001,4.8001,4.8001,4.7935,4.777,4.7633,4.7422,4.7106,4.7645,4.8178,4.8742,5.0226,5.1585,5.2556,5.3347,5.4115,5.4805,5.5184,5.5357,5.5322,5.5322,5.5391,5.5288,5.5081,5.4908,5.4874,5.4701,5.4526,5.4931,5.6035,5.714,5.7827,5.876,5.9486,5.9486,5.9243,5.9208,5.9418,5.9524,5.9803,5.977,6.0082,6.0117,5.9564,5.9461,5.9357,5.915,5.9012,5.9012,5.8944,5.8633,5.8495,5.9012,5.884,5.8771,5.8944,5.9219,5.9288,5.9357,5.9392,5.9288,5.9737,6.0013,5.9944,5.9392,5.8702,5.8633,5.8357,5.8254,5.7943,5.7564,5.7636,5.7428,6.7829,6.6586,6.6508,6.598,6.5078,6.4412,6.339,6.2287,6.1612,6.0942,6.0352,6.0165,5.9942,5.9452,5.8782,5.8201,5.7563,5.6549,5.6023,5.5986,5.546,5.5145,5.5077,5.5324,5.5215,5.4641,5.3872,5.2942,5.1963,5.1405,5.1008,5.062,5.0278,5.0017,4.9815,4.9402,4.9012,4.8733,4.8578,4.8292,4.8033,4.8001,4.8001,4.8001,4.8001,4.7935,4.7836,4.7437,4.7196,4.7074,4.7169,4.7617,4.8648,5.0625,5.203,5.2603,5.3323,5.3977,5.4391,5.4494,5.4529,5.4494,5.4529,5.4494,5.4494,5.4494,5.4494,5.4494,5.4494,5.4592,5.5053,5.6018,5.7091,5.7953,5.8783,5.9408,5.9617,5.9408,5.9236,5.9307,6.0005,6.0354,6.0287,6.0669,6.0739,6.029,5.9875,5.9495,5.9771,5.9323,5.915,5.9254,5.8806,5.8668,5.8909,5.8909,5.8875,5.9012,5.9047,5.9012,5.9012,5.9012,5.915,5.9633,5.984,5.9806,5.9392,5.8633,5.8185,5.7909,5.7529,5.7253,5.6775,5.6264,5.6267,6.7285,6.6547,6.6508,6.5971,6.5159,6.488,6.3773,6.2358,6.2525,6.1605,6.0263,6.0492,6.0168,5.944,5.9234,5.9215,5.884,5.7638,5.6962,5.6887,5.6774,5.65,5.6105,5.6139,5.5723,5.4833,5.3284,5.2484,5.229,5.143,5.0724,5.0222,5.012,4.983,4.9402,4.8951,4.8671,4.8545,4.8293,4.8033,4.8001,4.7968,4.7935,4.7935,4.8001,4.7869,4.747,4.7165,4.7179,4.7333,4.7125,4.7877,4.9807,5.1818,5.3214,5.3146,5.3945,5.4333,5.4399,5.4367,5.4367,5.4399,5.4463,5.4494,5.4494,5.4494,5.4494,5.4494,5.4494,5.462,5.5004,5.5688,5.6453,5.7286,5.8285,5.9219,5.9464,5.9149,5.8698,5.8816,5.9826,6.0942,6.1569,6.1465,6.1431,6.164,6.0982,6.0255,6.0601,5.9771,5.9461,5.9668,5.9323,5.8875,5.8944,5.9012,5.9012,5.9012,5.9012,5.9012,5.9012,5.9012,5.9012,5.9357,5.9392,5.9357,5.9288,5.8564,5.8116,5.7771,5.7219,5.6878,5.6541,5.6235,5.5722,6.7285,6.6547,6.6508,6.6243,6.5741,6.4949,6.4063,6.3329,6.2709,6.1654,6.0702,6.0602,6.0135,5.9459,5.929,5.929,5.9253,5.8727,5.8276,5.7695,5.7187,5.6631,5.6223,5.6362,5.6022,5.5025,5.3842,5.2935,5.2368,5.1557,5.0777,5.0224,4.9979,4.9545,4.8987,4.8483,4.8195,4.8228,4.8099,4.7869,4.7638,4.7605,4.7504,4.7335,4.793,4.8124,4.7779,4.7916,4.7769,4.7489,4.8238,4.9088,4.9975,5.1122,5.1773,5.1882,5.2491,5.2907,5.2976,5.3483,5.3782,5.3848,5.4207,5.4463,5.4494,5.4494,5.4494,5.4494,5.4529,5.4655,5.4969,5.5166,5.585,5.6729,5.8503,5.9415,5.9485,5.952,5.9625,5.9628,6.0016,6.0369,6.048,6.0587,6.0764,6.0942,6.0319,6.0043,5.9976,5.9735,5.9149,5.9323,5.9047,5.9012,5.9012,5.9012,5.9012,5.9012,5.9012,5.9012,5.9012,5.9012,5.9012,5.9012,5.9012,5.9047,5.8909,5.853,5.8081,5.7943,5.7667,5.7295,5.6848,5.633,5.5739,6.779,6.7006,6.6808,6.6458,6.5936,6.5013,6.4317,6.3785,6.3285,6.2183,6.096,6.0962,6.0379,5.9478,5.929,5.929,5.929,5.929,5.8878,5.8239,5.7734,5.7144,5.6624,5.6381,5.6078,5.5374,5.4386,5.3611,5.3062,5.212,5.1336,5.0759,5.0362,4.9919,4.9322,4.8961,4.8762,4.8629,4.8628,4.8426,4.8086,4.7983,4.7914,4.7804,4.8334,4.8459,4.8135,4.8609,4.8663,4.8418,4.9158,4.9723,4.9947,5.0679,5.1102,5.1252,5.1773,5.221,5.2246,5.3009,5.3416,5.3516,5.4076,5.4463,5.4494,5.4494,5.4494,5.4494,5.4529,5.4727,5.522,5.5351,5.5819,5.6825,5.8215,5.9369,5.9685,6.0247,6.0493,6.0563,6.0598,6.0604,6.0714,6.0471,6.0648,6.0796,6.0241,6.0035,5.9972,5.9768,5.9459,5.9253,5.9185,5.9116,5.9012,5.9012,5.9012,5.9012,5.9012,5.9012,5.9012,5.9012,5.9012,5.9012,5.9012,5.9357,5.9288,5.8461,5.7909,5.7978,5.8118,5.7261,5.6677,5.6208,5.5603,6.8513,6.7751,6.7289,6.6491,6.5641,6.5191,6.4448,6.3669,6.4125,6.3069,6.1356,6.1618,6.1017,5.9778,5.9703,5.9703,5.9459,5.9515,5.9281,5.8784,5.8385,5.8023,5.7386,5.6501,5.5978,5.5631,5.4809,5.4314,5.3882,5.2855,5.2153,5.1458,5.0986,5.066,5.009,5.012,4.9781,4.9475,4.9468,4.9189,4.8832,4.886,4.8792,4.8756,4.8889,4.8808,4.8573,4.9047,4.9463,4.9547,4.9716,4.9876,5.0018,5.0608,5.0951,5.0984,5.1667,5.1816,5.2172,5.2594,5.3145,5.3247,5.3881,5.4463,5.4497,5.4494,5.4494,5.4494,5.4494,5.4868,5.558,5.5851,5.6324,5.7339,5.8016,5.9089,6.0914,6.116,6.0949,6.102,6.123,6.1441,6.1794,6.1408,6.1724,6.2147,6.1101,6.0583,6.0693,6.0282,5.9872,5.9597,5.9322,5.9185,5.9012,5.9012,5.9012,5.9081,5.9116,5.922,5.9219,5.9219,5.9495,5.9426,5.9288,5.9633,5.9702,5.915,5.8703,5.8838,5.8356,5.7226,5.6628,5.6387,5.571,6.7716,6.7279,6.6453,6.5768,6.5253,6.4965,6.4641,6.4257,6.433,6.3593,6.2632,6.2632,6.2106,6.1205,6.1093,6.1092,6.0823,6.0522,6.0305,5.9891,5.9049,5.7929,5.7018,5.6574,5.6118,5.5695,5.5367,5.4699,5.3718,5.3122,5.2243,5.112,5.1329,5.0888,5.0285,5.0043,4.9705,4.9564,4.9313,4.9058,4.8694,4.862,4.8408,4.8248,4.8957,4.9143,4.8859,4.9455,4.9804,4.9804,4.9844,4.99,4.99,5.0136,5.0292,5.0331,5.0416,5.0531,5.0691,5.1294,5.1954,5.2491,5.3213,5.3913,5.4463,5.4494,5.4494,5.4494,5.4529,5.4937,5.5686,5.5992,5.6678,5.7878,5.8447,5.9338,6.0706,6.0774,6.0423,6.0423,6.0458,6.0844,6.1265,6.109,6.0914,6.1511,6.1022,6.0083,6.0408,6.0377,5.976,5.9525,5.9286,5.9149,5.9047,5.9012,5.9047,5.915,5.9288,5.9599,5.9599,5.9633,6.0151,6.0599,6.0146,6.0283,6.0665,6.0564,6.0314,5.9497,5.9522,5.8856,5.768,5.7004,5.6187,6.834,6.7435,6.6734,6.5872,6.5009,6.4681,6.4558,6.4444,6.4364,6.3834,6.3233,6.312,6.2612,6.1785,6.1691,6.1474,6.1146,6.0848,6.0401,5.9656,5.8785,5.7868,5.7162,5.7062,5.6877,5.6495,5.6178,5.5688,5.4928,5.3945,5.3145,5.2807,5.2215,5.1693,5.146,5.1197,5.0676,5.0204,4.9946,4.978,4.9108,4.9006,4.8961,4.8832,4.9374,4.9533,4.9433,4.971,4.99,4.99,4.99,4.99,4.99,4.99,4.99,4.99,4.99,4.99,5.0018,5.064,5.1252,5.1773,5.2489,5.3043,5.3516,5.3781,5.408,5.4456,5.475,5.5561,5.6522,5.7071,5.7758,5.8585,5.909,5.9774,6.1029,6.0784,6.0569,6.0496,6.0352,6.0388,6.116,6.0563,6.0633,6.0914,6.0739,6.0151,5.9916,5.9814,5.9748,5.952,5.9352,5.9251,5.9149,5.9047,5.9219,5.9323,5.9454,5.9764,6.0181,6.0251,6.0561,6.0971,6.0895,6.0852,6.1058,6.0907,6.0034,5.9678,6.0315,5.9711,5.8083,5.7076,5.6296,6.9376,6.7821,6.7309,6.619,6.4795,6.4425,6.4344,6.4304,6.4304,6.3946,6.3421,6.3251,6.2853,6.1854,6.2051,6.1481,6.0932,6.0869,6.0041,5.9342,5.8602,5.8193,5.8193,5.7956,5.7693,5.7429,5.7123,5.6729,5.5989,5.477,5.4554,5.4195,5.3338,5.2903,5.2594,5.2805,5.2158,5.0993,5.1133,5.0738,4.9986,4.9813,4.9876,4.9679,4.971,4.9939,4.9963,5.0026,4.9955,5.0144,4.9987,4.9931,4.99,4.99,4.99,4.9963,5.0026,5.0089,5.0042,5.0621,5.1086,5.1285,5.1773,5.2172,5.2489,5.3041,5.372,5.4193,5.5041,5.5925,5.7259,5.846,5.8974,5.918,5.935,5.9899,6.0588,6.0864,6.093,6.1062,6.0428,6.0499,6.0744,6.0706,6.0323,6.0823,6.0471,6.0019,5.9814,5.9779,5.9716,5.9586,5.9453,5.9319,5.9217,5.9081,5.9357,5.953,5.968,6.0044,6.0882,6.1023,6.1028,6.1052,6.0901,6.0873,6.0974,6.0516,5.9724,5.9473,5.9828,5.865,5.7191,5.6713,5.6028,6.797,6.7368,6.5838,6.4917,6.4462,6.4344,6.4284,6.4284,6.4284,6.4172,6.4001,6.3883,6.3671,6.3422,6.2844,6.265,6.2059,6.1359,6.0597,5.9889,5.9706,5.958,5.944,5.8987,5.8136,5.757,5.7686,5.7087,5.5821,5.5087,5.4442,5.4124,5.3705,5.3091,5.3117,5.2924,5.2333,5.1573,5.1741,5.1254,5.0414,5.05,5.0532,5.0121,4.9987,5.0279,5.0532,5.0216,5.0469,5.1006,5.0595,5.0089,5.0089,5.0026,5.0058,5.0184,5.05,5.0532,5.0192,5.0581,5.1062,5.1118,5.1312,5.159,5.2205,5.2876,5.3352,5.3687,5.4195,5.5398,5.6875,5.8256,5.8806,5.8978,5.9116,5.9321,5.9628,5.9831,6.0,5.9964,5.9927,5.9997,6.066,6.0171,6.0136,6.059,6.0379,5.9855,5.9748,5.9746,5.9683,5.9588,5.9486,5.9352,5.9252,5.9391,5.9875,5.9972,6.0072,6.0184,6.1032,6.0886,6.0516,6.0625,6.0932,6.0876,6.0669,6.0564,5.9867,5.9605,5.9101,5.799,5.6947,5.6411,5.5664,6.794,6.7032,6.6027,6.5118,6.4379,6.4284,6.4264,6.4224,6.4203,6.4183,6.4042,6.3792,6.358,6.3468,6.2916,6.2406,6.1888,6.1098,6.0477,6.01,6.0072,6.0072,5.9908,5.9299,5.8416,5.7972,5.7912,5.7184,5.6121,5.5081,5.454,5.4528,5.3833,5.3472,5.3455,5.3323,5.2799,5.2091,5.2267,5.1954,5.1164,5.1227,5.1353,5.0974,5.0911,5.1132,5.1385,5.1132,5.1353,5.1638,5.1281,5.0839,5.0871,5.0879,5.0879,5.0974,5.1195,5.1132,5.0753,5.0762,5.1025,5.1069,5.1044,5.143,5.2085,5.2807,5.3432,5.3803,5.4463,5.5377,5.6516,5.7217,5.7925,5.8455,5.8765,5.9147,5.953,5.9595,5.9486,5.9588,5.9656,5.976,5.9864,5.9693,5.9727,6.0072,6.0107,5.9619,5.9553,5.9551,5.9586,5.9521,5.9453,5.9387,5.9321,5.9702,6.0461,6.0581,6.0588,6.0656,6.0959,6.0366,5.9565,5.9932,6.0403,6.0256,6.0116,6.0032,5.9502,5.8634,5.784,5.7211,5.6493,5.5645,5.4869,6.8303,6.6783,6.6671,6.5732,6.4434,6.4264,6.4125,6.3979,6.3958,6.3749,6.3557,6.3131,6.2855,6.267,6.2146,6.1536,6.1075,6.0512,6.0174,6.042,6.011,5.9879,5.958,5.901,5.8461,5.8772,5.7895,5.7092,5.6239,5.5299,5.4729,5.4947,5.4287,5.3761,5.3806,5.3914,5.3418,5.2469,5.2912,5.2744,5.208,5.2017,5.208,5.1828,5.1796,5.1954,5.2049,5.1986,5.1998,5.2104,5.2041,5.2031,5.1978,5.2007,5.2017,5.1954,5.2049,5.1828,5.1353,5.129,5.1426,5.1236,5.1173,5.1394,5.2009,5.2741,5.3343,5.4024,5.4705,5.5512,5.6321,5.6734,5.7039,5.7551,5.8278,5.9091,5.9697,5.9599,5.9631,5.9662,5.9558,5.949,5.9524,5.9421,5.9488,5.9486,5.9521,5.9489,5.9423,5.9458,5.9562,5.9804,5.9875,5.977,5.9663,5.9536,6.039,6.057,6.065,6.0643,6.0571,5.9762,5.9117,5.9469,5.9751,5.9457,5.9,5.849,5.7867,5.7182,5.6636,5.6144,5.5474,5.4763,5.4103,6.7706,6.6746,6.6011,6.5148,6.4339,6.4183,6.3835,6.3371,6.3271,6.2988,6.2496,6.2266,6.2162,6.2013,6.1443,6.1199,6.1129,6.0525,6.0391,6.0674,6.0229,5.9515,5.8943,5.832,5.7749,5.6967,5.6542,5.6224,5.5741,5.5067,5.4681,5.4726,5.4327,5.402,5.402,5.4051,5.3755,5.3123,5.3471,5.325,5.2681,5.2744,5.2744,5.2292,5.2187,5.2335,5.2597,5.2345,5.223,5.2716,5.23,5.2025,5.2012,5.207,5.2072,5.2219,5.2607,5.2586,5.2017,5.2365,5.2333,5.2017,5.1828,5.1859,5.2216,5.2711,5.3299,5.3697,5.4542,5.5352,5.5523,5.5955,5.6536,5.6954,5.7499,5.8315,5.9016,5.9624,5.9977,6.0116,5.9668,5.9356,5.9563,5.9632,5.9528,5.9459,5.932,5.9288,5.9213,5.9456,5.977,6.0079,6.0493,6.0271,6.0109,5.9861,6.0038,6.0165,6.0175,5.9971,5.9729,5.8998,5.8714,5.9056,5.8722,5.823,5.7661,5.7195,5.6726,5.6293,5.57,5.5108,5.4345,5.3658,5.341,6.7884,6.6699,6.6228,6.5122,6.3817,6.3602,6.3201,6.2646,6.2522,6.2354,6.2013,6.1659,6.1464,6.1437,6.1305,6.1415,6.1471,6.0466,6.0469,6.0753,5.9765,5.8875,5.8179,5.7459,5.6635,5.5922,5.5434,5.5254,5.504,5.4623,5.4454,5.4401,5.4189,5.4103,5.4103,5.4071,5.3945,5.3755,5.3913,5.4008,5.3586,5.3934,5.3681,5.3165,5.2648,5.277,5.2778,5.2324,5.2092,5.2287,5.2074,5.2181,5.2329,5.2454,5.2477,5.2582,5.3164,5.3313,5.2712,5.2965,5.287,5.2681,5.2586,5.2776,5.306,5.3439,5.3566,5.3788,5.3967,5.4643,5.4717,5.514,5.5466,5.6013,5.6684,5.7637,5.8634,5.9583,6.0118,6.0542,6.0487,6.0286,6.0289,6.0151,5.9737,5.9461,5.9185,5.904,5.9007,5.9397,5.9754,5.9824,6.0084,5.9987,5.9834,5.9743,5.9628,5.9732,5.9683,5.949,5.9266,5.8669,5.8427,5.8518,5.7941,5.7488,5.7218,5.706,5.6262,5.5453,5.493,5.4286,5.3312,5.2581,5.2261,6.8188,6.6649,6.6627,6.5282,6.3357,6.3113,6.2654,6.196,6.1815,6.1687,6.1479,6.1045,6.0843,6.0869,6.1058,6.1441,6.2077,6.0412,6.0108,6.0358,5.8905,5.7965,5.7312,5.6476,5.5482,5.5149,5.4717,5.4316,5.4528,5.4359,5.4146,5.4209,5.4198,5.4198,5.4134,5.4514,5.4387,5.4356,5.4514,5.4798,5.4976,5.4907,5.458,5.3907,5.3201,5.274,5.2634,5.2213,5.1774,5.1712,5.1666,5.1835,5.2245,5.2592,5.2681,5.2726,5.3509,5.3733,5.3692,5.3344,5.3471,5.3597,5.3376,5.3629,5.385,5.3945,5.404,5.4103,5.4146,5.4189,5.42,5.4189,5.4497,5.5063,5.596,5.698,5.8228,5.9297,6.0275,6.0651,6.1075,6.0953,6.0508,5.9573,5.8948,5.9107,5.8867,5.8809,5.8803,5.9265,5.9573,5.9404,5.9437,5.944,5.9383,5.9428,5.9318,5.9371,5.9206,5.9011,5.885,5.8532,5.8335,5.8058,5.798,5.7572,5.7287,5.6563,5.5548,5.4697,5.4179,5.3419,5.2368,5.1493,5.0999,6.818,6.6826,6.6704,6.5396,6.3487,6.3156,6.244,6.1365,6.1156,6.0777,6.0446,6.0294,6.0297,6.0308,6.0209,6.0959,6.1079,5.9875,5.9286,5.986,5.8066,5.6673,5.6047,5.5603,5.4998,5.4613,5.4306,5.4146,5.4358,5.4304,5.4103,5.4198,5.4577,5.4735,5.4356,5.5019,5.5588,5.5209,5.5557,5.562,5.5033,5.4496,5.393,5.3197,5.2487,5.2048,5.2002,5.1743,5.1466,5.0981,5.0934,5.065,5.0412,5.1403,5.1496,5.1865,5.2788,5.4292,5.4396,5.3951,5.3954,5.4175,5.408,5.4071,5.4166,5.4134,5.4103,5.4103,5.4103,5.4103,5.4103,5.4103,5.4189,5.4677,5.5493,5.6495,5.7655,5.8889,5.9842,6.0388,6.0652,6.0472,6.0122,5.9002,5.8069,5.8366,5.8558,5.8446,5.8597,5.897,5.9358,5.9201,5.8873,5.8831,5.8788,5.8848,5.8843,5.8908,5.8683,5.8441,5.8303,5.8119,5.7965,5.7731,5.7684,5.7121,5.6279,5.5439,5.4563,5.3768,5.3071,5.2259,5.1433,5.0591,4.9776,6.7272,6.6591,6.5752,6.4339,6.2673,6.2191,6.1455,6.0696,6.0508,6.0356,6.0104,6.0072,6.0285,6.0301,5.9625,5.9909,6.0493,5.8751,5.8177,5.8623,5.7111,5.5763,5.5402,5.4925,5.4454,5.4548,5.4419,5.4703,5.4735,5.4451,5.4103,5.4261,5.4767,5.4976,5.4672,5.5272,5.5335,5.5367,5.567,5.5556,5.4822,5.4462,5.4082,5.2948,5.1892,5.1386,5.1216,5.0793,5.0555,5.0202,5.0202,5.0298,5.0394,5.0934,5.1263,5.1635,5.223,5.3117,5.3614,5.3237,5.3658,5.4115,5.4053,5.3828,5.4277,5.4356,5.4324,5.4672,5.4292,5.4134,5.4103,5.4103,5.4103,5.4464,5.5272,5.5984,5.7045,5.8258,5.9278,5.9768,6.0128,5.9918,5.9621,5.8892,5.8144,5.8208,5.8102,5.7686,5.7921,5.8355,5.8713,5.8988,5.8576,5.8273,5.8201,5.8177,5.8068,5.8119,5.7995,5.784,5.7793,5.7637,5.7258,5.6988,5.6814,5.6163,5.5189,5.4649,5.411,5.3001,5.1802,5.1017,5.0272,4.9375,4.8531,6.5786,6.5633,6.4573,6.3255,6.1884,6.1285,6.072,6.0135,6.0104,6.0072,6.0008,5.9978,6.013,6.0009,5.9046,5.9069,6.0031,5.7807,5.7421,5.7047,5.6246,5.5251,5.4832,5.4401,5.4367,5.4849,5.4324,5.4545,5.4893,5.4893,5.4514,5.464,5.5525,5.5386,5.526,5.5576,5.5828,5.5891,5.6505,5.605,5.4959,5.4669,5.3881,5.2631,5.1399,5.0537,5.0442,5.0105,4.9766,4.9766,4.9766,5.0009,5.0346,5.065,5.0887,5.1169,5.1542,5.2032,5.2429,5.249,5.2731,5.3396,5.3996,5.4251,5.5077,5.4798,5.4482,5.4976,5.4451,5.4166,5.4103,5.4103,5.4261,5.4577,5.5138,5.5715,5.6436,5.7845,5.871,5.8976,5.9266,5.9266,5.8972,5.86,5.8296,5.8191,5.7723,5.7053,5.7407,5.7962,5.8137,5.8441,5.8226,5.7885,5.7777,5.7684,5.7543,5.718,5.7101,5.6957,5.6765,5.6457,5.5979,5.5899,5.58,5.521,5.4298,5.3973,5.3644,5.2428,5.1189,5.004,4.911,4.8266,4.7108,6.3626,6.3596,6.3494,6.26,6.1363,6.133,6.0803,6.0075,6.0075,5.9943,5.9681,5.9652,5.9149,5.8597,5.8379,5.8444,5.8958,5.7354,5.711,5.6773,5.5943,5.5101,5.4686,5.4516,5.4324,5.4387,5.4324,5.4324,5.4451,5.5051,5.5335,5.6031,5.6334,5.5986,5.5891,5.6176,5.6325,5.6437,5.6927,5.6715,5.5425,5.4521,5.3356,5.1988,5.069,4.9766,4.9766,4.9746,4.9746,4.9746,4.9746,4.9746,5.0009,5.0394,5.0508,5.0364,5.0798,5.1292,5.1673,5.1931,5.2593,5.3558,5.4345,5.4835,5.5718,5.5342,5.5134,5.507,5.4577,5.4166,5.4103,5.4134,5.4324,5.4735,5.5241,5.5967,5.6694,5.7639,5.8355,5.8363,5.8473,5.8655,5.8401,5.8037,5.7893,5.7773,5.7472,5.6798,5.7311,5.7793,5.7728,5.7825,5.7731,5.7511,5.7464,5.718,5.6717,5.6201,5.5876,5.5679,5.553,5.5089,5.4611,5.442,5.427,5.3806,5.3296,5.2709,5.2041,5.151,5.0538,4.9169,4.8045,4.7134,4.5768,6.2098,6.1203,6.1171,6.1152,6.1066,6.0576,6.0161,5.9818,5.9783,5.9417,5.884,5.8702,5.8176,5.752,5.7161,5.7239,5.7339,5.6798,5.6648,5.6495,5.5986,5.5664,5.5399,5.5272,5.5399,5.5209,5.4988,5.5019,5.5462,5.5197,5.5393,5.6055,5.6762,5.6568,5.6441,5.6388,5.6133,5.5364,5.5704,5.5616,5.428,5.3665,5.2773,5.1687,5.0924,5.0124,4.9805,4.9746,4.9746,4.9746,4.9746,4.9746,4.9746,5.0057,5.0038,4.9882,5.0408,5.0886,5.1199,5.1316,5.1765,5.296,5.3867,5.4806,5.5858,5.5138,5.5126,5.5052,5.4723,5.4143,5.4134,5.4103,5.4261,5.4703,5.5367,5.6157,5.6979,5.7878,5.8226,5.8289,5.8321,5.8381,5.8004,5.7533,5.7381,5.7223,5.6912,5.6804,5.7245,5.7568,5.7543,5.7275,5.7132,5.6669,5.6524,5.6232,5.5808,5.523,5.4595,5.4259,5.398,5.3639,5.3179,5.2994,5.2652,5.2182,5.1655,5.1017,5.0573,5.0178,4.9279,4.8082,4.7019,4.5933,4.4463,6.0811,5.9846,5.9748,6.0063,6.0482,5.9993,5.9551,5.9216,5.9182,5.8702,5.7857,5.7673,5.7156,5.6552,5.6474,5.6408,5.6573,5.6523,5.6544,5.6549,5.6581,5.6252,5.5999,5.5778,5.5557,5.5715,5.5272,5.5083,5.5456,5.5216,5.5165,5.5579,5.6378,5.6392,5.6158,5.6136,5.5333,5.3962,5.4032,5.4232,5.3055,5.2873,5.2493,5.1766,5.1164,5.083,5.0423,5.0249,5.0046,4.9959,4.9843,4.9746,4.9746,4.9746,4.9834,5.0046,5.0444,5.0851,5.117,5.1395,5.1812,5.3129,5.3773,5.4795,5.5262,5.4914,5.4962,5.5362,5.4697,5.4084,5.4053,5.4077,5.4565,5.5114,5.562,5.6378,5.7214,5.8004,5.8162,5.8321,5.8228,5.8104,5.787,5.7448,5.6979,5.6849,5.6766,5.6692,5.7042,5.7309,5.7276,5.6988,5.6651,5.6035,5.541,5.4878,5.4288,5.3795,5.3169,5.2587,5.2266,5.1889,5.1624,5.1431,5.1003,5.0555,4.9791,4.8964,4.8881,4.8911,4.774,4.6392,4.5355,4.4227,4.2937,5.9846,5.9781,5.9619,5.9588,5.959,5.9588,5.9114,5.8425,5.8319,5.7749,5.6896,5.6696,5.6152,5.5669,5.6021,5.6317,5.6447,5.6879,5.72,5.72,5.7168,5.6441,5.5797,5.5513,5.5563,5.5039,5.4837,5.4801,5.4932,5.4982,5.4849,5.4923,5.5673,5.5984,5.5455,5.5078,5.4247,5.3334,5.3655,5.3464,5.289,5.2625,5.2133,5.1684,5.1362,5.1113,5.0796,5.0479,5.0306,5.0248,4.9808,4.9663,4.9742,4.9725,4.9977,5.0427,5.0693,5.1352,5.2391,5.2507,5.2895,5.3461,5.398,5.471,5.5448,5.522,5.4787,5.5125,5.4437,5.4064,5.4024,5.4103,5.475,5.505,5.5462,5.6053,5.6745,5.7418,5.7512,5.748,5.77,5.7825,5.7684,5.7371,5.6745,5.6466,5.6513,5.6606,5.6758,5.6625,5.6554,5.628,5.5808,5.4777,5.4031,5.3379,5.2799,5.2266,5.1701,5.1044,5.0322,4.9702,4.9569,4.9643,4.8865,4.7929,4.7332,4.6806,4.6471,4.6002,4.561,4.4546,4.353,4.2328,4.0857,5.9586,5.9418,5.8841,5.8527,5.8457,5.8562,5.8352,5.7925,5.7379,5.6663,5.5929,5.5723,5.5271,5.5037,5.5729,5.6288,5.6404,5.7484,5.7927,5.7895,5.7864,5.7358,5.6618,5.601,5.5745,5.5165,5.4825,5.4643,5.4572,5.4854,5.4986,5.5131,5.4782,5.467,5.4483,5.4138,5.3406,5.1776,5.2034,5.2402,5.1702,5.1614,5.1494,5.1155,5.1165,5.1014,5.073,5.0469,5.0298,5.0184,4.9643,4.9529,4.9693,4.9738,4.9896,5.0526,5.0944,5.2281,5.2978,5.3181,5.3286,5.3552,5.3847,5.4355,5.4878,5.4471,5.4449,5.4631,5.4205,5.3955,5.3881,5.3867,5.4159,5.3827,5.4144,5.4827,5.5503,5.6107,5.6414,5.6414,5.6541,5.5925,5.5629,5.5599,5.5209,5.495,5.4849,5.5402,5.5687,5.545,5.529,5.513,5.4645,5.3564,5.2615,5.1889,5.1321,5.0792,5.0116,4.9347,4.8621,4.7788,4.7368,4.7364,4.6251,4.522,4.4573,4.3907,4.3318,4.2809,4.2057,4.1936,4.1358,3.9931,3.8347,5.9419,5.9183,5.8351,5.7923,5.7777,5.7668,5.7338,5.6849,5.6074,5.5385,5.4975,5.4893,5.4633,5.4611,5.5462,5.6189,5.6347,5.7656,5.8182,5.8182,5.8182,5.7365,5.6724,5.649,5.5803,5.5149,5.4777,5.4625,5.5019,5.4957,5.4808,5.4422,5.3794,5.3133,5.2922,5.2652,5.2272,5.0972,5.1069,5.1155,5.0823,5.0796,5.0961,5.0984,5.1005,5.1054,5.0663,5.0329,5.0104,4.988,4.9655,4.9402,4.9591,4.9775,4.9907,5.0582,5.1364,5.2406,5.2669,5.2783,5.2726,5.2808,5.3184,5.371,5.4119,5.3928,5.3955,5.4042,5.3901,5.3691,5.3522,5.3541,5.3193,5.2862,5.308,5.3734,5.4481,5.511,5.522,5.517,5.4899,5.4237,5.3617,5.3483,5.3396,5.3216,5.3087,5.3721,5.434,5.4164,5.3854,5.3721,5.3326,5.2159,5.1154,5.035,4.9748,4.9255,4.8472,4.7547,4.6857,4.601,4.5515,4.5092,4.4415,4.3522,4.1897,4.0973,3.9823,3.8823,3.802,3.818,3.8702,3.7716,3.6237,5.9251,5.9081,5.8139,5.7668,5.7557,5.6768,5.6034,5.5231,5.4507,5.4157,5.4146,5.42,5.4252,5.4494,5.562,5.6176,5.6447,5.766,5.7932,5.7949,5.7871,5.6916,5.6167,5.5669,5.5499,5.5031,5.4615,5.4698,5.5674,5.4741,5.417,5.3665,5.2619,5.1986,5.1726,5.1355,5.0986,5.0243,5.0158,5.0293,5.0292,5.0516,5.0684,5.0768,5.0989,5.118,5.0957,5.0734,5.0314,5.0032,4.9805,4.9469,4.941,4.9603,5.0188,5.0831,5.1558,5.1701,5.1976,5.2059,5.2059,5.2221,5.2812,5.3237,5.3366,5.3332,5.3454,5.3516,5.3422,5.3224,5.2975,5.2679,5.2378,5.2306,5.2288,5.2887,5.3605,5.395,5.3921,5.3795,5.346,5.2934,5.2348,5.2051,5.1564,5.1126,5.0989,5.1071,5.1699,5.2427,5.2213,5.2159,5.1618,5.074,4.9729,4.8658,4.8162,4.7683,4.6459,4.5527,4.4827,4.4257,4.3568,4.3067,4.2829,4.1546,3.8861,3.7065,3.5811,3.5035,3.5075,3.5269,3.605,3.572,3.4613,5.821,5.8067,5.6624,5.6001,5.5883,5.5181,5.4675,5.4412,5.4189,5.4103,5.4103,5.4103,5.4344,5.4881,5.56,5.6185,5.6755,5.7291,5.7527,5.7559,5.7371,5.6918,5.6186,5.5364,5.5255,5.4931,5.4592,5.4187,5.4413,5.3862,5.3287,5.2771,5.1701,5.1222,5.0901,5.0409,4.994,4.9688,4.9847,4.9956,5.001,5.0235,5.0348,5.046,5.0516,5.0656,5.0573,5.0435,5.0078,4.9968,4.9529,4.931,4.9831,4.9967,5.0321,5.1313,5.1429,5.1348,5.1677,5.1787,5.1732,5.1677,5.2113,5.2167,5.2383,5.2598,5.2812,5.2881,5.29,5.2699,5.2373,5.2023,5.1713,5.149,5.1445,5.1669,5.2316,5.2455,5.2427,5.2213,5.1892,5.1237,5.074,5.0294,4.9759,4.916,4.8873,4.882,4.9194,5.0016,5.0268,5.0129,4.987,4.8948,4.7836,4.6717,4.6439,4.5963,4.4761,4.4001,4.3857,4.3169,4.1855,4.0651,3.9708,3.7528,3.48,3.3568,3.333,3.324,3.3218,3.3251,3.3233,3.3083,3.2752,5.7335,5.7114,5.5843,5.5067,5.4675,5.4189,5.3931,5.3844,5.3931,5.3974,5.3962,5.4159,5.443,5.4857,5.5646,5.615,5.6244,5.7105,5.7339,5.6808,5.6522,5.5729,5.5095,5.43,5.361,5.3627,5.3682,5.3277,5.3478,5.3065,5.2464,5.2129,5.1005,5.0793,5.0602,5.0103,4.9688,4.9657,4.982,4.9956,5.001,5.001,5.001,5.001,5.001,5.001,5.001,5.001,4.9901,4.9793,4.9359,4.9467,4.9793,4.9857,5.0078,5.0906,5.0767,5.0683,5.0906,5.1017,5.1072,5.1128,5.1128,5.1072,5.1375,5.1759,5.203,5.2272,5.2272,5.2136,5.1809,5.1427,5.1016,5.0573,5.0546,5.0409,5.0657,5.0879,5.0768,5.0545,5.0068,4.9415,4.8868,4.8463,4.7912,4.7272,4.6713,4.6364,4.69,4.7808,4.7873,4.773,4.7604,4.7145,4.5982,4.5086,4.4958,4.4482,4.3336,4.2722,4.2772,4.1069,3.8808,3.7233,3.6008,3.4061,3.2561,3.1943,3.1606,3.1341,3.0469,2.9561,2.9936,3.1002,3.0486,5.6498,5.642,5.5555,5.4633,5.3876,5.3789,5.3627,5.3421,5.3627,5.3746,5.3796,5.4121,5.4358,5.4826,5.5394,5.5612,5.5704,5.6193,5.5888,5.5748,5.491,5.4138,5.3188,5.212,5.2269,5.175,5.1722,5.2347,5.2636,5.2159,5.1483,5.1483,5.0491,5.0101,5.0126,4.9878,4.9684,4.9874,4.9928,5.001,5.001,5.001,5.001,5.001,5.001,5.001,5.001,4.9901,4.9766,4.9603,4.9549,4.9684,4.9657,4.974,5.0041,5.0096,5.0179,5.0235,5.0292,5.0348,5.0235,5.0179,5.001,5.0235,5.0656,5.121,5.1595,5.1704,5.1649,5.1595,5.132,5.0823,5.038,5.0099,5.0016,4.9932,4.9958,4.9983,4.9813,4.9445,4.8616,4.8003,4.7357,4.6917,4.5849,4.5244,4.4793,4.4363,4.4363,4.5305,4.5365,4.5183,4.5466,4.5227,4.426,4.3529,4.3565,4.2972,4.1632,4.0857,4.0507,3.8206,3.5402,3.4342,3.3444,3.245,3.1234,3.0576,2.9529,2.8355,2.7287,2.5697,2.6117,2.7659,2.7701,5.5636,5.5515,5.4549,5.4005,5.3789,5.3584,5.3421,5.3377,5.3277,5.3308,5.3484,5.3658,5.4148,5.4915,5.4368,5.4357,5.4764,5.4469,5.3663,5.3307,5.2868,5.257,5.1921,5.107,5.1201,5.1839,5.186,5.1322,5.1378,5.085,5.0159,4.983,4.9467,4.9657,4.9956,4.9739,4.9657,4.9983,5.001,5.001,5.001,5.001,5.001,5.001,5.001,5.001,5.001,4.9983,4.9928,4.9874,4.9928,4.9901,4.9847,4.9956,5.001,5.001,5.001,5.001,5.001,5.001,5.001,5.001,5.001,5.001,5.0235,5.0767,5.1045,5.11,5.1045,5.0934,5.074,5.0296,4.9905,4.9707,4.9395,4.9304,4.9213,4.8926,4.8753,4.8061,4.7272,4.6594,4.5935,4.5061,4.3993,4.3349,4.3036,4.2597,4.1947,4.2264,4.25,4.257,4.3385,4.3157,4.2192,4.1586,4.1435,4.048,3.896,3.8462,3.8099,3.5959,3.366,3.2248,3.1086,3.0473,2.9738,2.8792,2.7711,2.6537,2.4903,2.3641,2.2762,2.3719,2.3706,5.4685,5.4549,5.3899,5.3571,5.3365,5.2815,5.2471,5.229,5.1789,5.1786,5.2243,5.2855,5.3572,5.4122,5.3258,5.2833,5.3168,5.2799,5.2435,5.186,5.1075,5.0944,5.0417,4.9876,4.9699,5.0283,5.0541,5.026,5.0325,4.9941,4.9469,4.944,4.9521,4.963,4.9956,4.9684,4.9657,5.001,5.001,5.001,5.001,5.001,5.001,5.001,5.001,5.001,5.001,5.001,5.001,5.001,5.001,5.001,4.9956,4.9983,5.001,5.001,5.001,5.001,5.001,4.9953,4.9953,4.987,4.9953,4.9897,5.001,5.046,5.046,5.0516,5.0516,5.0404,5.0235,4.9816,4.9589,4.9388,4.8474,4.7893,4.7188,4.6449,4.6235,4.5754,4.5061,4.4548,4.3955,4.3497,4.2431,4.1351,4.103,4.0234,3.9693,3.8967,3.9252,3.9642,4.0384,4.0345,3.9232,3.8869,3.8855,3.7697,3.6458,3.552,3.478,3.361,3.2116,3.0508,2.9443,2.9108,2.8347,2.7191,2.6584,2.5699,2.3753,2.1793,2.0989,2.0106,2.0171,5.3931,5.3746,5.3496,5.3157,5.2757,5.188,5.1296,5.0828,5.0066,4.9881,5.0432,5.1798,5.2235,5.2391,5.196,5.1635,5.1344,5.1247,5.1064,5.0458,4.9695,4.9543,4.9095,4.8452,4.8595,4.879,4.9146,4.9528,4.9825,4.9494,4.9494,4.9901,5.001,5.001,5.001,4.9983,5.001,5.001,5.001,5.001,5.001,5.001,5.001,5.001,5.001,5.001,5.001,5.001,5.001,5.001,5.001,5.001,5.001,5.001,5.001,5.001,5.001,4.9953,4.9897,4.9897,4.9727,4.9586,4.9643,4.9586,4.9472,4.9358,4.9358,4.9415,4.9415,4.9727,4.9556,4.9129,4.8957,4.851,4.7316,4.6336,4.5281,4.4374,4.4041,4.3669,4.3083,4.258,4.1988,4.1606,4.0644,3.9583,3.8597,3.7822,3.6944,3.6054,3.562,3.6147,3.6825,3.6565,3.6246,3.6455,3.6588,3.5555,3.4364,3.2852,3.1529,3.0822,2.9946,2.8662,2.7841,2.7262,2.6456,2.5401,2.4888,2.416,2.2532,2.0459,1.8956,1.8131,1.7367,5.3509,5.3421,5.3233,5.2667,5.1835,5.1296,5.0733,4.9969,4.9679,4.9486,4.9348,4.9496,5.0252,5.157,5.0075,4.9568,4.9803,4.9668,4.8862,4.813,4.8729,4.8514,4.8298,4.8354,4.8138,4.8354,4.8707,4.9142,4.9357,4.9194,4.9357,4.9926,4.9953,4.9953,4.9953,4.9953,4.9897,4.9897,4.9897,4.9897,4.9953,4.9953,5.001,5.001,5.001,5.001,5.001,5.001,5.001,5.001,4.9953,4.9897,4.9897,4.9897,4.9897,4.984,4.984,4.9586,4.9556,4.9358,4.9045,4.7893,4.7717,4.7424,4.7103,4.6688,4.6747,4.6925,4.7365,4.8642,4.8584,4.7776,4.7331,4.6577,4.5625,4.4756,4.3876,4.3301,4.2902,4.2161,4.1351,4.0708,3.9953,3.9169,3.7914,3.6864,3.5898,3.5051,3.4546,3.3426,3.2285,3.2884,3.3617,3.3883,3.3982,3.4412,3.4341,3.3322,3.2032,3.0192,2.8905,2.8544,2.7527,2.6398,2.5674,2.5135,2.4264,2.3512,2.2339,2.1479,2.0614,1.9099,1.7557,1.6704,1.6427]}]]